[[{"header":{"parameterUnit":"m.s-1","parameterCategory":1,"la1":31.0,"la2":29.5877,"lo1":-88.7671,"lo2":-86.6584,"dy":0.0162,"dx":0.0185,"nx":115,"ny":88,"refTime":"2023-05-29T00:00:00:Z","depth":0,"parameterNumber":2,"parameterNumberName":"U-component_of_WINDS"},"data":[0.0,0.0,0.0,0.0,0.0,0.0,0.0,0.0,0.0,0.0,0.0,0.0,0.0,0.0,0.0,0.0,0.0,0.0,0.0,0.0,0.0,0.0,0.0,0.0,0.0,0.0,0.0,0.0,0.0,0.0,0.0,0.0,0.0,0.0,0.0,0.0,0.0,0.0,0.0,0.0,0.0,0.0,0.0,0.0,0.0,0.0,0.0,0.0,0.0,0.0,0.0,0.0,0.0,0.0,0.0,0.0,0.0,0.0,0.0,0.0,0.0,0.0,0.0,0.0,0.0,0.0,0.0,0.0,0.0,0.0,0.0,0.0,0.0,0.0,0.0,0.0,0.0,0.0,0.0,0.0,0.0,0.0,0.0,0.0,0.0,0.0,0.0,0.0,0.0,0.0,0.0,0.0,0.0,0.0,0.0,0.0,0.0,0.0,0.0,0.0,0.0,0.0,0.0,0.0,0.0,0.0,0.0,0.0,0.0,0.0,0.0,0.0,0.0,0.0,0.0,0.0,0.0,0.0,0.0,0.0,0.0,0.0,0.0,0.0,0.0,0.0,0.0,0.0,0.0,0.0,0.0,0.0,0.0,0.0,0.0,0.0,0.0,0.0,0.0,0.0,0.0,0.0,0.0,0.0,0.0,0.0,0.0,0.0,0.0,0.0,0.0,0.0,0.0,0.0,0.0,0.0,0.0,0.0,0.0,0.0,0.0,0.0,0.0,0.0,0.0,0.0,0.0,0.0,0.0,0.0,0.0,0.0,0.0,0.0,0.0,0.0,0.0,0.0,0.0,0.0,0.0,0.0,0.0,0.0,0.0,0.0,0.0,0.0,0.0,0.0,0.0,0.0,0.0,0.0,0.0,0.0,0.0,0.0,0.0,0.0,0.0,0.0,0.0,0.0,0.0,0.0,0.0,0.0,0.0,0.0,0.0,0.0,0.0,0.0,0.0,0.0,0.0,0.0,0.0,0.0,0.0,0.0,0.0,0.0,0.0,0.0,0.0,0.0,0.0,0.0,0.0,0.0,0.0,0.0,0.0,0.0,0.0,0.0,0.0,0.0,0.0,0.0,0.0,0.0,0.0,0.0,0.0,0.0,0.0,0.0,0.0,0.0,0.0,0.0,0.0,0.0,0.0,0.0,0.0,0.0,0.0,0.0,0.0,0.0,0.0,0.0,0.0,0.0,0.0,0.0,0.0,0.0,0.0,0.0,0.0,0.0,0.0,0.0,0.0,0.0,0.0,0.0,0.0,0.0,0.0,0.0,0.0,0.0,0.0,0.0,0.0,0.0,0.0,0.0,0.0,0.0,0.0,0.0,0.0,0.0,0.0,0.0,0.0,0.0,0.0,0.0,0.0,0.0,0.0,0.0,0.0,0.0,0.0,0.0,0.0,0.0,0.0,0.0,0.0,0.0,0.0,0.0,0.0,0.0,0.0,0.0,0.0,0.0,0.0,0.0,0.0,0.0,0.0,0.0,0.0,0.0,0.0,0.0,0.0,0.0,0.0,0.0,0.0,0.0,0.0,0.0,0.0,0.0,0.0,0.0,0.0,0.0,0.0,0.0,0.0,0.0,0.0,0.0,0.0,0.0,0.0,0.0,0.0,0.0,0.0,0.0,0.0,0.0,0.0,0.0,0.0,0.0,0.0,0.0,0.0,0.0,0.0,0.0,0.0,0.0,0.0,0.0,0.0,0.0,0.0,0.0,0.0,0.0,0.0,0.0,0.0,0.0,0.0,0.0,0.0,0.0,0.0,0.0,0.0,0.0,0.0,0.0,0.0,0.0,0.0,0.0,0.0,0.0,0.0,0.0,0.0,0.0,0.0,0.0,0.0,0.0,0.0,0.0,0.0,0.0,0.0,0.0,0.0,0.0,0.0,0.0,0.0,0.0,0.0,0.0,0.0,0.0,0.0,0.0,0.0,0.0,0.0,0.0,0.0,0.0,0.0,0.0,0.0,0.0,0.0,0.0,0.0,0.0,0.0,0.0,0.0,0.0,0.0,0.0,0.0,0.0,0.0,0.0,0.0,0.0,0.0,0.0,0.0,0.0,0.0,0.0,0.0,0.0,0.0,0.0,0.0,0.0,0.0,0.0,0.0,0.0,0.0,0.0,0.0,0.0,0.0,0.0,0.0,0.0,0.0,0.0,0.0,0.0,0.0,0.0,0.0,0.0,0.0,0.0,0.0,0.0,0.0,0.0,0.0,0.0,0.0,0.0,0.0,0.0,0.0,0.0,0.0,0.0,0.0,0.0,0.0,0.0,0.0,0.0,0.0,0.0,0.0,0.0,0.0,0.0,0.0,0.0,0.0,0.0,0.0,0.0,0.0,0.0,0.0,0.0,0.0,0.0,0.0,0.0,0.0,0.0,0.0,0.0,0.0,0.0,0.0,0.0,0.0,0.0,0.0,0.0,0.0,0.0,0.0,0.0,0.0,0.0,0.0,0.0,0.0,0.0,0.0,0.0,0.0,0.0,0.0,0.0,0.0,0.0,0.0,0.0,0.0,0.0,0.0,0.0,0.0,0.0,0.0,0.0,0.0,0.0,0.0,0.0,0.0,0.0,0.0,0.0,0.0,0.0,0.0,0.0,0.0,0.0,0.0,0.0,0.0,0.0,0.0,0.0,0.0,0.0,0.0,0.0,0.0,0.0,0.0,0.0,0.0,0.0,0.0,0.0,0.0,0.0,0.0,0.0,0.0,0.0,0.0,0.0,0.0,0.0,0.0,0.0,0.0,0.0,0.0,0.0,0.0,0.0,0.0,0.0,0.0,0.0,0.0,0.0,0.0,0.0,0.0,0.0,0.0,0.0,0.0,0.0,0.0,0.0,0.0,0.0,0.0,0.0,0.0,0.0,0.0,0.0,0.0,0.0,0.0,0.0,0.0,0.0,0.0,0.0,0.0,0.0,0.0,0.0,0.0,0.0,0.0,0.0,0.0,0.0,0.0,0.0,0.0,0.0,0.0,0.0,0.0,0.0,0.0,0.0,0.0,0.0,0.0,0.0,0.0,0.0,0.0,0.0,0.0,0.0,0.0,0.0,0.0,0.0,0.0,0.0,0.0,0.0,0.0,0.0,0.0,0.0,0.0,0.0,0.0,0.0,0.0,0.0,0.0,0.0,0.0,0.0,0.0,0.0,0.0,0.0,0.0,0.0,0.0,0.0,0.0,0.0,0.0,0.0,0.0,0.0,0.0,0.0,0.0,0.0,0.0,0.0,0.0,0.0,0.0,0.0,0.0,0.0,0.0,0.0,0.0,0.0,0.0,0.0,0.0,0.0,0.0,0.0,0.0,0.0,0.0,0.0,0.0,0.0,0.0,0.0,0.0,0.0,0.0,0.0,0.0,0.0,0.0,0.0,0.0,0.0,0.0,0.0,0.0,0.0,0.0,0.0,0.0,0.0,0.0,0.0,0.0,0.0,0.0,0.0,0.0,0.0,0.0,0.0,0.0,0.0,0.0,0.0,0.0,0.0,0.0,0.0,0.0,0.0,0.0,0.0,0.0,0.0,0.0,0.0,0.0,0.0,0.0,0.0,0.0,0.0,0.0,0.0,0.0,0.0,0.0,0.0,0.0,0.0,0.0,0.0,0.0,0.0,0.0,0.0,0.0,0.0,0.0,0.0,0.0,0.0,0.0,0.0,0.0,0.0,0.0,0.0,0.0,0.0,0.0,0.0,0.0,0.0,0.0,0.0,0.0,0.0,0.0,0.0,0.0,0.0,0.0,0.0,0.0,0.0,0.0,0.0,0.0,0.0,0.0,0.0,0.0,0.0,0.0,0.0,0.0,0.0,0.0,0.0,0.0,0.0,0.0,0.0,0.0,0.0,0.0,0.0,0.0,0.0,0.0,0.0,0.0,0.0,0.0,0.0,0.0,0.0,0.0,0.0,0.0,0.0,0.0,0.0,0.0,0.0,0.0,0.0,0.0,0.0,0.0,0.0,0.0,0.0,0.0,0.0,0.0,0.0,0.0,0.0,0.0,0.0,0.0,0.0,0.0,0.0,0.0,0.0,0.0,0.0,0.0,0.0,0.0,0.0,0.0,0.0,0.0,0.0,0.0,0.0,0.0,0.0,0.0,0.0,0.0,0.0,0.0,0.0,0.0,0.0,0.0,0.0,0.0,0.0,0.0,0.0,0.0,0.0,0.0,0.0,0.0,0.0,0.0,0.0,0.0,0.0,0.0,0.0,0.0,0.0,0.0,0.0,0.0,0.0,0.0,0.0,0.0,0.0,0.0,0.0,0.0,0.0,0.0,0.0,0.0,0.0,2.4512,0.0,0.0,0.0,0.0,0.0,0.0,0.0,0.0,0.0,0.0,0.0,0.0,0.0,0.0,0.0,0.0,0.0,0.0,0.0,0.0,0.0,0.0,0.0,0.0,0.0,0.0,0.0,0.0,0.0,0.0,0.0,0.0,0.0,0.0,0.0,0.0,0.0,0.0,0.0,0.0,0.0,0.0,0.0,0.0,0.0,0.0,0.0,0.0,0.0,0.0,0.0,0.0,0.0,0.0,0.0,0.0,0.0,0.0,0.0,0.0,0.0,0.0,0.0,0.0,0.0,0.0,0.0,0.0,0.0,0.0,0.0,0.0,0.0,0.0,0.0,0.0,0.0,0.0,0.0,0.0,0.0,0.0,0.0,0.0,0.0,0.0,0.0,0.0,0.0,0.0,0.0,0.0,0.0,0.0,0.0,0.0,0.0,0.0,0.0,0.0,0.0,0.0,0.0,0.0,0.0,0.0,0.0,0.0,0.0,0.0,2.5332,2.5198,2.5031,2.4799,2.4459,0.0,0.0,0.0,0.0,0.0,0.0,0.0,0.0,0.0,0.0,0.0,0.0,0.0,0.0,0.0,0.0,0.0,0.0,0.0,0.0,0.0,0.0,0.0,0.0,0.0,0.0,0.0,0.0,0.0,0.0,0.0,0.0,0.0,0.0,0.0,0.0,0.0,0.0,0.0,0.0,0.0,0.0,0.0,0.0,0.0,0.0,0.0,0.0,0.0,0.0,0.0,0.0,0.0,0.0,0.0,0.0,0.0,0.0,0.0,0.0,0.0,0.0,0.0,0.0,0.0,0.0,0.0,0.0,0.0,0.0,0.0,0.0,0.0,0.0,0.0,0.0,0.0,0.0,0.0,0.0,0.0,0.0,0.0,0.0,0.0,0.0,0.0,0.0,0.0,0.0,0.0,0.0,0.0,0.0,0.0,0.0,0.0,0.0,0.0,0.0,0.0,0.0,0.0,0.0,0.0,0.0,0.0,0.0,0.0,0.0,0.0,0.0,2.4972,2.4672,2.4006,0.0,0.0,0.0,0.0,0.0,0.0,0.0,0.0,0.0,0.0,0.0,0.0,0.0,0.0,0.0,0.0,0.0,0.0,0.0,0.0,0.0,0.0,0.0,0.0,0.0,0.0,0.0,0.0,0.0,0.0,0.0,0.0,0.0,0.0,0.0,0.0,0.0,0.0,0.0,0.0,0.0,0.0,0.0,0.0,0.0,0.0,0.0,0.0,0.0,0.0,0.0,0.0,0.0,0.0,0.0,0.0,0.0,0.0,0.0,0.0,0.0,0.0,0.0,0.0,0.0,0.0,0.0,0.0,0.0,0.0,0.0,0.0,0.0,0.0,0.0,0.0,0.0,0.0,0.0,0.0,0.0,0.0,0.0,0.0,0.0,0.0,0.0,0.0,0.0,0.0,0.0,0.0,0.0,0.0,0.0,0.0,0.0,0.0,0.0,0.0,0.0,0.0,0.0,0.0,0.0,0.0,0.0,0.0,0.0,0.0,2.4246,2.412,2.469,0.0,2.288,0.0,0.0,0.0,0.0,0.0,0.0,0.0,0.0,0.0,0.0,0.0,0.0,0.0,0.0,0.0,0.0,0.0,0.0,0.0,0.0,0.0,0.0,0.0,0.0,0.0,0.0,0.0,0.0,0.0,0.0,0.0,0.0,0.0,0.0,0.0,0.0,0.0,0.0,0.0,0.0,0.0,0.0,0.0,0.0,0.0,0.0,0.0,0.0,0.0,0.0,0.0,0.0,0.0,0.0,0.0,0.0,0.0,0.0,0.0,0.0,0.0,0.0,0.0,0.0,0.0,0.0,0.0,0.0,0.0,0.0,0.0,0.0,0.0,0.0,0.0,0.0,0.0,0.0,0.0,0.0,0.0,0.0,0.0,0.0,0.0,0.0,0.0,0.0,0.0,0.0,0.0,0.0,0.0,0.0,0.0,0.0,0.0,0.0,0.0,0.0,0.0,0.0,0.0,0.0,0.0,0.0,0.0,0.0,0.0,0.0,2.4191,2.406,2.4397,2.3944,0.0,0.0,0.0,0.0,0.0,0.0,0.0,0.0,0.0,0.0,0.0,0.0,0.0,0.0,0.0,0.0,0.0,0.0,0.0,0.0,0.0,0.0,0.0,0.0,0.0,0.0,0.0,0.0,0.0,0.0,0.0,0.0,0.0,0.0,0.0,0.0,0.0,0.0,0.0,0.0,0.0,0.0,0.0,0.0,0.0,0.0,0.0,0.0,0.0,0.0,0.0,0.0,0.0,0.0,0.0,0.0,0.0,0.0,0.0,0.0,0.0,0.0,0.0,0.0,0.0,0.0,0.0,0.0,0.0,0.0,0.0,0.0,0.0,0.0,0.0,0.0,0.0,0.0,0.0,0.0,0.0,0.0,0.0,0.0,0.0,0.0,0.0,0.0,0.0,0.0,0.0,0.0,0.0,0.0,0.0,0.0,0.0,0.0,0.0,0.0,0.0,0.0,0.0,0.0,0.0,0.0,0.0,0.0,0.0,0.0,2.2852,2.3728,2.3976,2.3964,2.3399,2.2154,0.0,0.0,0.0,0.0,0.0,0.0,0.0,0.0,0.0,0.0,0.0,0.0,0.0,0.0,0.0,0.0,0.0,0.0,0.0,0.0,0.0,0.0,0.0,0.0,0.0,0.0,0.0,0.0,0.0,0.0,0.0,0.0,0.0,0.0,0.0,0.0,0.0,0.0,0.0,0.0,0.0,0.0,0.0,0.0,0.0,0.0,0.0,0.0,0.0,0.0,0.0,0.0,0.0,0.0,0.0,0.0,0.0,0.0,0.0,0.0,0.0,0.0,0.0,0.0,0.0,0.0,0.0,0.0,0.0,0.0,0.0,0.0,0.0,0.0,0.0,0.0,0.0,0.0,0.0,0.0,0.0,0.0,0.0,0.0,0.0,0.0,0.0,0.0,0.0,0.0,0.0,0.0,0.0,0.0,0.0,0.0,0.0,0.0,0.0,0.0,0.0,0.0,0.0,0.0,0.0,0.0,0.0,0.0,2.0585,2.1453,2.2508,2.3651,2.3352,2.2511,0.0,0.0,0.0,0.0,0.0,0.0,0.0,0.0,0.0,0.0,0.0,0.0,0.0,0.0,0.0,0.0,0.0,0.0,0.0,0.0,0.0,0.0,0.0,0.0,0.0,0.0,0.0,0.0,0.0,0.0,0.0,0.0,0.0,0.0,0.0,0.0,0.0,0.0,0.0,0.0,0.0,0.0,0.0,0.0,0.0,0.0,0.0,0.0,0.0,0.0,0.0,0.0,0.0,0.0,0.0,0.0,0.0,0.0,0.0,0.0,0.0,0.0,0.0,0.0,0.0,0.0,0.0,0.0,0.0,0.0,0.0,0.0,0.0,0.0,0.0,0.0,0.0,0.0,0.0,0.0,0.0,0.0,0.0,0.0,0.0,0.0,0.0,0.0,0.0,0.0,0.0,0.0,0.0,0.0,0.0,0.0,0.0,0.0,0.0,0.0,0.0,0.0,0.0,0.0,0.0,0.0,0.0,0.0,0.0,2.0526,2.1301,2.2119,2.2861,2.2504,2.1631,0.0,0.0,0.0,0.0,0.0,0.0,0.0,0.0,0.0,0.0,0.0,0.0,0.0,0.0,0.0,0.0,0.0,0.0,0.0,0.0,0.0,0.0,0.0,0.0,0.0,0.0,0.0,0.0,0.0,0.0,0.0,0.0,0.0,0.0,0.0,0.0,0.0,0.0,0.0,0.0,0.0,0.0,0.0,0.0,0.0,0.0,0.0,0.0,0.0,0.0,0.0,0.0,0.0,0.0,0.0,0.0,0.0,0.0,0.0,0.0,0.0,0.0,0.0,0.0,0.0,0.0,0.0,0.0,0.0,0.0,0.0,0.0,0.0,0.0,0.0,0.0,0.0,0.0,0.0,0.0,0.0,0.0,0.0,0.0,0.0,0.0,0.0,0.0,0.0,0.0,0.0,0.0,0.0,0.0,0.0,0.0,0.0,0.0,0.0,0.0,0.0,0.0,0.0,0.0,0.0,0.0,0.0,0.0,0.0,2.0482,0.0,2.2027,2.2,2.1864,2.1106,0.0,0.0,0.0,0.0,0.0,0.0,0.0,0.0,0.0,0.0,0.0,0.0,0.0,0.0,0.0,0.0,0.0,0.0,0.0,0.0,0.0,0.0,0.0,0.0,0.0,0.0,0.0,0.0,0.0,0.0,0.0,0.0,0.0,0.0,0.0,0.0,0.0,0.0,0.0,0.0,0.0,0.0,0.0,0.0,0.0,0.0,0.0,0.0,0.0,0.0,0.0,0.0,0.0,0.0,0.0,0.0,0.0,0.0,0.0,0.0,0.0,0.0,0.0,0.0,0.0,0.0,0.0,0.0,0.0,0.0,0.0,0.0,0.0,0.0,0.0,0.0,0.0,0.0,0.0,0.0,0.0,0.0,0.0,0.0,0.0,0.0,0.0,0.0,0.0,0.0,0.0,0.0,0.0,0.0,0.0,0.0,0.0,0.0,0.0,0.0,0.0,0.0,0.0,0.0,0.0,0.0,0.0,0.0,2.0137,2.0423,2.1855,2.2075,2.1065,2.1412,2.0948,0.0,0.0,0.0,0.0,0.0,0.0,0.0,0.0,0.0,0.0,0.0,0.0,0.0,0.0,0.0,0.0,0.0,0.0,0.0,0.0,0.0,0.0,0.0,0.0,0.0,0.0,0.0,0.0,0.0,0.0,0.0,0.0,0.0,0.0,0.0,0.0,0.0,0.0,0.0,0.0,0.0,0.0,0.0,0.0,0.0,0.0,0.0,0.0,0.0,0.0,0.0,0.0,0.0,0.0,0.0,0.0,0.0,0.0,0.0,0.0,0.0,0.0,0.0,0.0,0.0,0.0,0.0,0.0,0.0,0.0,0.0,0.0,0.0,0.0,0.0,0.0,0.0,0.0,0.0,0.0,0.0,0.0,0.0,0.0,0.0,0.0,0.0,0.0,0.0,0.0,0.0,0.0,0.0,0.0,0.0,0.0,0.0,0.0,0.0,0.0,0.0,0.0,0.0,0.0,0.0,0.0,0.0,0.0,0.0,2.0423,2.097,2.101,2.0549,2.052,1.9774,0.0,0.0,0.0,0.0,0.0,0.0,0.0,0.0,0.0,0.0,0.0,0.0,0.0,0.0,0.0,0.0,0.0,0.0,0.0,0.0,0.0,0.0,0.0,0.0,0.0,0.0,0.0,0.0,0.0,0.0,0.0,0.0,0.0,0.0,0.0,0.0,0.0,0.0,0.0,0.0,0.0,0.0,0.0,0.0,0.0,0.0,0.0,0.0,0.0,0.0,0.0,0.0,0.0,0.0,0.0,0.0,0.0,0.0,0.0,0.0,0.0,0.0,0.0,0.0,0.0,0.0,0.0,0.0,0.0,0.0,0.0,0.0,0.0,0.0,0.0,0.0,0.0,0.0,0.0,0.0,0.0,0.0,0.0,0.0,0.0,0.0,0.0,0.0,0.0,0.0,0.0,0.0,0.0,0.0,0.0,0.0,0.0,0.0,0.0,0.0,0.0,0.0,0.0,0.0,0.0,0.0,0.0,0.0,0.0,1.6104,1.879,2.0012,1.9666,2.0002,1.9416,1.7793,0.0,0.0,0.0,0.0,0.0,0.0,0.0,0.0,0.0,0.0,0.0,0.0,0.0,0.0,0.0,0.0,0.0,0.0,0.0,0.0,0.0,0.0,0.0,0.0,0.0,0.0,0.0,0.0,0.0,0.0,0.0,0.0,0.0,0.0,0.0,0.0,0.0,0.0,0.0,0.0,0.0,0.0,0.0,0.0,0.0,0.0,0.0,0.0,0.0,0.0,0.0,0.0,0.0,0.0,0.0,0.0,0.0,0.0,0.0,0.0,0.0,0.0,0.0,0.0,0.0,0.0,0.0,0.0,0.0,0.0,0.0,0.0,0.0,0.0,0.0,0.0,0.0,0.0,0.0,0.0,0.0,0.0,0.0,0.0,0.0,0.0,0.0,0.0,0.0,0.0,0.0,0.0,0.0,0.0,0.0,0.0,0.0,0.0,0.0,0.0,0.0,0.0,0.0,0.0,0.0,0.0,0.0,0.0,0.8159,1.4873,1.8278,1.8342,1.9641,1.9579,0.0,0.0,0.0,0.0,0.0,0.0,0.0,0.0,0.0,0.0,0.0,0.0,0.0,0.0,0.0,0.0,0.0,0.0,0.0,0.0,0.0,0.0,0.0,0.0,0.0,0.0,0.0,0.0,0.0,0.0,0.0,0.0,0.0,0.0,0.0,0.0,0.0,0.0,0.0,0.0,0.0,0.0,0.0,0.0,0.0,0.0,0.0,0.0,0.0,0.0,0.0,0.0,0.0,0.0,0.0,0.0,0.0,0.0,0.0,0.0,0.0,0.0,0.0,0.0,0.0,0.0,0.0,0.0,0.0,0.0,0.0,0.0,0.0,0.0,0.0,0.0,0.0,0.0,0.0,0.0,0.0,0.0,0.0,0.0,0.0,0.0,0.0,0.0,0.0,0.0,0.0,0.0,0.0,0.0,0.0,0.0,0.0,0.0,0.0,0.0,0.0,0.0,0.0,0.0,0.0,0.0,0.0,0.0,0.0,0.1671,0.3958,0.8437,1.4998,1.7607,1.8205,0.0,0.0,0.0,0.0,0.0,0.0,0.0,0.0,0.0,0.0,0.0,0.0,0.0,0.0,0.0,0.0,0.0,0.0,0.0,0.0,0.0,0.0,0.0,0.0,0.0,0.0,0.0,0.0,0.0,0.0,0.0,0.0,0.0,0.0,0.0,0.0,0.0,0.0,0.0,0.0,0.0,0.0,0.0,0.0,0.0,0.0,0.0,0.0,0.0,0.0,0.0,0.0,0.0,0.0,0.0,0.0,0.0,0.0,0.0,0.0,0.0,0.0,0.0,0.0,0.0,0.0,0.0,0.0,0.0,0.0,0.0,0.0,0.0,0.0,0.0,0.0,0.0,0.0,0.0,0.0,0.0,0.0,0.0,0.0,0.0,0.0,0.0,0.0,0.0,0.0,0.0,0.0,0.0,0.0,0.0,0.0,0.0,0.0,0.0,0.0,0.0,0.0,0.0,0.0,0.0,0.0,0.0,0.0,-0.2258,-0.4433,-0.3846,0.023,0.7993,1.1945,1.4589,0.0,0.0,0.0,0.0,0.0,0.0,0.0,0.0,0.0,0.0,0.0,0.0,0.0,0.0,0.0,0.0,0.0,0.0,0.0,0.0,0.0,0.0,0.0,0.0,0.0,0.0,0.0,0.0,0.0,0.0,0.0,0.0,0.0,0.0,0.0,0.0,0.0,0.0,0.0,0.0,0.0,0.0,0.0,0.0,0.0,0.0,0.0,0.0,0.0,0.0,0.0,0.0,0.0,0.0,0.0,0.0,0.0,0.0,0.0,0.0,0.0,0.0,0.0,0.0,0.0,0.0,0.0,0.0,0.0,0.0,0.0,0.0,0.0,0.0,0.0,0.0,0.0,0.0,0.0,0.0,0.0,0.0,0.0,0.0,0.0,0.0,0.0,0.0,0.0,0.0,0.0,0.0,0.0,0.0,0.0,0.0,0.0,0.0,0.0,0.0,0.0,0.0,0.0,0.0,0.0,0.0,0.0,0.0,-0.7757,-0.9761,-0.9667,-0.6781,-0.1033,0.4577,0.9908,0.0,0.0,0.0,0.0,0.0,0.0,0.0,0.0,0.0,0.0,0.0,0.0,0.0,0.0,0.0,0.0,0.0,0.0,0.0,0.0,0.0,0.0,0.0,0.0,0.0,0.0,0.0,0.0,0.0,0.0,0.0,0.0,0.0,0.0,0.0,0.0,0.0,0.0,0.0,0.0,0.0,0.0,0.0,0.0,0.0,0.0,0.0,0.0,0.0,0.0,0.0,0.0,0.0,0.0,0.0,0.0,0.0,0.0,0.0,0.0,0.0,0.0,0.0,0.0,0.0,0.0,0.0,0.0,0.0,0.0,0.0,0.0,0.0,0.0,0.0,0.0,0.0,0.0,0.0,0.0,0.0,0.0,0.0,0.0,0.0,0.0,0.0,0.0,0.0,0.0,0.0,0.0,0.0,0.0,0.0,0.0,0.0,0.0,0.0,0.0,0.0,0.0,0.0,0.0,0.0,0.0,0.0,0.0,-1.094,-1.3999,-1.5181,-1.2913,-0.6972,0.0597,0.7103,0.0,0.0,0.0,0.0,0.0,0.0,0.0,0.0,0.0,0.0,0.0,0.0,0.0,0.0,0.0,0.0,0.0,0.0,0.0,0.0,0.0,0.0,0.0,0.0,0.0,0.0,0.0,0.0,0.0,0.0,0.0,0.0,0.0,0.0,0.0,0.0,0.0,0.0,0.0,0.0,0.0,0.0,0.0,0.0,0.0,0.0,0.0,0.0,1.5233,0.0,0.0,0.0,0.0,0.0,0.0,0.0,0.0,0.0,0.0,0.0,0.0,0.0,0.0,0.0,0.0,0.0,0.0,0.0,0.0,0.0,0.0,0.0,0.0,0.0,0.0,0.0,0.0,0.0,0.0,0.0,0.0,0.0,0.0,0.0,0.0,0.0,0.0,0.0,0.0,0.0,0.0,0.0,0.0,0.0,0.0,0.0,0.0,0.0,0.0,0.0,0.0,0.0,0.0,0.0,0.0,0.0,0.0,0.0,-1.3041,-1.5883,-1.783,-1.6002,-1.0157,-0.4894,0.2001,0.0,0.0,0.0,0.0,0.0,0.0,0.0,0.0,0.0,0.0,0.0,0.0,0.0,0.0,0.0,0.0,0.0,0.0,0.0,0.0,0.0,0.0,0.0,0.0,0.0,0.0,0.0,0.0,0.0,0.0,0.0,0.0,0.0,0.0,0.0,0.0,0.0,0.0,0.0,0.0,0.0,0.0,0.0,0.0,0.0,0.0,0.0,0.0,0.0,0.0,0.0,0.0,0.0,0.0,0.0,0.0,0.0,0.0,0.0,0.0,0.0,0.0,0.0,0.0,0.0,0.0,0.0,0.0,0.0,0.0,0.0,0.0,0.0,0.0,0.0,0.0,0.0,0.0,0.0,0.0,0.0,0.0,0.0,0.0,0.0,0.0,0.0,0.0,0.0,0.0,0.0,0.0,0.0,0.0,0.0,0.0,0.0,0.0,0.0,0.0,0.0,0.0,0.0,0.0,0.0,0.0,0.0,-1.1867,-1.435,-1.6617,-1.8589,-1.7511,-1.3244,-0.9963,-0.2671,0.9008,0.0,0.0,0.0,0.0,0.0,0.0,0.0,0.0,0.0,0.0,0.0,0.0,0.0,0.0,0.0,0.0,0.0,0.0,0.0,0.0,0.0,0.0,0.0,0.0,0.0,0.0,0.0,0.0,0.0,0.0,0.0,0.0,0.0,0.0,0.0,0.0,0.0,0.0,1.2835,0.9487,0.0,0.0,0.0,0.0,0.0,0.0,0.0,0.0,0.8214,0.0,0.0,0.0,0.0,0.0,0.0,0.0,0.0,0.0,0.0,0.0,0.0,0.0,0.0,0.0,0.0,0.0,0.0,0.0,0.0,0.0,0.0,0.0,0.0,0.0,0.0,0.0,0.0,0.0,0.0,0.0,0.0,0.0,0.0,0.0,0.0,0.0,0.0,0.0,0.0,0.0,0.0,0.0,0.0,0.0,0.0,0.0,0.0,0.0,0.0,0.0,0.0,0.0,0.0,0.0,0.0,-0.934,-1.1959,-1.448,-1.6855,-1.7181,-1.8349,-2.0178,-1.1374,-0.2244,0.6278,0.0,0.0,0.0,0.0,0.0,0.0,0.0,0.0,0.0,0.0,0.0,0.0,0.0,0.0,0.0,0.0,0.0,0.0,0.0,0.0,0.0,0.0,0.0,0.0,0.0,0.0,0.0,0.0,0.0,0.0,0.0,0.0,0.0,0.0,0.0,0.0,0.0,0.0,0.0,0.3102,0.0334,0.0,0.0,0.0,0.0,0.0,0.0,0.0,0.0,0.2925,0.0,0.0,0.0,0.0,0.0,0.0,0.0,0.0,0.0,0.0,0.0,0.0,0.0,0.0,0.0,0.0,0.0,0.0,0.0,0.0,0.0,0.0,0.0,0.0,0.0,0.0,0.0,0.0,0.0,0.0,0.0,0.0,0.0,0.0,0.0,0.0,0.0,0.0,0.0,0.0,0.0,0.0,0.0,0.0,0.0,0.0,0.0,0.0,0.0,0.0,0.0,0.0,0.0,0.0,0.0,-1.004,-1.2754,-1.5052,-1.7098,-1.7461,-1.7412,-1.6841,-1.0652,-0.3331,0.0,0.0,0.0,0.0,0.0,0.0,0.0,0.0,0.0,0.0,0.0,0.0,0.0,0.0,0.0,0.0,0.0,0.0,0.0,0.0,0.0,0.0,0.0,0.0,0.0,0.0,0.0,0.0,0.0,0.0,0.0,0.0,0.0,0.0,0.0,0.0,0.0,0.0,0.0,0.0,-0.4649,-0.8035,-1.0218,0.0,0.0,0.0,0.0,0.0,0.0,-0.5262,-0.4094,0.0,0.0,0.0,0.0,0.0,0.0,0.0,0.0,0.0,0.0,0.0,0.0,0.0,0.0,0.0,0.0,0.0,0.0,0.0,0.0,0.0,0.0,0.0,0.0,0.0,0.0,0.0,0.0,0.0,0.0,0.0,0.0,0.0,0.0,0.0,0.0,0.0,0.0,0.0,0.0,0.0,0.0,0.0,0.0,0.0,0.0,0.0,0.0,0.0,0.0,0.0,0.0,0.0,0.0,0.0,-1.0499,-1.32,-1.5388,-1.7092,-1.7603,-1.6141,-1.2623,-0.9611,-0.425,0.0,0.0,0.0,0.0,0.0,0.0,0.0,0.0,0.0,0.0,0.0,0.0,0.0,0.0,0.0,0.0,0.0,0.0,0.0,0.0,0.0,0.0,0.0,0.0,0.0,0.0,0.0,0.0,0.0,0.0,0.0,0.0,0.0,0.0,0.0,0.0,0.0,0.0,0.0,0.0,0.0,-1.6242,-1.7882,-1.6744,0.0,0.0,0.0,0.0,-1.3006,-1.2618,0.0,0.0,0.0,0.0,0.0,0.0,0.0,0.0,0.0,0.0,0.0,0.0,0.0,0.0,0.0,0.0,0.0,0.0,0.0,0.0,0.0,0.0,0.0,0.0,0.0,0.0,0.0,0.0,0.0,0.0,0.0,0.0,0.0,0.0,0.0,0.0,0.0,0.0,0.0,0.0,0.0,0.0,0.0,0.0,0.0,0.0,0.0,0.0,0.0,0.0,0.0,0.0,0.0,0.0,0.0,0.0,-0.9688,-1.2384,-1.4697,-1.6538,-1.6179,-1.5426,-1.4365,-0.9358,-0.3789,0.0,0.0,0.0,0.0,0.0,0.0,0.0,0.0,0.0,0.0,0.0,0.0,0.0,0.0,0.0,0.0,0.0,0.0,0.0,0.0,0.0,0.0,0.0,0.0,0.0,0.0,0.0,0.0,0.0,0.0,0.0,0.0,0.0,0.0,0.0,0.0,0.0,0.0,0.0,0.0,0.0,-2.21,-2.4586,-2.3727,-2.1957,0.0,0.0,-2.0776,-2.0724,-2.0563,0.0,0.0,0.0,0.0,0.0,0.0,0.0,0.0,0.0,0.0,0.0,0.0,0.0,0.0,0.0,0.0,0.0,0.0,0.0,0.0,0.0,0.0,0.0,0.0,0.0,0.0,0.0,0.0,0.0,0.0,0.0,0.0,0.0,0.0,0.0,0.0,0.0,0.0,0.0,0.0,0.0,0.0,0.0,0.0,0.0,0.0,0.0,0.0,0.0,0.0,0.0,0.0,0.0,0.0,0.0,-0.7563,-1.0613,-1.3614,-1.5804,-1.7152,-1.6777,-1.5643,-1.3717,-0.963,-0.467,0.0,0.0,0.0,0.0,0.0,0.0,0.0,0.0,0.0,0.0,0.0,0.0,0.0,0.0,0.0,0.0,0.0,0.0,0.0,0.0,0.0,0.0,0.0,0.0,0.0,0.0,0.0,0.0,0.0,0.0,0.0,0.0,0.0,0.0,0.0,0.0,0.0,0.0,0.0,0.0,0.0,0.0,-2.8703,-2.8709,0.0,0.0,0.0,-2.6506,-2.5102,0.0,0.0,0.0,0.0,0.0,0.0,0.0,0.0,0.0,0.0,0.0,0.0,0.0,0.0,0.0,0.0,0.0,0.0,0.0,0.0,0.0,0.0,0.0,0.0,0.0,0.0,0.0,0.0,0.0,0.0,0.0,0.0,0.0,0.0,0.0,0.0,0.0,0.0,0.0,0.0,0.0,0.0,0.0,0.0,0.0,0.0,0.0,0.0,0.0,0.0,0.0,0.0,0.0,0.0,0.0,0.0,0.0,-1.1959,-1.4765,-1.6772,-1.7838,-1.7497,-1.6036,-1.3365,-1.0149,0.0,0.0,0.0,0.0,0.0,0.0,0.0,0.0,0.0,0.0,0.0,0.0,0.0,0.0,0.0,0.0,0.0,0.0,0.0,0.0,0.0,0.0,0.0,0.0,0.0,0.0,0.0,0.0731,0.0,0.0,0.0,0.0,0.0,0.0,0.0,0.0,0.0,0.0,0.0,0.0,0.0,0.0,-3.2054,-3.2015,-3.2638,-3.2748,0.0,0.0,-3.0747,-2.8683,-2.9037,-2.7778,0.0,0.0,0.0,0.0,0.0,0.0,0.0,0.0,0.0,0.0,0.0,0.0,0.0,0.0,0.0,0.0,0.0,0.0,0.0,0.0,0.0,0.0,0.0,0.0,0.0,0.0,0.0,0.0,0.0,0.0,0.0,0.0,0.0,0.0,0.0,0.0,0.0,0.0,0.0,0.0,0.0,0.0,0.0,0.0,0.0,0.0,0.0,0.0,0.0,0.0,0.0,0.0,0.0,0.0,0.0,-1.3408,-1.517,-1.6846,-1.836,-1.7694,-1.6399,-1.4486,-1.096,-0.6981,0.0,0.0,0.0,0.0,0.0,0.0,0.0,0.0,0.0,0.0,0.0,0.0,0.0,0.0,0.0,0.0,0.0,0.0,0.0,0.0,0.0,0.0,0.0,0.0,0.0,0.0,0.0,0.0,0.0,0.0,0.0,0.0,0.0,0.0,0.0,0.0,0.0,0.0,0.0,0.0,0.0,-3.4389,-3.494,-3.5372,-3.545,0.0,0.0,-3.3081,-3.1934,-3.2175,-3.0806,-2.586,0.0,0.0,0.0,0.0,0.0,0.0,0.0,0.0,0.0,0.0,0.0,0.0,0.0,0.0,0.0,0.0,0.0,0.0,0.0,0.0,0.0,0.0,0.0,0.0,0.0,0.0,0.0,0.0,0.0,0.0,0.0,0.0,0.0,0.0,0.0,0.0,0.0,0.0,0.0,0.0,0.0,0.0,0.0,0.0,0.0,0.0,0.0,0.0,0.0,0.0,0.0,0.0,0.0,-1.4014,-1.5802,-1.7651,-1.8849,-1.9315,-1.8662,-1.7243,-1.5073,-1.1738,-0.8064,0.0,0.0,0.0,0.0,0.0,0.0,0.0,0.0,0.0,0.0,0.0,0.0,0.0,0.0,0.0,0.0,0.0,0.0,0.0,0.0,0.0,0.0,0.0,0.0,0.0,0.0,0.0,0.0,-1.2982,-1.4312,-1.5489,0.0,0.0,0.0,0.0,0.0,0.0,0.0,0.0,0.0,0.0,-3.4411,-3.6687,-3.6411,0.0,0.0,-3.6107,-3.4882,-3.3415,-3.3371,-3.2034,-2.7876,-2.5405,0.0,0.0,0.0,0.0,0.0,0.0,0.0,0.0,0.0,0.0,0.0,0.0,0.0,0.0,0.0,0.0,0.0,0.0,0.0,0.0,0.0,0.0,0.0,0.0,0.0,0.0,0.0,0.0,0.0,0.0,0.0,0.0,0.0,0.0,0.0,0.0,0.0,0.0,0.0,0.0,0.0,0.0,0.0,0.0,0.0,0.0,0.0,0.0,0.0,0.0,0.0,0.0,-1.717,-1.8198,-1.9849,-2.0665,-2.0652,-1.9669,-1.8122,-1.5929,-1.2617,-0.9175,0.0,0.0,0.0,0.0,0.0,0.0,0.0,0.0,0.0,0.0,0.0,0.0,0.0,0.0,0.0,0.0,0.0,0.0,0.0,0.0,0.0,0.0,0.0,0.0,0.0,0.0,0.0,0.0,-1.793,-1.9443,-2.0788,0.0,0.0,0.0,0.0,0.0,0.0,0.0,0.0,0.0,0.0,-3.4797,-3.7332,-3.6979,-3.6914,-3.8162,-3.7254,-3.597,-3.4584,-3.4093,-3.281,-2.9543,0.0,0.0,0.0,0.0,0.0,0.0,0.0,0.0,0.0,0.0,0.0,0.0,0.0,0.0,0.0,0.0,0.0,0.0,0.0,0.0,0.0,0.0,0.0,0.0,0.0,0.0,0.0,0.0,0.0,0.0,-1.3346,0.0,0.0,0.0,0.0,0.0,0.0,0.0,0.0,0.0,0.0,0.0,0.0,0.0,0.0,0.0,0.0,0.0,0.0,0.0,0.0,0.0,0.0,-1.9745,-2.0416,-2.1343,-2.1953,-2.2262,-2.0609,-1.8943,-1.7305,-1.36,-1.0288,-0.7474,0.0,0.0,0.0,0.0,0.0,0.0,0.0,0.0,0.0,0.0,0.0,0.0,0.0,0.0,0.0,0.0,0.0,0.0,0.0,0.0,0.0,0.0,0.0,0.0,0.0,0.0,-1.9209,-2.1528,-2.3426,0.0,0.0,0.0,0.0,0.0,0.0,0.0,0.0,0.0,0.0,-3.4116,-3.5916,-3.6755,-3.7165,-3.7583,-3.8278,-3.7312,-3.626,-3.5562,-3.4592,-3.3178,0.0,0.0,0.0,0.0,0.0,0.0,0.0,0.0,0.0,0.0,0.0,0.0,0.0,0.0,0.0,0.0,0.0,0.0,0.0,0.0,0.0,0.0,0.0,0.0,0.0,0.0,0.0,-2.2397,-2.1386,0.0,0.0,0.0,0.0,0.0,0.0,0.0,0.0,0.0,0.0,0.0,-2.6252,-2.71,0.0,0.0,0.0,0.0,0.0,0.0,0.0,0.0,0.0,0.0,0.0,0.0,-2.1909,-2.2227,-2.308,-2.3064,-2.2161,-2.1285,-1.957,-1.699,-1.4154,-1.1058,-0.7702,0.0,0.0,0.0,0.0,0.0,0.0,0.0,0.0,0.0,0.0,0.0,0.0,0.0,0.0,0.0,0.0,0.0,0.0,0.0,0.0,0.0,0.0,0.0,0.0,0.0,-2.241,0.0,0.0,0.0,0.0,0.0,0.0,0.0,0.0,0.0,0.0,0.0,-3.1714,-3.4205,-3.4707,-3.5498,-3.7343,-3.6542,-3.6387,0.0,0.0,0.0,0.0,0.0,0.0,0.0,0.0,0.0,0.0,0.0,0.0,0.0,0.0,-3.5785,-3.4397,-3.4834,-3.5508,-3.583,0.0,0.0,0.0,0.0,0.0,0.0,0.0,0.0,0.0,0.0,0.0,0.0,0.0,0.0,-2.5676,0.0,-2.4686,0.0,0.0,0.0,0.0,0.0,0.0,0.0,0.0,-2.7139,-2.766,-2.7811,-2.8676,-2.8715,0.0,-2.8366,-2.7529,0.0,0.0,0.0,0.0,0.0,0.0,0.0,0.0,-2.3456,-2.3616,-2.3994,-2.3707,-2.2688,-2.1604,-1.9877,-1.7422,-1.4441,-1.1297,-0.7944,-0.7122,-0.6213,0.0,0.0,0.0,0.0,0.0,0.0,0.0,0.0,0.0,0.0,0.0,0.0,0.0,0.0,0.0,0.0,0.0,0.0,0.0,0.0,0.0,0.0,0.0,-2.5612,0.0,0.0,0.0,0.0,0.0,0.0,0.0,0.0,0.0,-3.1833,-3.2001,-3.295,-3.5029,-3.5048,-3.5405,-3.6863,0.0,0.0,0.0,0.0,0.0,0.0,0.0,-3.5319,-3.4745,-3.4644,-3.4857,-3.564,-3.6763,-3.7649,-3.7893,0.0,0.0,-3.713,-3.7283,-3.771,-3.771,-3.7473,-3.7191,-3.6973,-3.7107,-3.7125,0.0,0.0,0.0,0.0,0.0,0.0,0.0,0.0,-2.8203,-2.809,0.0,-2.7951,0.0,0.0,0.0,0.0,0.0,-2.8001,0.0,0.0,-2.9033,-2.917,-2.8385,-2.9191,-2.9495,-2.9319,-2.8745,-2.8472,-2.8348,-2.6974,0.0,0.0,0.0,0.0,0.0,0.0,-2.4441,-2.4488,-2.4121,-2.3883,-2.3769,-2.1601,-1.977,-1.8353,-1.4406,-1.1025,-0.8599,-0.8385,-0.7904,-0.6912,-0.6028,0.0,0.0,0.0,0.0,0.0,0.0,0.0,0.0,0.0,0.0,0.0,0.0,0.0,0.0,0.0,0.0,0.0,0.0,0.0,0.0,-2.6413,0.0,0.0,0.0,0.0,0.0,0.0,0.0,0.0,0.0,0.0,-3.3474,-3.4127,-3.464,-3.4496,0.0,0.0,0.0,0.0,-3.6291,-3.6156,-3.6414,-3.6259,-3.5329,-3.5535,-3.5729,-3.5379,0.0,0.0,-3.747,-3.7844,-3.8192,-3.8441,-3.9232,-3.9571,-3.8747,-3.8645,-3.8744,-3.8726,-3.8162,-3.7879,-3.8395,-3.8022,-3.7552,-3.2678,0.0,0.0,0.0,0.0,-2.9435,-2.9554,-3.0123,-3.0001,-2.9614,-2.9066,-2.9008,0.0,0.0,0.0,0.0,0.0,0.0,-2.89,-2.8701,-2.9098,-2.8974,-2.8477,-2.9244,-2.9139,-2.8286,-2.9218,-2.9161,-2.8203,-2.7208,-2.6513,-2.611,0.0,0.0,0.0,0.0,-2.4886,-2.4962,-2.4413,-2.3762,-2.3047,-2.1306,-1.8959,-1.5971,-1.3869,-1.2034,-1.0522,-0.9966,-0.9303,-0.8507,-0.7606,0.0,0.0,0.0,0.0,0.0,0.0,0.0,0.0,0.0,0.0,0.0,0.0,0.0,0.0,0.0,0.0,0.0,0.0,0.0,-2.9355,-2.9557,-3.0086,0.0,0.0,0.0,0.0,0.0,0.0,0.0,0.0,0.0,-3.5234,-3.4892,-3.4835,0.0,0.0,-3.5591,-3.5474,-3.5526,-3.5744,-3.6141,-3.5576,0.0,-3.6014,-3.5579,-3.5308,-3.567,-3.6908,-3.7899,-3.8129,-3.8806,-3.9557,-4.0134,-4.0056,-3.9777,-3.9593,-3.9551,-3.9533,-3.9515,-3.9338,-3.9074,-3.8756,-3.8499,-3.8162,-3.3823,-3.25,-3.1655,-3.1145,-3.0796,-3.0328,-3.0407,-3.0877,-3.081,-3.05,-3.0038,-2.9957,-2.9609,-2.9135,-2.907,0.0,0.0,0.0,-2.9291,-2.9586,-2.8945,-2.8575,-2.851,-2.8596,-2.8166,-2.7405,-2.8301,-2.8334,-2.7507,-2.6729,-2.6209,-2.5906,0.0,0.0,-2.4907,-2.5019,-2.5146,-2.5232,-2.4544,-2.369,-2.2749,-2.0653,-1.8034,-1.4936,-1.4125,-1.2985,-1.1378,-1.104,-1.0425,-0.9474,-0.8758,-0.8025,0.0,0.0,0.0,0.0,0.0,0.0,0.0,0.0,0.0,0.0,0.0,-1.5292,-1.8269,0.0,0.0,0.0,-2.7721,-2.995,-3.1482,-3.1534,0.0,0.0,0.0,0.0,0.0,0.0,0.0,-3.5214,-3.5683,-3.6015,-3.5995,-3.5519,-3.5311,-3.5703,-3.5669,-3.556,-3.5474,0.0,-3.5426,-3.5755,-3.5076,-3.4802,-3.5528,-3.5309,-3.5274,-3.5956,-3.6868,-3.7539,-3.7577,-3.8096,-3.8634,-3.9001,-3.8799,-3.8469,-3.8469,-3.8469,-3.8707,-3.9258,-3.8903,-3.8389,-3.823,-3.8007,-3.7595,-3.3926,-3.3119,-3.2381,-3.166,-3.1014,-3.0937,-3.0918,-3.0898,-3.0879,-3.0859,-3.0781,-3.0669,-3.0547,-3.047,-3.035,0.0,-3.0263,-2.9402,-2.9467,-3.0217,-2.8563,-2.798,-2.8265,-2.749,-2.6894,-2.6502,-2.6576,-2.6576,-2.6465,-2.5832,-2.5485,-2.5486,-2.5069,-2.4883,-2.4912,-2.5091,-2.5283,-2.5407,-2.4479,-2.3494,-2.2475,-1.973,-1.7182,-1.4907,-1.4902,-1.3815,-1.1585,-1.175,-1.1325,-1.0041,-0.9695,-0.9183,-0.8421,0.0,0.0,0.0,0.0,0.0,0.0,0.0,0.0,0.0,0.0,0.0,0.0,0.0,0.0,0.0,-2.9398,0.0,-3.1808,-3.2681,0.0,0.0,0.0,-3.4732,-3.4799,-3.5447,-3.5898,-3.5898,0.0,0.0,-3.5894,-3.589,-3.5848,-3.5729,-3.5641,-3.556,-3.5441,-3.5379,-3.5285,-3.5165,-3.4775,-3.4421,-3.4255,-3.4464,-3.4834,-3.5459,-3.5974,-3.5937,-3.5936,-3.5954,-3.6009,-3.634,-3.6156,-3.6211,-3.6285,-3.6395,-3.6688,-3.8212,-3.7374,-3.6575,-3.7184,-3.6709,-3.6094,-3.3003,-3.224,-3.2021,-3.1931,-3.1836,-3.1172,-3.0918,-3.0898,-3.0793,-3.0406,-2.9819,-2.9756,-2.9302,-2.865,-2.856,-2.8846,-2.9363,-2.8555,-2.8632,-2.9259,-2.7689,-2.6807,-2.6603,-2.6371,-2.6073,-2.5733,-2.6319,-2.6282,-2.5676,-2.5515,-2.513,-2.456,-2.4571,-2.4678,-2.4891,-2.5096,-2.5281,-2.5479,-2.3918,-2.2075,-1.9964,-1.8753,-1.7232,-1.537,-1.5149,-1.4266,-1.2656,-1.2252,-1.1799,-1.134,-1.0762,-1.0356,-1.0056,-1.0246,0.0,0.0,0.0,0.0,0.0,0.0,0.0,0.0,0.0,-2.2001,-2.4576,0.0,-2.8633,0.0,-3.0565,-3.1924,-3.3455,-3.3896,0.0,0.0,-3.5474,-3.5671,-3.5701,-3.5293,-3.5,-3.5019,-3.4414,-3.4277,-3.4921,-3.4968,-3.5162,-3.5747,-3.5741,-3.564,-3.5557,-3.5502,-3.5196,-3.4539,-3.4008,-3.3449,-3.288,-3.2474,-3.2419,-3.2522,-3.3091,-3.3476,-3.3513,-3.3476,-3.3862,-3.4935,-3.4798,-3.4926,-3.5991,-3.5789,-3.5705,-3.6611,-3.6538,-3.6347,-3.6523,-3.545,-3.4403,-3.2031,-3.1292,-3.1273,-3.1368,-3.1441,-3.0972,-3.0562,-3.0233,-3.015,-2.9663,-2.888,-2.8812,-2.8466,-2.7971,-2.7932,-2.814,-2.8486,-2.7698,-2.7766,-2.845,-2.6721,-2.6008,-2.6233,-2.5634,-2.5165,-2.4888,-2.5309,-2.5291,-2.4869,-2.487,-2.463,-2.4227,-2.4495,-2.4697,-2.4869,-2.5018,-2.5235,-2.5469,-2.3632,-2.172,-1.981,-1.8825,-1.7557,-1.6022,-1.5566,-1.4836,-1.3679,-1.3064,-1.2629,-1.226,-1.1756,-1.1316,-1.0914,-1.1266,-1.1756,0.0,0.0,0.0,0.0,0.0,0.0,0.0,0.0,0.0,0.0,0.0,-2.9795,-3.1007,-3.1761,-3.2724,-3.4071,-3.4323,-3.4474,-3.4625,-3.4775,-3.4838,-3.4843,-3.4414,-3.4121,-3.4121,-3.3691,-3.3574,-3.4043,-3.4098,-3.4246,-3.4734,-3.4701,-3.4734,-3.4972,-3.4986,-3.4603,-3.3763,-3.3264,-3.2769,-3.2106,-3.1681,-3.1403,-3.1433,-3.1744,-3.2063,-3.2052,-3.2089,-3.2375,-3.3164,-3.3018,-3.3128,-3.4339,-3.4321,-3.422,-3.4899,-3.4899,-3.4816,-3.5092,-3.4156,-3.3201,-3.1144,-3.0491,-3.05,-3.0435,-3.0419,-3.04,-3.0017,-2.9394,-2.9277,-2.8732,-2.789,-2.7748,-2.7623,-2.7563,-2.7563,-2.7621,-2.7678,-2.6813,-2.689,-2.7572,-2.5826,-2.5475,-2.6291,-2.5075,-2.4393,-2.419,-2.419,-2.419,-2.419,-2.419,-2.419,-2.4209,-2.4543,-2.4689,-2.4634,-2.4765,-2.4918,-2.5148,-2.3306,-2.1761,-2.0568,-1.9286,-1.7931,-1.6577,-1.608,-1.5421,-1.4509,-1.4021,-1.3552,-1.305,-1.2745,-1.2307,-1.1657,-1.2159,-1.2812,0.0,-1.5242,0.0,0.0,0.0,0.0,0.0,0.0,0.0,0.0,-2.886,-3.0241,-3.2319,-3.2752,-3.316,-3.3833,-3.411,-3.3971,-3.3297,-3.3322,-3.3396,-3.3398,-3.3301,-3.3242,-3.3242,-3.3047,-3.2969,-3.3223,-3.3164,-3.3086,-3.3418,-3.3324,-3.338,-3.3871,-3.4008,-3.3756,-3.2884,-3.2388,-3.1841,-3.1456,-3.1177,-3.1017,-3.1041,-3.1011,-3.1097,-3.1035,-3.1066,-3.1109,-3.1256,-3.1329,-3.1568,-3.2302,-3.2485,-3.268,-3.335,-3.301,-3.2852,-3.3403,-3.2908,-3.2082,-3.0556,-3.0425,-3.0425,-3.0023,-2.938,-2.938,-2.9388,-2.9343,-2.8597,-2.7741,-2.6833,-2.6131,-2.5794,-2.5803,-2.5783,-2.6197,-2.6794,-2.5947,-2.5937,-2.6579,-2.549,-2.4984,-2.4967,-2.4666,-2.4393,-2.4209,-2.419,-2.419,-2.419,-2.419,-2.419,-2.419,-2.4266,-2.4126,-2.3762,0.0,0.0,0.0,-2.2211,-2.0971,-1.9681,-1.9018,-1.8006,-1.6651,-1.654,0.0,-1.4879,-1.4776,-1.4537,-1.4218,-1.3956,0.0,0.0,0.0,0.0,0.0,0.0,0.0,0.0,0.0,0.0,0.0,-2.647,-2.7208,-2.7923,-2.9646,-3.1205,-3.2289,-3.2703,-3.2691,-3.2237,-3.2947,-3.3362,-3.3231,-3.33,-3.3379,-3.3379,-3.2832,-3.2422,-3.2402,-3.1211,-3.0879,-3.209,-3.1836,-3.1875,-3.2949,-3.2721,-3.2322,-3.2385,-3.2831,-3.2866,-3.2038,-3.1001,-3.0205,-2.99,-2.9625,-2.9457,-2.9452,-2.9452,-2.9457,-2.9457,-2.9457,-2.9732,-3.0228,-3.043,-3.0668,-3.1458,-3.1623,-3.1708,-3.1836,-3.1741,-3.1887,-3.2603,-3.1666,-3.0613,-2.947,0.0,-2.947,-2.9033,0.0,-2.8332,-2.8187,-2.7997,-2.7526,-2.6805,-2.5947,-2.5495,-2.5313,-2.5313,-2.5313,-2.5534,-2.5918,-2.5395,-2.5321,-2.5619,-2.5034,-2.4741,-2.4688,-2.4469,-2.4303,-2.419,-2.419,-2.419,-2.419,-2.419,-2.419,-2.419,-2.4303,-2.4018,-2.3401,-2.2802,-2.2424,-2.2271,-2.1302,-2.0419,-1.9652,-1.8632,-1.7778,-1.7113,-1.6723,0.0,0.0,0.0,0.0,0.0,0.0,0.0,0.0,0.0,0.0,-1.6434,-1.8238,-1.9875,-2.125,-2.3286,-2.4903,-2.5966,-2.719,-2.8029,-2.8324,-2.9898,-3.1075,-3.1654,-3.1944,-3.1985,-3.1763,-3.2222,-3.2395,-3.2007,-3.2051,-3.2168,-3.2109,-3.1816,-3.1387,-3.0937,-3.0156,-2.9824,-3.0195,-2.9922,-2.9941,-3.0723,-3.0485,-3.0201,-3.0242,-3.1117,-3.1474,-3.0626,-2.9844,-2.9042,-2.8426,-2.8124,-2.7948,-2.7867,-2.783,-2.7801,-2.7824,-2.7824,-2.8081,-2.8815,-2.9017,-2.9365,-3.0522,-3.0815,-3.0901,-3.1236,-3.1078,-3.0931,-3.1311,-3.0459,-2.9622,-2.8275,-2.8275,-2.8275,-2.7915,-2.7317,-2.7252,-2.6874,-2.6277,0.0,0.0,0.0,-2.5192,-2.5184,-2.5203,-2.5212,-2.5212,-2.5192,-2.5041,-2.4943,-2.4902,-2.4642,-2.4559,-2.467,-2.4337,-2.419,-2.419,-2.419,-2.417,-2.4113,-2.417,-2.417,-2.4133,-2.4191,-2.3771,-2.2873,-2.1656,-2.1065,-2.1121,-2.0399,-1.9825,-1.943,-1.8199,-1.7524,-1.7475,-1.6758,-1.6277,-1.6132,-1.5541,-1.5358,-1.5683,-1.5531,-1.5445,-1.5445,-1.6015,-1.6579,-1.7203,-1.9002,-2.0505,-2.1572,-2.3409,-2.4979,-2.6011,-2.7246,-2.8261,-2.8974,-2.988,-3.0559,-3.0941,-3.0902,-3.0961,-3.12,-3.1197,-3.0952,-3.023,-3.0333,-3.0449,-3.043,-3.0449,-3.0195,-2.9687,-2.9316,-2.9023,-2.8711,-2.8359,-2.8144,-2.8281,-2.8359,-2.8046,-2.8184,-2.927,-2.9885,-2.9212,-2.8775,-2.8246,-2.7494,-2.7135,-2.6837,-2.683,-2.6728,-2.6612,-2.6618,-2.6615,-2.6888,-2.753,-2.7585,-2.8209,-2.942,-2.9567,-2.9921,-3.0796,-3.0215,-2.9604,-2.9655,-2.9021,-2.8421,-2.7459,-2.7478,-2.7478,-2.6968,-2.6227,-2.6208,-2.5769,-2.5059,-2.5126,-2.5038,-2.4855,-2.4761,-2.4761,-2.4855,-2.4855,-2.4874,-2.4874,-2.4861,-2.4723,-2.4567,-2.4526,-2.4411,-2.4282,-2.4208,-2.419,-2.419,-2.419,-2.4036,-2.3816,-2.4036,-2.4054,-2.3746,-2.3398,-2.2576,-2.1318,-1.9956,-1.9327,-1.9461,-1.9323,-1.8769,-1.7768,-1.7683,-1.7433,-1.7016,-1.6718,-1.6608,-1.665,-1.5993,-1.5773,-1.6068,-1.5978,-1.6163,-1.6697,-1.6854,-1.7409,-1.8549,-1.9742,-2.0904,-2.1947,-2.3176,-2.4353,-2.5481,-2.6047,-2.7369,-2.9758,-2.9709,-2.9946,-3.0753,-2.9811,-2.9223,-2.9413,-2.9052,-2.874,-2.8557,-2.8596,-2.8672,-2.875,-2.8769,-2.8965,-2.9375,-2.8262,-2.7988,-2.8789,-2.8008,-2.7441,-2.7949,-2.7559,-2.7187,-2.7285,-2.7844,-2.8276,-2.8161,-2.7884,-2.7649,-2.7267,-2.7107,-2.6786,-2.6893,-2.6591,-2.6415,-2.6409,-2.6401,-2.6502,-2.6741,-2.6778,-2.7163,-2.8007,-2.7567,-2.7952,-2.8943,-2.8315,-2.7559,-2.8088,-2.7134,-2.648,-2.6282,-2.6282,-2.6264,-2.585,-2.5198,-2.5288,-2.5084,-2.4639,-2.4674,-2.4752,-2.4785,-2.4639,-2.4657,-2.4804,-2.4804,-2.4804,-2.479,-2.4685,-2.4591,-2.4454,-2.3946,-2.3879,-2.4099,-2.3327,-2.2905,-2.2886,-2.2757,-2.2883,-2.3227,-2.2747,-2.2747,-2.3173,-2.2209,-2.1411,-2.0935,-1.9487,-1.8634,-1.8411,-1.7966,-1.7663,-1.7497,-1.6913,-1.654,-1.636,-1.6469,-1.6368,-1.6069,-1.6099,-1.6306,-1.6686,-1.6652,-1.6888,-1.7558,-1.8104,-1.8669,-1.9273,-2.0428,-2.1308,-2.1777,-2.3236,-2.458,-2.5676,-2.6103,-2.6845,-2.8113,-2.8026,-2.817,-2.8796,-2.8271,-2.8085,-2.8443,-2.8245,-2.8104,-2.8158,-2.8252,-2.8281,-2.8281,-2.8281,-2.8262,-2.8101,-2.7454,-2.7083,-2.7376,-2.6732,-2.6364,-2.6777,-2.6484,-2.6289,-2.6309,-2.6529,-2.6893,-2.722,-2.7142,-2.6749,-2.6276,-2.5949,-2.5733,-2.563,-2.5439,-2.5312,-2.5299,-2.5312,-2.5495,-2.5841,-2.5952,-2.6264,-2.6998,-2.6888,-2.7034,-2.7273,-2.7233,-2.6848,-2.6924,-2.6203,-2.5779,-2.4889,-2.4908,-2.4908,-2.4646,-2.4229,-2.4368,-2.4351,-2.4211,-2.4192,-2.43,-2.4416,-2.4476,-2.4561,-2.467,-2.467,-2.467,-2.4639,-2.4512,-2.4392,-2.421,-2.3346,-2.3178,-2.3488,-2.2246,-2.1443,-2.117,-2.1221,-2.171,-2.2257,-2.144,-2.1448,-2.2155,-2.1109,-2.047,-2.0371,-1.9018,-1.8029,-1.7473,-1.6717,-1.6545,-1.6973,-1.6156,-1.5722,-1.582,-1.6096,-1.6049,-1.5701,-1.6025,-1.6492,-1.695,-1.7015,-1.7306,-1.7941,-1.8767,-1.9371,-1.9714,-2.0703,-2.149,-2.1907,-2.3319,-2.4593,-2.5415,-2.5856,-2.6064,-2.6125,-2.6125,-2.6469,-2.7048,-2.7144,-2.7209,-2.7594,-2.7526,-2.7553,-2.761,-2.767,-2.7617,-2.7695,-2.7715,-2.7555,-2.6954,-2.673,-2.6353,-2.5983,-2.5715,-2.5691,-2.5781,-2.5703,-2.5703,-2.5703,-2.5657,-2.5885,-2.6266,-2.6428,-2.6073,-2.5195,-2.5,-2.4861,-2.4596,-2.4469,-2.443,-2.4356,-2.4264,-2.4392,-2.4997,-2.5126,-2.5456,-2.6098,-2.6098,-2.6227,-2.6536,-2.6316,-2.597,-2.5933,-2.5529,-2.5126,-2.343,-2.3389,-2.3448,-2.3376,-2.3351,-2.3379,-2.3379,-2.3333,-2.331,-2.331,-2.345,-2.3961,-2.4229,-2.4247,-2.4266,-2.4247,-2.421,-2.4228,-2.4039,-2.3656,-2.298,-2.2431,-2.2062,-2.1348,-2.0301,-1.9283,-2.0301,-2.0838,-2.0842,-2.0926,-2.0811,-2.0517,-2.0474,-1.9841,-1.8715,-1.7838,-1.7151,-1.6535,-1.5795,-1.5401,-1.5339,-1.5583,-1.5648,-1.5564,-1.5505,-1.5808,-1.6237,-1.5806,-1.5816,-1.6493,-1.6704,-1.7001,-1.7541,-1.7968,-1.8671,-1.9783,-2.0378,-2.1156,-2.2461,-2.333,-2.3869,-2.3912,-2.4326,-2.4579,-2.4742,-2.474,-2.5439,-2.6629,-2.6669,-2.6531,-2.6751,-2.624,-2.597,-2.6076,-2.6071,-2.5957,-2.6055,-2.5891,-2.6113,-2.6874,-2.617,-2.5872,-2.6305,-2.5967,-2.5648,-2.5681,-2.5684,-2.5684,-2.5684,-2.5659,-2.5622,-2.5704,-2.5624,-2.5503,-2.5255,-2.5103,-2.4917,-2.4764,-2.4594,-2.4413,-2.4264,-2.419,-2.4263,-2.4428,-2.4392,-2.4722,-2.5052,-2.5016,-2.5032,-2.5819,-2.5434,-2.452,-2.4447,-2.4447,-2.441,-2.3189,-2.3189,-2.3189,-2.3189,-2.3189,-2.3189,-2.3189,-2.3189,-2.3189,-2.3189,-2.323,-2.3482,-2.3628,-2.3628,-2.3606,-2.3376,-2.3001,-2.3412,-2.3027,-2.2117,-2.1759,-2.1506,-2.1233,-2.0083,-1.9043,-1.8218,-1.8974,-1.9608,-2.0019,-2.0215,-1.9866,-1.9153,-1.9399,-1.9102,-1.8199,-1.7508,-1.6914,-1.6326,-1.557,-1.5188,-1.5164,-1.5195,-1.5132,-1.5002,-1.5094,-1.5103,-1.5204,-1.5574,-1.6103,-1.6611,-1.7087,-1.7639,-1.8238,-1.8627,-1.9131,-1.9822,-2.0814,-2.1722,-2.2521,-2.3275,-2.3795,-2.3976,-2.4113,-2.4284,-2.4478,-2.4607,-2.5062,-2.5679,-2.5716,-2.5698,-2.5945,-2.5737,-2.5586,-2.5642,-2.5663,-2.5637,-2.5636,-2.5573,-2.5691,-2.595,-2.5685,-2.5544,-2.5848,-2.5722,-2.557,-2.5593,-2.5607,-2.5636,-2.5637,-2.5644,-2.5637,-2.5603,-2.557,-2.5488,-2.5376,-2.5149,-2.4977,-2.4809,-2.4645,-2.4449,-2.4283,-2.419,-2.419,-2.4209,-2.419,-2.4281,-2.4575,-2.4502,-2.4482,-2.5049,-2.4996,-2.419,-2.419,-2.419,-2.419,-2.2591,-2.2617,-2.2712,-2.2848,-2.2958,-2.2822,-2.283,-2.2915,-2.2712,-2.2643,-2.2754,-2.2643,-2.2591,-2.266,-2.3003,-2.2805,-2.2242,-2.2663,-2.218,-2.0937,-2.0612,-2.0559,-2.0548,-1.9117,-1.8173,-1.7882,-1.8021,-1.852,-1.9202,-1.9318,-1.8851,-1.8084,-1.8359,-1.8149,-1.7325,-1.6866,-1.644,-1.5904,-1.5344,-1.5136,-1.5175,-1.5036,-1.4854,-1.4719,-1.4774,-1.4705,-1.4451,-1.5271,-1.5999,-1.6538,-1.712,-1.7716,-1.8354,-1.8835,-1.9286,-1.9826,-2.1166,-2.2018,-2.2172,-2.3279,-2.3967,-2.3953,-2.4173,-2.4444,-2.462,-2.4785,-2.4917,-2.5122,-2.5156,-2.5341,-2.5477,-2.5542,-2.5602,-2.5684,-2.5636,-2.5601,-2.5601,-2.5535,-2.5465,-2.5401,-2.541,-2.5376,-2.5406,-2.5447,-2.5473,-2.5498,-2.5527,-2.5573,-2.5601,-2.5637,-2.5664,-2.5636,-2.5627,-2.5543,-2.5421,-2.5262,-2.5063,-2.4884,-2.4733,-2.4612,-2.4376,-2.4358,-2.4284,-2.4339,-2.4266,-2.4226,-2.4337,-2.4263,-2.4208,-2.419,-2.419,-2.419,-2.419,-2.419,-2.419,-2.107,-2.1197,-2.1505,-2.1969,-2.2276,-2.1895,-2.194,-2.226,-2.1521,-2.1352,-2.1655,-2.1352,-2.1134,-2.1225,-2.2427,-2.2723,-2.2109,-2.2011,-2.1411,-2.031,-1.9742,-1.9669,-1.993,-1.8545,-1.7808,-1.7689,-1.772,-1.7828,-1.7963,-1.8168,-1.7882,-1.7207,-1.747,-1.6913,-1.5821,-1.5744,-1.5459,-1.5084,-1.5054,-1.5173,-1.5256,-1.5161,-1.5033,-1.4871,-1.4595,-1.4601,-1.4841,-1.4726,-1.5102,-1.6203,-1.6448,-1.6859,-1.7384,-1.7963,-1.8756,-1.9671,-2.1066,-2.1709,-2.1676,-2.3232,-2.4134,-2.3633,-2.4155,-2.4809,-2.4911,-2.4943,-2.5046,-2.5274,-2.5365,-2.5479,-2.5508,-2.5525,-2.5574,-2.5664,-2.5634,-2.5601,-2.5579,-2.5482,-2.5408,-2.5372,-2.5337,-2.5339,-2.5383,-2.5386,-2.5428,-2.5457,-2.5508,-2.5531,-2.5584,-2.5598,-2.5636,-2.5664,-2.5636,-2.5535,-2.5421,-2.5348,-2.5226,-2.5041,-2.4917,-2.4903,-2.4791,-2.4657,-2.4545,-2.4445,-2.4284,-2.4209,-2.4209,-2.419,-2.419,-2.419,-2.419,-2.419,-2.419,-2.419,-2.419,-2.1007,-2.0991,-2.1166,-2.1323,-2.1432,-2.1291,-2.1306,-2.1415,-2.1118,-2.1086,-2.1197,-2.1055,-2.0751,-2.0397,-2.0928,-2.0749,-2.0097,-2.0099,-1.9402,-1.8269,-1.8336,-1.8327,-1.807,-1.7461,-1.7052,-1.6946,-1.7077,-1.7288,-1.7439,-1.7375,-1.7148,-1.6905,-1.6893,-1.6286,-1.5303,-1.5314,-1.5178,-1.4664,-1.4837,-1.4999,-1.5112,-1.5168,-1.5149,-1.4959,-1.4588,-1.4471,-1.4627,-1.4725,-1.4986,-1.5314,-1.5949,-1.657,-1.7192,-1.815,-1.8859,-1.9309,-2.0457,-2.1134,-2.1166,-2.2271,-2.3187,-2.3449,-2.3733,-2.4288,-2.4841,-2.4991,-2.5102,-2.5309,-2.5403,-2.5479,-2.5551,-2.5588,-2.5643,-2.5618,-2.557,-2.5531,-2.5477,-2.5398,-2.5339,-2.533,-2.5313,-2.5313,-2.5321,-2.5339,-2.5337,-2.536,-2.5401,-2.5453,-2.5473,-2.5543,-2.5603,-2.5616,-2.5644,-2.5634,-2.5551,-2.5441,-2.5322,-2.5148,-2.5026,-2.4943,-2.4839,-2.467,-2.454,-2.4512,-2.4375,-2.4228,-2.4228,-2.419,-2.419,-2.419,-2.419,-2.419,-2.419,-2.419,-2.419,-2.0351,-2.0715,-2.0616,-2.0748,-2.0959,-2.0829,-2.0862,-2.0926,-2.0714,-2.0665,-2.0699,-2.0445,-2.0002,-1.9531,-1.9139,-1.8683,-1.8257,-1.8499,-1.7985,-1.6911,-1.7337,-1.7305,-1.6927,-1.6805,-1.6658,-1.6479,-1.6684,-1.6942,-1.7052,-1.6701,-1.6337,-1.6049,-1.5825,-1.5174,-1.44,-1.4555,-1.4498,-1.4277,-1.4542,-1.4785,-1.4929,-1.5112,-1.5191,-1.5057,-1.4761,-1.4521,-1.4423,-1.4717,-1.4887,-1.4961,-1.5532,-1.6323,-1.7258,-1.8378,-1.9069,-1.9271,-1.9959,-2.0429,-2.0605,-2.1519,-2.2338,-2.2785,-2.3151,-2.3698,-2.4588,-2.4724,-2.4937,-2.5279,-2.5447,-2.5498,-2.5576,-2.5643,-2.566,-2.5611,-2.5554,-2.5473,-2.5441,-2.5374,-2.5313,-2.5293,-2.5293,-2.5313,-2.5313,-2.5313,-2.5293,-2.5313,-2.5348,-2.5379,-2.5401,-2.5457,-2.5414,-2.5252,-2.5466,-2.5383,-2.5156,-2.4901,-2.5147,-2.508,-2.4928,-2.487,-2.4743,-2.4604,-2.4504,-2.45,-2.4407,-2.4284,-2.4209,-2.419,-2.4171,-2.4153,-2.419,-2.419,-2.419,-2.419,-2.419,-1.8985,-2.0043,-1.9798,-2.0043,-2.0601,-2.0283,-2.0501,-2.0538,-1.9984,-1.9768,-1.9752,-1.9129,-1.8672,-1.8343,-1.7386,-1.6771,-1.6834,-1.7332,-1.7336,-1.6749,-1.6691,-1.6617,-1.6417,-1.6544,-1.6502,-1.6281,-1.658,-1.668,-1.6553,-1.5996,-1.5392,-1.4687,-1.4159,-1.3706,-1.2949,-1.3346,-1.3506,-1.374,-1.4132,-1.4501,-1.4756,-1.4885,-1.5067,-1.5195,-1.504,-1.4782,-1.4463,-1.4616,-1.4806,-1.4944,-1.5174,-1.6052,-1.7451,-1.8457,-1.9127,-1.9495,-1.9647,-1.9719,-1.999,-2.1154,-2.1713,-2.1825,-2.2312,-2.3174,-2.4038,-2.4268,-2.4599,-2.5279,-2.5522,-2.5601,-2.5593,-2.5604,-2.5631,-2.5681,-2.5538,-2.5473,-2.5446,-2.5368,-2.5313,-2.5313,-2.5313,-2.5313,-2.5303,-2.5264,-2.5264,-2.5264,-2.5264,-2.5188,-2.5142,-2.5147,-2.5001,-2.4623,-2.4643,-2.4726,-2.4483,-2.4285,-2.4693,-2.4969,-2.482,-2.4707,-2.4466,-2.43,-2.4074,-2.4021,-2.3761,-2.3633,-2.3511,-2.3529,-2.3841,-2.3896,-2.4025,-2.4153,-2.419,-2.419,-2.419,-1.8352,-1.876,-1.8622,-1.8722,-1.897,-1.8835,-1.8679,-1.8498,-1.8498,-1.8264,-1.7747,-1.772,-1.727,-1.6564,-1.6004,-1.5634,-1.5219,-1.5457,-1.5743,-1.594,-1.5492,-1.555,-1.5864,-1.5737,-1.5579,-1.5491,-1.5301,-1.5154,-1.4992,-1.4752,-1.4288,-1.3733,-1.3465,-1.3136,-1.2687,-1.2914,-1.3075,-1.3193,-1.3666,-1.3966,-1.4093,-1.4511,-1.4775,-1.4873,-1.5011,-1.4978,-1.482,-1.4841,-1.4743,-1.4629,-1.4781,-1.563,-1.7119,-1.8116,-1.8928,-1.965,-1.9865,-1.9955,-2.0056,-2.0545,-2.1152,-2.1504,-2.1892,-2.2743,-2.3925,-2.413,-2.4545,-2.5317,-2.557,-2.5613,-2.5604,-2.5613,-2.5517,-2.5561,-2.5473,-2.5408,-2.5368,-2.5321,-2.5293,-2.5313,-2.5313,-2.5313,-2.5274,-2.5203,-2.508,-2.5019,-2.4979,-2.4815,-2.4424,-2.4341,-2.4107,-2.354,-2.3742,-2.3821,-2.3504,-2.3295,-2.3495,-2.3874,-2.3952,-2.41,-2.3967,-2.3841,-2.3637,-2.3442,-2.3187,-2.301,-2.2883,-2.307,-2.3437,-2.3639,-2.3749,-2.3933,-2.4135,-2.4042,-2.3764,-1.7558,-1.8052,-1.7894,-1.781,-1.7813,-1.7813,-1.7491,-1.7084,-1.7338,-1.7149,-1.6627,-1.6591,-1.625,-1.5521,-1.5084,-1.4637,-1.4232,-1.4076,-1.4274,-1.4744,-1.4707,-1.4814,-1.5255,-1.5043,-1.4876,-1.4845,-1.4627,-1.4323,-1.3999,-1.37,-1.3274,-1.279,-1.247,-1.2201,-1.203,-1.2282,-1.2441,-1.2539,-1.3059,-1.3457,-1.3641,-1.4016,-1.4401,-1.4653,-1.4833,-1.4966,-1.502,-1.5037,-1.4908,-1.4728,-1.498,-1.5758,-1.6779,-1.7809,-1.8764,-1.9334,-1.9846,-2.0111,-2.0205,-2.0342,-2.0613,-2.1126,-2.1231,-2.1796,-2.2972,-2.3291,-2.3709,-2.4436,-2.4619,-2.4687,-2.4625,-2.4615,-2.4592,-2.4549,-2.5079,-2.5321,-2.5322,-2.5313,-2.5313,-2.5284,-2.5224,-2.5203,-2.5152,-2.5038,-2.4771,-2.455,-2.4355,-2.409,-2.3548,-2.3326,-2.292,-2.2637,-2.2742,-2.2674,-2.2411,-2.2322,-2.231,-2.2576,-2.2848,-2.3079,-2.3186,-2.3141,-2.2995,-2.2871,-2.2663,-2.254,-2.2428,-2.2902,-2.329,-2.3382,-2.329,-2.3398,-2.3414,-2.3006,-2.2781,-1.6464,-1.7814,-1.734,-1.7036,-1.6998,-1.7009,-1.6603,-1.6225,-1.6244,-1.6126,-1.5915,-1.5426,-1.5176,-1.4972,-1.4046,-1.3596,-1.3611,-1.3243,-1.3048,-1.3293,-1.371,-1.4187,-1.4251,-1.4219,-1.4187,-1.4251,-1.4187,-1.3938,-1.328,-1.2781,-1.2334,-1.1806,-1.1301,-1.0948,-1.1113,-1.1417,-1.1642,-1.1776,-1.2387,-1.2888,-1.3221,-1.3526,-1.3882,-1.442,-1.4573,-1.4738,-1.494,-1.5098,-1.5121,-1.503,-1.5524,-1.5894,-1.6376,-1.7583,-1.8374,-1.8857,-1.961,-2.0067,-2.0297,-2.0366,-2.046,-2.0594,-2.0601,-2.0792,-2.1821,-2.2121,-2.2438,-2.3203,-2.334,-2.3294,-2.3221,-2.3213,-2.317,-2.3173,-2.4172,-2.4891,-2.5178,-2.5091,-2.4841,-2.4878,-2.4938,-2.4808,-2.4617,-2.4506,-2.4106,-2.3647,-2.3366,-2.3051,-2.2603,-2.2235,-2.1881,-2.173,-2.1642,-2.155,-2.1299,-2.1278,-2.1269,-2.1441,-2.1688,-2.1913,-2.2176,-2.2175,-2.2087,-2.1994,-2.2021,-2.1942,-2.1894,-2.2107,-2.2354,-2.2337,-2.2391,-2.2644,-2.2529,-2.2198,-2.2206,-1.5174,-1.5552,-1.5431,-1.5223,-1.4953,-1.4917,-1.4458,-1.3734,-1.4114,-1.3874,-1.3277,-1.3287,-1.3253,-1.2782,-1.2532,-1.2307,-1.2307,-1.2199,-1.2139,-1.2164,-1.2342,-1.2683,-1.2914,-1.297,-1.297,-1.297,-1.2738,-1.221,-1.1673,-1.1456,-1.1161,-1.0853,-1.0624,-1.0581,-1.0883,-1.0733,-1.0837,-1.1098,-1.1439,-1.182,-1.2187,-1.2765,-1.3224,-1.3485,-1.3977,-1.4278,-1.4474,-1.4814,-1.5037,-1.5057,-1.5159,-1.5639,-1.6221,-1.6779,-1.7618,-1.8756,-1.9205,-1.9708,-2.025,-2.0389,-2.0412,-2.0443,-2.0396,-2.0781,-2.1618,-2.1711,-2.2138,-2.2779,-2.304,-2.2948,-2.2892,-2.284,-2.2824,-2.2887,-2.321,-2.3713,-2.4139,-2.3735,-2.332,-2.3291,-2.3198,-2.3164,-2.3133,-2.2984,-2.2759,-2.2476,-2.2271,-2.2039,-2.154,-2.1253,-2.0958,-2.0488,-2.0312,-2.0301,-2.0251,-2.0211,-2.0246,-2.0365,-2.0506,-2.0644,-2.0857,-2.0965,-2.0795,-2.0633,-2.0916,-2.0925,-2.0634,-2.0586,-2.0818,-2.1424,-2.1459,-2.1653,-2.1748,-2.1583,-2.1864,-1.4358,-1.4451,-1.4451,-1.4047,-1.3493,-1.3448,-1.3008,-1.2433,-1.2546,-1.2411,-1.1957,-1.2103,-1.208,-1.1785,-1.159,-1.1468,-1.1431,-1.1223,-1.092,-1.0557,-1.0389,-1.0961,-1.1843,-1.2175,-1.2164,-1.2057,-1.1528,-1.1164,-1.0843,-1.0348,-1.0094,-1.0089,-1.0019,-1.0002,-0.9932,-1.0147,-1.0122,-1.0285,-1.0484,-1.0773,-1.1115,-1.1659,-1.2195,-1.2562,-1.3171,-1.3579,-1.393,-1.4312,-1.4683,-1.4957,-1.5056,-1.5282,-1.5827,-1.6272,-1.7082,-1.8469,-1.8866,-1.9506,-2.0192,-2.039,-2.0363,-2.0342,-2.0332,-2.0517,-2.0856,-2.0981,-2.1291,-2.1533,-2.172,-2.1687,-2.1637,-2.1597,-2.1793,-2.2,-2.1799,-2.2106,-2.3275,-2.2904,-2.254,-2.2417,-2.23,-2.2176,-2.2176,-2.2002,-2.173,-2.1498,-2.1319,-2.0942,-2.0476,-2.027,-1.9948,-1.9447,-1.9018,-1.8965,-1.8975,-1.8981,-1.9326,-1.9476,-1.9832,-1.9854,-2.0058,-2.0192,-2.0315,-2.0254,-2.0095,-1.9953,-1.9882,-1.9959,-2.0491,-2.0873,-2.0752,-2.0777,-2.096,-2.0628,-2.0978,-1.368,-1.3806,-1.3806,-1.3231,-1.2377,-1.2256,-1.1875,-1.1582,-1.1507,-1.1496,-1.1442,-1.1505,-1.1314,-1.1457,-1.0743,-1.0715,-1.0657,-1.0225,-0.9725,-0.9223,-0.8979,-0.9545,-1.1041,-1.1175,-1.1175,-1.1132,-1.0619,-1.0425,-1.0137,-0.9369,-0.9107,-0.9202,-0.9237,-0.9025,-0.8867,-0.9221,-0.9389,-0.9304,-0.9473,-0.9793,-1.0164,-1.0582,-1.108,-1.1663,-1.2348,-1.2951,-1.344,-1.3821,-1.4175,-1.484,-1.4905,-1.5064,-1.5289,-1.5995,-1.6757,-1.7652,-1.8492,-1.9386,-2.0046,-2.0177,-2.0283,-2.0173,-2.0153,-2.0108,-2.0111,-2.0118,-2.0114,-2.026,-1.9928,-2.0019,-1.9987,-1.9844,-2.0274,-2.0804,-2.032,-2.0729,-2.1757,-2.2147,-2.2036,-2.201,-2.1793,-2.176,-2.1689,-2.1559,-2.1228,-2.0446,-2.0303,-2.0046,-1.957,-1.9164,-1.8765,-1.8264,-1.7915,-1.7611,-1.7668,-1.7704,-1.8234,-1.8662,-1.9225,-1.948,-1.9764,-1.9961,-2.023,-2.028,-2.0108,-1.9907,-1.971,-1.9953,-2.027,-2.0127,-1.9902,-2.0158,-2.0413,-1.9612,-1.9517,-1.2062,-1.1835,-1.1928,-1.1439,-1.0624,-1.0205,-1.0017,-1.0021,-1.0021,-1.0089,-1.0021,-1.0021,-0.9815,-0.9451,-0.9421,-0.9191,-0.9293,-0.9124,-0.889,-0.8825,-0.8671,-0.8776,-0.9345,-0.9358,-0.9385,-0.9388,-0.9243,-0.9136,-0.8986,-0.8427,-0.8139,-0.8426,-0.7947,-0.7656,-0.7878,-0.7793,-0.7947,-0.8308,-0.8459,-0.8801,-0.9331,-0.9679,-1.0091,-1.0652,-1.1527,-1.2431,-1.3124,-1.3348,-1.357,-1.3974,-1.4406,-1.4697,-1.5091,-1.5777,-1.6382,-1.6958,-1.8092,-1.8943,-1.9166,-1.9709,-2.002,-1.9887,-1.9838,-1.9855,-1.9834,-1.9616,-1.9635,-1.9669,-1.9473,-1.9256,-1.9235,-1.9372,-1.9617,-1.9794,-1.9769,-1.9748,-2.0195,-2.0345,-2.0415,-2.0306,-2.0243,-2.008,-1.9966,-2.0016,-1.976,-1.9409,-1.9288,-1.9181,-1.8698,-1.8146,-1.7559,-1.7042,-1.6519,-1.6233,-1.6381,-1.6534,-1.7001,-1.7463,-1.8012,-1.8609,-1.8896,-1.9452,-1.9624,-1.987,-2.0111,-1.9888,-1.9647,-1.9411,-1.9607,-1.9306,-1.9092,-1.9372,-1.9354,-1.859,-1.8653,-1.0988,-1.0504,-1.0588,-1.0144,-0.9484,-0.9165,-0.9079,-0.9102,-0.9102,-0.9133,-0.9116,-0.9142,-0.8958,-0.8716,-0.8716,-0.8716,-0.8577,-0.8238,-0.7933,-0.765,-0.7357,-0.7155,-0.7133,-0.7176,-0.7319,-0.8157,-0.8059,-0.8069,-0.7965,-0.7214,-0.6901,-0.7601,-0.6863,-0.6766,-0.7026,-0.6863,-0.7024,-0.7277,-0.7386,-0.7579,-0.7968,-0.8289,-0.8794,-0.9307,-1.0169,-1.0935,-1.1224,-1.18,-1.2215,-1.269,-1.326,-1.3974,-1.469,-1.5404,-1.597,-1.6648,-1.77,-1.8699,-1.9066,-1.9409,-1.9661,-1.9511,-1.9411,-1.928,-1.9239,-1.9102,-1.9102,-1.9151,-1.8992,-1.8822,-1.8915,-1.8914,-1.9054,-1.9251,-1.9201,-1.9178,-1.9305,-1.9462,-1.9526,-1.9452,-1.946,-1.935,-1.92,-1.9064,-1.8947,-1.8896,-1.8657,-1.8513,-1.7912,-1.7308,-1.6406,-1.5772,-1.5128,-1.4857,-1.507,-1.5337,-1.5783,-1.6096,-1.6392,-1.6981,-1.7428,-1.8151,-1.8869,-1.9369,-1.9951,-1.9813,-1.9587,-1.9308,-1.9036,-1.8753,-1.8638,-1.8637,-1.8566,-1.8329,-1.8728,-1.0043,-0.9404,-0.9512,-0.9196,-0.8618,-0.848,-0.8488,-0.8593,-0.8569,-0.8602,-0.8552,-0.8569,-0.8472,-0.8382,-0.8341,-0.839,-0.8067,-0.7591,-0.6997,-0.6431,-0.5982,-0.5758,-0.5624,-0.5571,-0.592,-0.7423,-0.6967,-0.6914,-0.6837,-0.6022,-0.5783,-0.6433,-0.5975,-0.5751,-0.6105,-0.6241,-0.6241,-0.6329,-0.6372,-0.6433,-0.6515,-0.6771,-0.7195,-0.8004,-0.8635,-0.9173,-0.9542,-1.007,-1.0625,-1.1096,-1.1647,-1.2535,-1.3625,-1.4913,-1.5532,-1.6325,-1.7351,-1.8151,-1.8489,-1.8926,-1.9129,-1.9036,-1.8906,-1.8735,-1.8644,-1.8625,-1.8643,-1.861,-1.8538,-1.8449,-1.8572,-1.8399,-1.8516,-1.8681,-1.8554,-1.857,-1.8753,-1.898,-1.9044,-1.9146,-1.9079,-1.9013,-1.8824,-1.8644,-1.8531,-1.8358,-1.8107,-1.7704,-1.7082,-1.6214,-1.5209,-1.4192,-1.3436,-1.3157,-1.333,-1.3964,-1.4411,-1.4313,-1.4616,-1.4752,-1.5154,-1.4984,-1.5737,-1.8966,-1.9765,-1.9223,-1.9284,-1.9618,-1.921,-1.8556,-1.8151,-1.8118,-1.8112,-1.808,-1.8211,-0.8591,-0.7997,-0.8727,-0.8631,-0.7999,-0.7482,-0.7536,-0.8016,-0.7923,-0.8005,-0.7967,-0.8013,-0.7648,-0.7426,-0.7266,-0.7049,-0.6745,-0.6444,-0.6079,-0.5519,-0.5182,-0.5063,-0.4887,-0.4745,-0.4972,-0.501,-0.5141,-0.5478,-0.5645,-0.5035,-0.4917,-0.5049,-0.4733,-0.4689,-0.4999,-0.5107,-0.5266,-0.541,-0.5456,-0.5543,-0.5714,-0.57,-0.5998,-0.685,-0.7338,-0.7842,-0.8436,-0.8771,-0.9074,-0.9342,-0.9736,-1.039,-1.1578,-1.3727,-1.4748,-1.526,-1.6726,-1.7729,-1.7379,-1.7946,-1.8268,-1.8369,-1.8364,-1.8425,-1.8309,-1.8243,-1.8104,-1.8168,-1.7952,-1.772,-1.7557,-1.7479,-1.7455,-1.7569,-1.7744,-1.7766,-1.7872,-1.8055,-1.8272,-1.8331,-1.8482,-1.8682,-1.8439,-1.8183,-1.7975,-1.7764,-1.7524,-1.6818,-1.5995,-1.4895,-1.3665,-1.2619,-1.1645,-1.1503,-1.1523,-1.2321,-1.2856,-1.2391,-1.2267,-1.1704,-1.1727,-1.1033,-1.2328,-1.5512,-1.726,-1.7046,-1.7669,-1.7709,-1.6601,-1.3841,-1.528,-1.6909,-1.5543,-1.4007,-1.5211,-0.7189,-0.6684,-0.709,-0.695,-0.6538,-0.624,-0.6295,-0.654,-0.6548,-0.6579,-0.6567,-0.6525,-0.6498,-0.6292,-0.6085,-0.5843,-0.57,-0.57,-0.5454,-0.5009,-0.4766,-0.4466,-0.4215,-0.403,-0.3799,-0.3698,-0.3774,-0.419,-0.4707,-0.4364,-0.424,-0.4371,-0.3913,-0.3804,-0.4189,-0.4182,-0.4289,-0.45,-0.4584,-0.4642,-0.4853,-0.4636,-0.4978,-0.5318,-0.574,-0.6123,-0.65,-0.7253,-0.7664,-0.8088,-0.8672,-0.9285,-1.0299,-1.1522,-1.3232,-1.4193,-1.6083,-1.7138,-1.6548,-1.7054,-1.7188,-1.7014,-1.7223,-1.7296,-1.724,-1.7155,-1.7136,-1.6957,-1.6824,-1.6397,-1.6042,-1.6396,-1.6572,-1.6577,-1.6808,-1.7019,-1.7051,-1.7091,-1.7089,-1.7196,-1.7567,-1.7774,-1.7941,-1.7715,-1.7442,-1.7182,-1.6912,-1.5971,-1.4903,-1.3697,-1.2414,-1.125,-1.0408,-1.0572,-1.0428,-1.0649,-1.0777,-1.0298,-0.9624,-0.904,-0.8038,-0.7197,-0.8966,-1.1976,-1.3093,-1.1303,-0.9479,-0.7314,-0.8058,-0.8868,-0.8061,-0.7937,-0.941,-1.0186,-1.09,-0.5957,-0.5563,-0.5702,-0.5591,-0.5328,-0.5308,-0.5353,-0.5312,-0.5358,-0.5404,-0.5328,-0.5389,-0.5508,-0.5504,-0.5332,-0.5096,-0.4954,-0.5035,-0.4851,-0.4427,-0.4165,-0.3811,-0.3487,-0.3183,-0.306,-0.3086,-0.2911,-0.313,-0.374,-0.3528,-0.3633,-0.3516,-0.2988,-0.2953,-0.3427,-0.3265,-0.3382,-0.3458,-0.3588,-0.3588,-0.349,-0.3556,-0.3588,-0.3616,-0.3894,-0.4119,-0.4452,-0.5246,-0.5919,-0.6489,-0.7185,-0.7968,-0.8629,-0.9437,-1.0888,-1.3035,-1.5082,-1.5748,-1.5733,-1.5772,-1.5618,-1.5314,-1.5606,-1.5679,-1.5591,-1.5555,-1.5646,-1.5312,-1.5107,-1.4993,-1.4819,-1.5139,-1.5313,-1.5323,-1.5566,-1.5921,-1.5677,-1.5536,-1.5396,-1.5756,-1.6451,-1.6668,-1.6627,-1.7044,-1.6761,-1.6065,-1.5747,-1.4613,-1.3558,-1.264,-1.1402,-1.0053,-0.9393,-0.9719,-0.9554,-0.9032,-0.865,-0.7738,-0.6774,-0.5895,-0.4515,-0.3183,-0.4808,-0.4914,-0.1983,0.0091,0.1697,0.0753,-0.1941,-0.2624,0.0222,-0.0415,-0.4428,-0.5123,-0.4845,-0.5353,-0.5061,-0.5688,-0.5697,-0.529,-0.5216,-0.526,-0.525,-0.5216,-0.5305,-0.5169,-0.5246,-0.5234,-0.5202,-0.5229,-0.4796,-0.4378,-0.4328,-0.4105,-0.3531,-0.3429,-0.3308,-0.313,-0.3145,-0.2813,-0.2646,-0.2503,-0.2781,-0.2985,-0.2589,-0.2382,-0.2443,-0.2245,-0.1968,-0.2448,-0.2425,-0.2295,-0.2275,-0.2288,-0.2093,-0.1866,-0.2126,-0.2288,-0.2317,-0.2389,-0.2599,-0.2964,-0.3633,-0.4082,-0.421,-0.4981,-0.5601,-0.6147,-0.732,-0.8433,-0.9898,-1.1432,-1.2785,-1.2913,-1.3496,-1.3646,-1.3512,-1.386,-1.3833,-1.37,-1.3891,-1.4154,-1.4284,-1.3884,-1.3433,-1.3161,-1.337,-1.335,-1.3265,-1.3317,-1.3447,-1.3396,-1.3319,-1.3258,-1.3284,-1.3656,-1.4527,-1.4979,-1.5602,-1.6022,-1.5285,-1.4426,-1.3276,-1.2153,-1.1212,-1.0398,-0.9091,-0.8016,-0.8241,-0.7878,-0.7479,-0.6157,-0.5118,-0.375,-0.2474,-0.065,0.1348,0.4655,0.5377,0.7959,0.7,0.4443,0.284,0.194,0.3601,0.6403,0.3308,-0.1709,-0.0929,0.1272,-0.3717,-0.3777,-0.4019,-0.4036,-0.3822,-0.3811,-0.4041,-0.4316,-0.436,-0.4332,-0.4349,-0.4332,-0.4252,-0.4168,-0.4222,-0.3961,-0.3536,-0.3637,-0.3397,-0.2885,-0.2843,-0.2715,-0.2312,-0.2224,-0.2146,-0.2012,-0.1884,-0.1816,-0.1963,-0.1978,-0.1933,-0.1887,-0.1739,-0.1677,-0.1589,-0.1682,-0.1675,-0.1642,-0.1601,-0.1401,-0.1203,-0.1335,-0.1599,-0.1565,-0.1565,-0.1684,-0.1888,-0.2338,-0.2735,-0.292,-0.3601,-0.4046,-0.4392,-0.5025,-0.5694,-0.6401,-0.7482,-0.9014,-1.0667,-1.1464,-1.1488,-1.1335,-1.1676,-1.201,-1.1824,-1.191,-1.1962,-1.1611,-1.1465,-1.1149,-1.0783,-1.084,-1.0655,-1.0633,-1.0805,-1.0805,-1.0816,-1.0805,-1.0777,-1.0798,-1.088,-1.1584,-1.2365,-1.3058,-1.3573,-1.3642,-1.291,-1.1998,-1.0788,-0.9612,-0.8869,-0.813,-0.7182,-0.6564,-0.5978,-0.5383,-0.3357,-0.2009,-0.0157,0.1371,0.3518,0.6013,0.8502,1.1162,1.2698,1.065,0.6962,0.8672,1.125,1.2031,1.2574,0.9694,0.6987,0.6336,0.8511,-0.2262,-0.2461,-0.2477,-0.2521,-0.2497,-0.2627,-0.2987,-0.335,-0.3578,-0.3626,-0.3578,-0.3656,-0.3451,-0.3178,-0.3301,-0.3189,-0.2679,-0.2851,-0.2657,-0.243,-0.2302,-0.2045,-0.1677,-0.1458,-0.1287,-0.0914,-0.0733,-0.0689,-0.0697,-0.0758,-0.0813,-0.1317,-0.0911,-0.0838,-0.0797,-0.0623,-0.0502,-0.0501,-0.0635,-0.0502,-0.0267,-0.0535,-0.0635,-0.0669,-0.0741,-0.0795,-0.0876,-0.1215,-0.1579,-0.2034,-0.2312,-0.2631,-0.2818,-0.3135,-0.348,-0.4034,-0.4711,-0.573,-0.7542,-0.8695,-0.9178,-0.9217,-0.9174,-0.9672,-0.9682,-0.9758,-0.9502,-0.8902,-0.8766,-0.8258,-0.7775,-0.8055,-0.8022,-0.8012,-0.813,-0.813,-0.8122,-0.8059,-0.8028,-0.8091,-0.8061,-0.8062,-0.8943,-0.9999,-1.0791,-1.1557,-1.1291,-1.0481,-0.902,-0.7407,-0.6748,-0.6007,-0.5827,-0.4681,-0.3198,-0.2302,-0.0533,0.1092,0.2964,0.4669,0.6453,0.8273,1.0324,1.3189,1.6,1.5448,1.2488,1.6894,2.0781,1.8711,1.7326,1.8422,1.7344,1.5624,1.4489,-0.1675,-0.1237,-0.1797,-0.1985,-0.1917,-0.2495,-0.2716,-0.2898,-0.3394,-0.3578,-0.3578,-0.3598,-0.3392,-0.3083,-0.2826,-0.2526,-0.2037,-0.1923,-0.1861,-0.1775,-0.1733,-0.1421,-0.102,-0.0702,-0.0517,0.0084,0.0339,0.0636,0.0887,0.0866,0.0549,0.0079,0.0197,0.0646,0.0761,0.0654,0.077,0.0735,0.0536,0.0603,0.0771,0.0703,0.0603,0.0803,0.071,0.0563,0.0501,0.0077,-0.032,-0.083,-0.0919,-0.096,-0.1104,-0.1418,-0.168,-0.2025,-0.2378,-0.3138,-0.4134,-0.5943,-0.6963,-0.7072,-0.706,-0.7107,-0.7151,-0.6942,-0.6607,-0.6379,-0.6262,-0.5844,-0.5482,-0.5321,-0.5206,-0.5132,-0.5091,-0.5096,-0.5101,-0.5158,-0.5168,-0.5287,-0.5241,-0.5095,-0.509,-0.6068,-0.7748,-0.8592,-0.8024,-0.7242,-0.575,-0.432,-0.3987,-0.3626,-0.3913,-0.2671,-0.0167,0.1248,0.2424,0.4002,0.586,0.7333,0.8821,1.0642,1.2697,1.4335,1.6797,1.7493,1.8262,1.959,2.0742,2.1504,2.15,2.068,2.0191,1.8209,1.7867,-0.0653,-0.0505,-0.11,-0.1271,-0.1295,-0.1875,-0.2361,-0.2763,-0.335,-0.3578,-0.3619,-0.3562,-0.3283,-0.2793,-0.2483,-0.2094,-0.1629,-0.1647,-0.1398,-0.1218,-0.1082,-0.0667,-0.0178,0.0267,0.0573,0.1133,0.1413,0.1464,0.1532,0.186,0.185,0.1524,0.1395,0.1291,0.1416,0.1484,0.1516,0.1607,0.1375,0.1273,0.1542,0.1308,0.1139,0.1238,0.1206,0.1136,0.1152,0.1091,0.0908,0.0782,0.0709,0.0665,0.062,0.0355,0.0133,-0.0132,-0.0486,-0.0707,-0.137,-0.3234,-0.4714,-0.4805,-0.4762,-0.4737,-0.4714,-0.4651,-0.4495,-0.4213,-0.3813,-0.3417,-0.289,-0.2455,-0.214,-0.2007,-0.2041,-0.2126,-0.2119,-0.2199,-0.2289,-0.2364,-0.2119,-0.1866,-0.1911,-0.1994,-0.3879,-0.546,-0.4739,-0.3896,-0.2592,-0.1499,-0.1207,-0.0733,-0.0854,0.0042,0.2526,0.393,0.5146,0.6855,0.8607,0.9802,1.1126,1.3596,1.5475,1.6738,1.7412,1.8203,1.8964,1.9725,2.0468,2.1136,2.1093,2.0614,2.0245,2.0098,2.0283,0.0,0.0,-0.0448,-0.0761,-0.0984,-0.1739,-0.2319,-0.2763,-0.335,-0.3578,-0.3571,-0.3282,-0.2915,-0.2459,-0.1957,-0.1621,-0.1173,-0.106,-0.0837,-0.06,-0.0307,0.0178,0.0804,0.1382,0.1866,0.2406,0.2408,0.2404,0.27,0.245,0.2544,0.2552,0.2369,0.2176,0.1997,0.1866,0.1942,0.2175,0.1842,0.1773,0.2078,0.1776,0.1676,0.1782,0.187,0.1795,0.1924,0.1944,0.2011,0.1974,0.2021,0.2203,0.2159,0.2073,0.1951,0.173,0.1505,0.1283,0.0529,-0.0969,-0.2344,-0.2428,-0.2417,-0.2458,-0.244,-0.2402,-0.2167,-0.1861,-0.1456,-0.1011,-0.0417,-0.0125,0.0211,0.0262,0.0394,0.0394,0.0699,0.0741,0.0613,0.0526,0.0661,0.0572,0.0483,0.0306,-0.052,-0.1984,-0.1728,-0.0983,-0.0043,0.0862,0.1372,0.1928,0.2472,0.3742,0.5329,0.6182,0.7151,0.8965,1.0578,1.1826,1.3439,1.5652,1.6804,1.7117,1.7805,1.8841,1.9308,1.9504,2.0047,2.071,2.0742,2.0893,2.0984,2.0939,2.0919,0.0,0.0,-0.0045,-0.0359,-0.0985,-0.2142,-0.2583,-0.2674,-0.3306,-0.3578,-0.3394,-0.2519,-0.216,-0.2097,-0.1373,-0.0827,-0.0535,-0.0168,0.0086,0.0221,0.0532,0.0982,0.1471,0.2093,0.2893,0.4089,0.3869,0.3602,0.4168,0.3737,0.3639,0.3594,0.3406,0.3089,0.2884,0.273,0.2885,0.3064,0.2408,0.2477,0.2577,0.2377,0.2441,0.263,0.2888,0.2821,0.2733,0.3142,0.3153,0.2896,0.3243,0.3364,0.3249,0.302,0.3049,0.3318,0.292,0.2961,0.3128,0.1145,0.0256,-0.0041,-0.004,-0.008,-0.004,0.004,0.0209,0.0461,0.0896,0.1241,0.1552,0.181,0.2232,0.2424,0.2561,0.2695,0.2909,0.3203,0.3029,0.2895,0.2693,0.2524,0.2475,0.2381,0.2149,0.1664,0.1597,0.2035,0.2835,0.3506,0.416,0.4652,0.537,0.6073,0.7228,0.8016,0.9187,1.0966,1.2378,1.3427,1.4414,1.5769,1.6718,1.7271,1.794,1.8705,1.8882,1.8983,1.9856,2.0762,2.1292,2.1523,2.164,2.168,2.1602,0.0227,0.0538,0.0179,-0.0358,-0.0939,-0.1297,-0.1697,-0.223,-0.3081,-0.3394,-0.2987,-0.2357,-0.1826,-0.1364,-0.0687,-0.0086,0.038,0.0956,0.12,0.1203,0.1429,0.1695,0.2093,0.2539,0.3426,0.4264,0.4312,0.4395,0.4957,0.4661,0.4705,0.4656,0.4424,0.4082,0.3553,0.3352,0.3475,0.3653,0.3462,0.3434,0.3504,0.3364,0.3331,0.3541,0.3784,0.3876,0.3677,0.4209,0.4276,0.4059,0.4522,0.4543,0.4477,0.431,0.4457,0.4639,0.4418,0.4504,0.4635,0.3734,0.3138,0.2644,0.2202,0.2192,0.2305,0.2336,0.2494,0.2633,0.286,0.3165,0.3507,0.3936,0.4275,0.4322,0.4413,0.4457,0.4626,0.4995,0.5066,0.5066,0.4947,0.4612,0.4479,0.4586,0.4431,0.4749,0.4725,0.5291,0.6073,0.6639,0.7182,0.7536,0.8045,0.8495,0.9147,0.9743,1.046,1.1869,1.3357,1.4654,1.5568,1.6219,1.6983,1.7743,1.8117,1.8443,1.8882,1.9391,2.0128,2.0886,2.1455,2.1875,2.1973,2.2031,2.207,0.0851,0.1163,0.0802,0.0401,-0.0045,-0.0624,-0.125,-0.1917,-0.2768,-0.2901,-0.2361,-0.1825,-0.1232,-0.0521,0.0044,0.0663,0.1247,0.1583,0.1784,0.1828,0.2051,0.2093,0.2268,0.2804,0.3466,0.4216,0.4517,0.4691,0.5221,0.5308,0.5221,0.5224,0.5392,0.5033,0.4527,0.4306,0.4186,0.4293,0.4197,0.3975,0.3996,0.3988,0.4048,0.4207,0.4493,0.4864,0.4823,0.5087,0.549,0.5503,0.5556,0.5567,0.554,0.5562,0.5594,0.561,0.5819,0.5819,0.5813,0.5813,0.5169,0.4666,0.4345,0.407,0.4071,0.3917,0.398,0.4203,0.4591,0.4626,0.4786,0.5275,0.5487,0.5487,0.5786,0.5786,0.5979,0.6343,0.65,0.6542,0.6613,0.6409,0.6367,0.6697,0.6783,0.7312,0.785,0.8383,0.8738,0.8956,0.9253,0.9552,0.9934,1.0253,1.0682,1.1212,1.1998,1.2849,1.3955,1.5123,1.5953,1.6467,1.7356,1.8125,1.8388,1.8746,1.9317,1.9896,2.072,2.1291,2.1713,2.2051,2.2246,2.2402,2.2539,0.1784,0.1828,0.1828,0.1784,0.147,0.0,-0.1022,-0.1693,-0.2142,-0.2097,-0.1604,-0.0491,-0.0089,0.0178,0.0759,0.1292,0.182,0.196,0.2051,0.2142,0.2541,0.2404,0.2581,0.312,0.3774,0.3986,0.4374,0.513,0.5394,0.5819,0.5776,0.5728,0.6259,0.6072,0.58,0.5523,0.5247,0.5121,0.482,0.4593,0.4499,0.4557,0.4507,0.4676,0.5067,0.5281,0.5372,0.5619,0.5879,0.6008,0.6049,0.5991,0.6032,0.6097,0.6216,0.6392,0.6768,0.6761,0.6761,0.6719,0.662,0.5972,0.5676,0.5354,0.5203,0.5266,0.5502,0.5593,0.5798,0.5524,0.5462,0.5715,0.5961,0.6315,0.6783,0.6947,0.7126,0.7342,0.7495,0.7604,0.7699,0.7691,0.7847,0.8181,0.8327,0.8681,0.9063,0.9479,0.9779,0.9799,1.0176,1.0674,1.1127,1.1715,1.2113,1.2173,1.2765,1.338,1.3893,1.4863,1.5749,1.6759,1.7559,1.8222,1.856,1.9064,1.9781,2.0582,2.1384,2.1899,2.2477,2.2773,2.3125,2.3008,2.3164,0.2053,0.245,0.245,0.2228,0.1784,0.1247,0.0667,0.0044,-0.0843,-0.0843,0.0133,0.0,0.0535,0.1292,0.1916,0.2226,0.2539,0.2857,0.304,0.3123,0.3061,0.3117,0.3344,0.3693,0.4303,0.487,0.5346,0.5739,0.6465,0.6761,0.7056,0.7266,0.7529,0.7498,0.7277,0.7085,0.651,0.5979,0.555,0.5276,0.5172,0.5251,0.5135,0.5221,0.5475,0.5621,0.5845,0.6109,0.6371,0.661,0.6661,0.6767,0.7328,0.7363,0.7405,0.7363,0.7231,0.6972,0.6972,0.6972,0.6874,0.6833,0.6747,0.6693,0.6593,0.6599,0.6956,0.6981,0.709,0.6955,0.698,0.7187,0.7302,0.7596,0.8006,0.8181,0.8358,0.8553,0.8706,0.8778,0.8873,0.8913,0.9112,0.9195,0.9391,0.9739,1.0118,1.055,1.0795,1.0812,1.1036,1.1571,1.1886,1.2354,1.2389,1.2437,1.3187,1.3872,1.4359,1.4993,1.6074,1.7065,1.7798,1.8528,1.9177,1.9811,2.0463,2.1279,2.2172,2.2977,2.3547,2.3772,2.3925,2.3819,2.3923,0.2721,0.3034,0.3034,0.294,0.2802,0.2588,0.2357,0.2035,0.0797,0.0666,0.1156,0.089,0.1246,0.2041,0.2454,0.2689,0.2945,0.3094,0.3269,0.3344,0.35,0.3487,0.3719,0.4056,0.4815,0.5517,0.589,0.591,0.6852,0.7538,0.7878,0.8193,0.8765,0.8643,0.8286,0.7895,0.7527,0.6943,0.6409,0.6068,0.5927,0.5882,0.5725,0.5537,0.5706,0.5944,0.6048,0.6333,0.6667,0.6867,0.6907,0.7105,0.7482,0.7489,0.7704,0.7572,0.7321,0.7238,0.7301,0.6956,0.6814,0.6891,0.7308,0.7418,0.7594,0.771,0.7933,0.807,0.8405,0.8627,0.8764,0.8909,0.8961,0.9041,0.9262,0.9446,0.9621,0.9778,0.9895,0.9973,1.005,1.005,1.0157,1.0223,1.0452,1.0778,1.1148,1.1546,1.1693,1.1681,1.1936,1.2366,1.2532,1.2768,1.2733,1.272,1.3204,1.3954,1.4828,1.5554,1.6528,1.7515,1.8418,1.9241,2.003,2.0643,2.1235,2.215,2.3015,2.3707,2.4176,2.4308,2.4466,2.4632,2.4861,0.3622,0.3667,0.3711,0.4005,0.4351,0.3921,0.3961,0.4256,0.2649,0.1999,0.1958,0.1855,0.2111,0.2641,0.2735,0.2897,0.308,0.3222,0.328,0.3306,0.3343,0.3446,0.3585,0.3796,0.473,0.5734,0.6231,0.6161,0.6725,0.753,0.8357,0.8756,0.9159,0.9119,0.8602,0.8381,0.8,0.7573,0.7036,0.658,0.6286,0.6201,0.6108,0.5746,0.5875,0.6081,0.5935,0.6166,0.6606,0.6673,0.6834,0.7007,0.7189,0.7273,0.753,0.7496,0.728,0.7293,0.7346,0.7069,0.6893,0.6973,0.7209,0.7859,0.8315,0.8685,0.891,0.9226,0.9536,0.9767,0.9933,1.0019,1.0086,1.0213,1.0381,1.0444,1.0512,1.0674,1.075,1.0836,1.0819,1.0857,1.1004,1.1074,1.1031,1.156,1.1799,1.2126,1.2437,1.2437,1.2603,1.2931,1.2978,1.3025,1.3025,1.306,1.3163,1.3864,1.4883,1.5528,1.6069,1.7455,1.9088,1.9824,2.0547,2.1352,2.2093,2.2703,2.3271,2.4033,2.4447,2.4679,2.4865,2.5019,2.5245,0.3836,0.4264,0.47,0.4961,0.5043,0.4961,0.4918,0.4986,0.4071,0.341,0.3075,0.2521,0.2568,0.3206,0.3011,0.3112,0.3232,0.3171,0.3182,0.3246,0.3283,0.3392,0.3698,0.3986,0.4624,0.5015,0.5627,0.667,0.7675,0.8349,0.8756,0.9239,0.9518,0.9319,0.8797,0.8581,0.8335,0.7904,0.7505,0.6904,0.6358,0.6314,0.6246,0.5799,0.5684,0.5814,0.5818,0.6019,0.6398,0.658,0.6867,0.721,0.7663,0.7655,0.7739,0.7787,0.746,0.7402,0.7422,0.7362,0.7249,0.7497,0.795,0.8661,0.9185,0.9544,0.9916,1.0333,1.0626,1.0829,1.1015,1.1075,1.1176,1.1311,1.1413,1.1384,1.1365,1.152,1.1641,1.1627,1.1612,1.1675,1.1813,1.1852,1.1771,1.1793,1.1788,1.2054,1.266,1.2869,1.2836,1.3069,1.3151,1.3198,1.3267,1.3326,1.3442,1.3843,1.4708,1.524,1.5748,1.7194,1.8828,2.0047,2.0987,2.1542,2.1998,2.2497,2.3143,2.3986,2.446,2.4579,2.4726,2.4869,2.5144,0.4136,0.4478,0.5043,0.548,0.5615,0.5437,0.538,0.5339,0.4683,0.4217,0.3843,0.3096,0.297,0.3439,0.3222,0.3093,0.3197,0.3066,0.3059,0.313,0.3246,0.3375,0.3714,0.4164,0.4638,0.503,0.6354,0.7607,0.8529,0.9039,0.9279,0.9725,0.9755,0.9518,0.9047,0.8846,0.8398,0.7912,0.7697,0.7138,0.6418,0.642,0.6326,0.59,0.5691,0.5725,0.5638,0.5805,0.6129,0.6601,0.7024,0.7687,0.8111,0.8234,0.8254,0.8158,0.7918,0.7588,0.7757,0.7805,0.7837,0.8191,0.8357,0.8961,0.9844,1.0233,1.0836,1.1179,1.1252,1.1461,1.1637,1.171,1.199,1.2189,1.2151,1.2092,1.2329,1.2567,1.2555,1.2437,1.2401,1.2341,1.2449,1.252,1.2484,1.2555,1.2461,1.2389,1.2916,1.3268,1.3238,1.3263,1.3378,1.348,1.3581,1.3633,1.3663,1.4138,1.4735,1.5768,1.6673,1.7425,1.8505,1.9584,2.0526,2.117,2.1645,2.2249,2.2908,2.3689,2.4113,2.4407,2.4557,2.4695,2.4903,0.4397,0.4577,0.5169,0.5682,0.6079,0.564,0.5561,0.5596,0.5001,0.4625,0.4428,0.3607,0.3363,0.3349,0.3211,0.3052,0.2934,0.2903,0.29,0.2968,0.3052,0.3253,0.3645,0.4164,0.4768,0.5647,0.682,0.7698,0.8495,0.8941,0.947,1.005,1.0049,0.9843,0.9359,0.8837,0.8234,0.778,0.7412,0.7052,0.6781,0.6627,0.6413,0.6209,0.5939,0.5678,0.5585,0.5706,0.6003,0.6553,0.728,0.802,0.8399,0.8496,0.8442,0.8351,0.8126,0.8185,0.8488,0.8477,0.8633,0.8848,0.893,0.9379,1.0295,1.0978,1.1548,1.1789,1.1873,1.2071,1.2246,1.2392,1.2682,1.2867,1.2806,1.2758,1.3103,1.3433,1.3327,1.3153,1.3088,1.3012,1.3012,1.3116,1.3094,1.321,1.3232,1.3267,1.3323,1.3454,1.3568,1.3602,1.3702,1.3802,1.3974,1.4032,1.4062,1.4715,1.5435,1.659,1.7509,1.7851,1.833,1.8958,1.9831,2.0483,2.1375,2.2123,2.2783,2.3437,2.381,2.4137,2.4349,2.4481,2.4642,0.4382,0.5165,0.578,0.6098,0.6181,0.606,0.6059,0.5969,0.5324,0.5054,0.487,0.4257,0.3832,0.3738,0.34,0.3155,0.2983,0.2899,0.2891,0.2913,0.3018,0.3169,0.3672,0.4513,0.5224,0.6089,0.693,0.7403,0.8395,0.8853,0.9219,0.9737,0.9239,0.9039,0.8878,0.839,0.7946,0.7572,0.7579,0.7425,0.7009,0.682,0.66,0.6471,0.6364,0.6223,0.6208,0.6428,0.6593,0.6937,0.7464,0.8238,0.8617,0.8591,0.8381,0.8455,0.8238,0.854,0.8774,0.8977,0.9197,0.9742,0.9852,1.0056,1.0861,1.156,1.1984,1.2168,1.2338,1.2728,1.2923,1.2871,1.3044,1.3124,1.3137,1.3208,1.3429,1.3635,1.3676,1.363,1.3576,1.3501,1.348,1.3412,1.3198,1.3267,1.3323,1.3378,1.3702,1.3802,1.3881,1.3993,1.4059,1.4312,1.4531,1.4572,1.47,1.533,1.6063,1.7115,1.7777,1.7921,1.8391,1.8798,1.9202,1.9779,2.0703,2.199,2.2615,2.3236,2.3552,2.3865,2.4089,2.4284,2.4431]},{"header":{"parameterUnit":"m.s-1","parameterCategory":1,"la1":31.0,"la2":29.5877,"lo1":-88.7671,"lo2":-86.6584,"dy":0.0162,"dx":0.0185,"nx":115,"ny":88,"refTime":"2023-05-29T00:00:00:Z","depth":0,"parameterNumber":3,"parameterNumberName":"V-component_of_WINDS"},"data":[0.0,0.0,0.0,0.0,0.0,0.0,0.0,0.0,0.0,0.0,0.0,0.0,0.0,0.0,0.0,0.0,0.0,0.0,0.0,0.0,0.0,0.0,0.0,0.0,0.0,0.0,0.0,0.0,0.0,0.0,0.0,0.0,0.0,0.0,0.0,0.0,0.0,0.0,0.0,0.0,0.0,0.0,0.0,0.0,0.0,0.0,0.0,0.0,0.0,0.0,0.0,0.0,0.0,0.0,0.0,0.0,0.0,0.0,0.0,0.0,0.0,0.0,0.0,0.0,0.0,0.0,0.0,0.0,0.0,0.0,0.0,0.0,0.0,0.0,0.0,0.0,0.0,0.0,0.0,0.0,0.0,0.0,0.0,0.0,0.0,0.0,0.0,0.0,0.0,0.0,0.0,0.0,0.0,0.0,0.0,0.0,0.0,0.0,0.0,0.0,0.0,0.0,0.0,0.0,0.0,0.0,0.0,0.0,0.0,0.0,0.0,0.0,0.0,0.0,0.0,0.0,0.0,0.0,0.0,0.0,0.0,0.0,0.0,0.0,0.0,0.0,0.0,0.0,0.0,0.0,0.0,0.0,0.0,0.0,0.0,0.0,0.0,0.0,0.0,0.0,0.0,0.0,0.0,0.0,0.0,0.0,0.0,0.0,0.0,0.0,0.0,0.0,0.0,0.0,0.0,0.0,0.0,0.0,0.0,0.0,0.0,0.0,0.0,0.0,0.0,0.0,0.0,0.0,0.0,0.0,0.0,0.0,0.0,0.0,0.0,0.0,0.0,0.0,0.0,0.0,0.0,0.0,0.0,0.0,0.0,0.0,0.0,0.0,0.0,0.0,0.0,0.0,0.0,0.0,0.0,0.0,0.0,0.0,0.0,0.0,0.0,0.0,0.0,0.0,0.0,0.0,0.0,0.0,0.0,0.0,0.0,0.0,0.0,0.0,0.0,0.0,0.0,0.0,0.0,0.0,0.0,0.0,0.0,0.0,0.0,0.0,0.0,0.0,0.0,0.0,0.0,0.0,0.0,0.0,0.0,0.0,0.0,0.0,0.0,0.0,0.0,0.0,0.0,0.0,0.0,0.0,0.0,0.0,0.0,0.0,0.0,0.0,0.0,0.0,0.0,0.0,0.0,0.0,0.0,0.0,0.0,0.0,0.0,0.0,0.0,0.0,0.0,0.0,0.0,0.0,0.0,0.0,0.0,0.0,0.0,0.0,0.0,0.0,0.0,0.0,0.0,0.0,0.0,0.0,0.0,0.0,0.0,0.0,0.0,0.0,0.0,0.0,0.0,0.0,0.0,0.0,0.0,0.0,0.0,0.0,0.0,0.0,0.0,0.0,0.0,0.0,0.0,0.0,0.0,0.0,0.0,0.0,0.0,0.0,0.0,0.0,0.0,0.0,0.0,0.0,0.0,0.0,0.0,0.0,0.0,0.0,0.0,0.0,0.0,0.0,0.0,0.0,0.0,0.0,0.0,0.0,0.0,0.0,0.0,0.0,0.0,0.0,0.0,0.0,0.0,0.0,0.0,0.0,0.0,0.0,0.0,0.0,0.0,0.0,0.0,0.0,0.0,0.0,0.0,0.0,0.0,0.0,0.0,0.0,0.0,0.0,0.0,0.0,0.0,0.0,0.0,0.0,0.0,0.0,0.0,0.0,0.0,0.0,0.0,0.0,0.0,0.0,0.0,0.0,0.0,0.0,0.0,0.0,0.0,0.0,0.0,0.0,0.0,0.0,0.0,0.0,0.0,0.0,0.0,0.0,0.0,0.0,0.0,0.0,0.0,0.0,0.0,0.0,0.0,0.0,0.0,0.0,0.0,0.0,0.0,0.0,0.0,0.0,0.0,0.0,0.0,0.0,0.0,0.0,0.0,0.0,0.0,0.0,0.0,0.0,0.0,0.0,0.0,0.0,0.0,0.0,0.0,0.0,0.0,0.0,0.0,0.0,0.0,0.0,0.0,0.0,0.0,0.0,0.0,0.0,0.0,0.0,0.0,0.0,0.0,0.0,0.0,0.0,0.0,0.0,0.0,0.0,0.0,0.0,0.0,0.0,0.0,0.0,0.0,0.0,0.0,0.0,0.0,0.0,0.0,0.0,0.0,0.0,0.0,0.0,0.0,0.0,0.0,0.0,0.0,0.0,0.0,0.0,0.0,0.0,0.0,0.0,0.0,0.0,0.0,0.0,0.0,0.0,0.0,0.0,0.0,0.0,0.0,0.0,0.0,0.0,0.0,0.0,0.0,0.0,0.0,0.0,0.0,0.0,0.0,0.0,0.0,0.0,0.0,0.0,0.0,0.0,0.0,0.0,0.0,0.0,0.0,0.0,0.0,0.0,0.0,0.0,0.0,0.0,0.0,0.0,0.0,0.0,0.0,0.0,0.0,0.0,0.0,0.0,0.0,0.0,0.0,0.0,0.0,0.0,0.0,0.0,0.0,0.0,0.0,0.0,0.0,0.0,0.0,0.0,0.0,0.0,0.0,0.0,0.0,0.0,0.0,0.0,0.0,0.0,0.0,0.0,0.0,0.0,0.0,0.0,0.0,0.0,0.0,0.0,0.0,0.0,0.0,0.0,0.0,0.0,0.0,0.0,0.0,0.0,0.0,0.0,0.0,0.0,0.0,0.0,0.0,0.0,0.0,0.0,0.0,0.0,0.0,0.0,0.0,0.0,0.0,0.0,0.0,0.0,0.0,0.0,0.0,0.0,0.0,0.0,0.0,0.0,0.0,0.0,0.0,0.0,0.0,0.0,0.0,0.0,0.0,0.0,0.0,0.0,0.0,0.0,0.0,0.0,0.0,0.0,0.0,0.0,0.0,0.0,0.0,0.0,0.0,0.0,0.0,0.0,0.0,0.0,0.0,0.0,0.0,0.0,0.0,0.0,0.0,0.0,0.0,0.0,0.0,0.0,0.0,0.0,0.0,0.0,0.0,0.0,0.0,0.0,0.0,0.0,0.0,0.0,0.0,0.0,0.0,0.0,0.0,0.0,0.0,0.0,0.0,0.0,0.0,0.0,0.0,0.0,0.0,0.0,0.0,0.0,0.0,0.0,0.0,0.0,0.0,0.0,0.0,0.0,0.0,0.0,0.0,0.0,0.0,0.0,0.0,0.0,0.0,0.0,0.0,0.0,0.0,0.0,0.0,0.0,0.0,0.0,0.0,0.0,0.0,0.0,0.0,0.0,0.0,0.0,0.0,0.0,0.0,0.0,0.0,0.0,0.0,0.0,0.0,0.0,0.0,0.0,0.0,0.0,0.0,0.0,0.0,0.0,0.0,0.0,0.0,0.0,0.0,0.0,0.0,0.0,0.0,0.0,0.0,0.0,0.0,0.0,0.0,0.0,0.0,0.0,0.0,0.0,0.0,0.0,0.0,0.0,0.0,0.0,0.0,0.0,0.0,0.0,0.0,0.0,0.0,0.0,0.0,0.0,0.0,0.0,0.0,0.0,0.0,0.0,0.0,0.0,0.0,0.0,0.0,0.0,0.0,0.0,0.0,0.0,0.0,0.0,0.0,0.0,0.0,0.0,0.0,0.0,0.0,0.0,0.0,0.0,0.0,0.0,0.0,0.0,0.0,0.0,0.0,0.0,0.0,0.0,0.0,0.0,0.0,0.0,0.0,0.0,0.0,0.0,0.0,0.0,0.0,0.0,0.0,0.0,0.0,0.0,0.0,0.0,0.0,0.0,0.0,0.0,0.0,0.0,0.0,0.0,0.0,0.0,0.0,0.0,0.0,0.0,0.0,0.0,0.0,0.0,0.0,0.0,0.0,0.0,0.0,0.0,0.0,0.0,0.0,0.0,0.0,0.0,0.0,0.0,0.0,0.0,0.0,0.0,0.0,0.0,0.0,0.0,0.0,0.0,0.0,0.0,0.0,0.0,0.0,0.0,0.0,0.0,0.0,0.0,0.0,0.0,0.0,0.0,0.0,0.0,0.0,0.0,0.0,0.0,0.0,0.0,0.0,0.0,0.0,0.0,0.0,0.0,0.0,0.0,0.0,0.0,0.0,0.0,0.0,0.0,0.0,0.0,0.0,0.0,0.0,0.0,0.0,0.0,0.0,0.0,0.0,0.0,0.0,0.0,0.0,0.0,0.0,0.0,0.0,0.0,0.0,0.0,0.0,0.0,0.0,0.0,0.0,0.0,0.0,0.0,0.0,0.0,0.0,0.0,0.0,0.0,0.0,0.0,0.0,0.0,0.0,0.0,0.0,0.0,0.0,0.0,0.0,0.0,0.0,0.0,0.0,0.0,0.0,0.0,-0.767,0.0,0.0,0.0,0.0,0.0,0.0,0.0,0.0,0.0,0.0,0.0,0.0,0.0,0.0,0.0,0.0,0.0,0.0,0.0,0.0,0.0,0.0,0.0,0.0,0.0,0.0,0.0,0.0,0.0,0.0,0.0,0.0,0.0,0.0,0.0,0.0,0.0,0.0,0.0,0.0,0.0,0.0,0.0,0.0,0.0,0.0,0.0,0.0,0.0,0.0,0.0,0.0,0.0,0.0,0.0,0.0,0.0,0.0,0.0,0.0,0.0,0.0,0.0,0.0,0.0,0.0,0.0,0.0,0.0,0.0,0.0,0.0,0.0,0.0,0.0,0.0,0.0,0.0,0.0,0.0,0.0,0.0,0.0,0.0,0.0,0.0,0.0,0.0,0.0,0.0,0.0,0.0,0.0,0.0,0.0,0.0,0.0,0.0,0.0,0.0,0.0,0.0,0.0,0.0,0.0,0.0,0.0,0.0,0.0,0.0,-0.4353,-0.5069,-0.5664,-0.6529,-0.7771,0.0,0.0,0.0,0.0,0.0,0.0,0.0,0.0,0.0,0.0,0.0,0.0,0.0,0.0,0.0,0.0,0.0,0.0,0.0,0.0,0.0,0.0,0.0,0.0,0.0,0.0,0.0,0.0,0.0,0.0,0.0,0.0,0.0,0.0,0.0,0.0,0.0,0.0,0.0,0.0,0.0,0.0,0.0,0.0,0.0,0.0,0.0,0.0,0.0,0.0,0.0,0.0,0.0,0.0,0.0,0.0,0.0,0.0,0.0,0.0,0.0,0.0,0.0,0.0,0.0,0.0,0.0,0.0,0.0,0.0,0.0,0.0,0.0,0.0,0.0,0.0,0.0,0.0,0.0,0.0,0.0,0.0,0.0,0.0,0.0,0.0,0.0,0.0,0.0,0.0,0.0,0.0,0.0,0.0,0.0,0.0,0.0,0.0,0.0,0.0,0.0,0.0,0.0,0.0,0.0,0.0,0.0,0.0,0.0,0.0,0.0,0.0,-0.5479,-0.6553,-0.8149,0.0,0.0,0.0,0.0,0.0,0.0,0.0,0.0,0.0,0.0,0.0,0.0,0.0,0.0,0.0,0.0,0.0,0.0,0.0,0.0,0.0,0.0,0.0,0.0,0.0,0.0,0.0,0.0,0.0,0.0,0.0,0.0,0.0,0.0,0.0,0.0,0.0,0.0,0.0,0.0,0.0,0.0,0.0,0.0,0.0,0.0,0.0,0.0,0.0,0.0,0.0,0.0,0.0,0.0,0.0,0.0,0.0,0.0,0.0,0.0,0.0,0.0,0.0,0.0,0.0,0.0,0.0,0.0,0.0,0.0,0.0,0.0,0.0,0.0,0.0,0.0,0.0,0.0,0.0,0.0,0.0,0.0,0.0,0.0,0.0,0.0,0.0,0.0,0.0,0.0,0.0,0.0,0.0,0.0,0.0,0.0,0.0,0.0,0.0,0.0,0.0,0.0,0.0,0.0,0.0,0.0,0.0,0.0,0.0,0.0,-0.3462,-0.4362,-0.5304,0.0,-0.8955,0.0,0.0,0.0,0.0,0.0,0.0,0.0,0.0,0.0,0.0,0.0,0.0,0.0,0.0,0.0,0.0,0.0,0.0,0.0,0.0,0.0,0.0,0.0,0.0,0.0,0.0,0.0,0.0,0.0,0.0,0.0,0.0,0.0,0.0,0.0,0.0,0.0,0.0,0.0,0.0,0.0,0.0,0.0,0.0,0.0,0.0,0.0,0.0,0.0,0.0,0.0,0.0,0.0,0.0,0.0,0.0,0.0,0.0,0.0,0.0,0.0,0.0,0.0,0.0,0.0,0.0,0.0,0.0,0.0,0.0,0.0,0.0,0.0,0.0,0.0,0.0,0.0,0.0,0.0,0.0,0.0,0.0,0.0,0.0,0.0,0.0,0.0,0.0,0.0,0.0,0.0,0.0,0.0,0.0,0.0,0.0,0.0,0.0,0.0,0.0,0.0,0.0,0.0,0.0,0.0,0.0,0.0,0.0,0.0,0.0,-0.3292,-0.4026,-0.597,-0.778,0.0,0.0,0.0,0.0,0.0,0.0,0.0,0.0,0.0,0.0,0.0,0.0,0.0,0.0,0.0,0.0,0.0,0.0,0.0,0.0,0.0,0.0,0.0,0.0,0.0,0.0,0.0,0.0,0.0,0.0,0.0,0.0,0.0,0.0,0.0,0.0,0.0,0.0,0.0,0.0,0.0,0.0,0.0,0.0,0.0,0.0,0.0,0.0,0.0,0.0,0.0,0.0,0.0,0.0,0.0,0.0,0.0,0.0,0.0,0.0,0.0,0.0,0.0,0.0,0.0,0.0,0.0,0.0,0.0,0.0,0.0,0.0,0.0,0.0,0.0,0.0,0.0,0.0,0.0,0.0,0.0,0.0,0.0,0.0,0.0,0.0,0.0,0.0,0.0,0.0,0.0,0.0,0.0,0.0,0.0,0.0,0.0,0.0,0.0,0.0,0.0,0.0,0.0,0.0,0.0,0.0,0.0,0.0,0.0,0.0,-0.2503,-0.3071,-0.4282,-0.6477,-0.8171,-0.929,0.0,0.0,0.0,0.0,0.0,0.0,0.0,0.0,0.0,0.0,0.0,0.0,0.0,0.0,0.0,0.0,0.0,0.0,0.0,0.0,0.0,0.0,0.0,0.0,0.0,0.0,0.0,0.0,0.0,0.0,0.0,0.0,0.0,0.0,0.0,0.0,0.0,0.0,0.0,0.0,0.0,0.0,0.0,0.0,0.0,0.0,0.0,0.0,0.0,0.0,0.0,0.0,0.0,0.0,0.0,0.0,0.0,0.0,0.0,0.0,0.0,0.0,0.0,0.0,0.0,0.0,0.0,0.0,0.0,0.0,0.0,0.0,0.0,0.0,0.0,0.0,0.0,0.0,0.0,0.0,0.0,0.0,0.0,0.0,0.0,0.0,0.0,0.0,0.0,0.0,0.0,0.0,0.0,0.0,0.0,0.0,0.0,0.0,0.0,0.0,0.0,0.0,0.0,0.0,0.0,0.0,0.0,0.0,-0.2209,-0.1971,-0.2913,-0.5027,-0.6421,-0.7751,0.0,0.0,0.0,0.0,0.0,0.0,0.0,0.0,0.0,0.0,0.0,0.0,0.0,0.0,0.0,0.0,0.0,0.0,0.0,0.0,0.0,0.0,0.0,0.0,0.0,0.0,0.0,0.0,0.0,0.0,0.0,0.0,0.0,0.0,0.0,0.0,0.0,0.0,0.0,0.0,0.0,0.0,0.0,0.0,0.0,0.0,0.0,0.0,0.0,0.0,0.0,0.0,0.0,0.0,0.0,0.0,0.0,0.0,0.0,0.0,0.0,0.0,0.0,0.0,0.0,0.0,0.0,0.0,0.0,0.0,0.0,0.0,0.0,0.0,0.0,0.0,0.0,0.0,0.0,0.0,0.0,0.0,0.0,0.0,0.0,0.0,0.0,0.0,0.0,0.0,0.0,0.0,0.0,0.0,0.0,0.0,0.0,0.0,0.0,0.0,0.0,0.0,0.0,0.0,0.0,0.0,0.0,0.0,0.0,-0.157,-0.1676,-0.2716,-0.4703,-0.6188,-0.7607,0.0,0.0,0.0,0.0,0.0,0.0,0.0,0.0,0.0,0.0,0.0,0.0,0.0,0.0,0.0,0.0,0.0,0.0,0.0,0.0,0.0,0.0,0.0,0.0,0.0,0.0,0.0,0.0,0.0,0.0,0.0,0.0,0.0,0.0,0.0,0.0,0.0,0.0,0.0,0.0,0.0,0.0,0.0,0.0,0.0,0.0,0.0,0.0,0.0,0.0,0.0,0.0,0.0,0.0,0.0,0.0,0.0,0.0,0.0,0.0,0.0,0.0,0.0,0.0,0.0,0.0,0.0,0.0,0.0,0.0,0.0,0.0,0.0,0.0,0.0,0.0,0.0,0.0,0.0,0.0,0.0,0.0,0.0,0.0,0.0,0.0,0.0,0.0,0.0,0.0,0.0,0.0,0.0,0.0,0.0,0.0,0.0,0.0,0.0,0.0,0.0,0.0,0.0,0.0,0.0,0.0,0.0,0.0,0.0,-0.0492,0.0,-0.2315,-0.4227,-0.6012,-0.7682,0.0,0.0,0.0,0.0,0.0,0.0,0.0,0.0,0.0,0.0,0.0,0.0,0.0,0.0,0.0,0.0,0.0,0.0,0.0,0.0,0.0,0.0,0.0,0.0,0.0,0.0,0.0,0.0,0.0,0.0,0.0,0.0,0.0,0.0,0.0,0.0,0.0,0.0,0.0,0.0,0.0,0.0,0.0,0.0,0.0,0.0,0.0,0.0,0.0,0.0,0.0,0.0,0.0,0.0,0.0,0.0,0.0,0.0,0.0,0.0,0.0,0.0,0.0,0.0,0.0,0.0,0.0,0.0,0.0,0.0,0.0,0.0,0.0,0.0,0.0,0.0,0.0,0.0,0.0,0.0,0.0,0.0,0.0,0.0,0.0,0.0,0.0,0.0,0.0,0.0,0.0,0.0,0.0,0.0,0.0,0.0,0.0,0.0,0.0,0.0,0.0,0.0,0.0,0.0,0.0,0.0,0.0,0.0,-0.0879,0.1026,0.0048,-0.1544,-0.3809,-0.5888,-0.7884,0.0,0.0,0.0,0.0,0.0,0.0,0.0,0.0,0.0,0.0,0.0,0.0,0.0,0.0,0.0,0.0,0.0,0.0,0.0,0.0,0.0,0.0,0.0,0.0,0.0,0.0,0.0,0.0,0.0,0.0,0.0,0.0,0.0,0.0,0.0,0.0,0.0,0.0,0.0,0.0,0.0,0.0,0.0,0.0,0.0,0.0,0.0,0.0,0.0,0.0,0.0,0.0,0.0,0.0,0.0,0.0,0.0,0.0,0.0,0.0,0.0,0.0,0.0,0.0,0.0,0.0,0.0,0.0,0.0,0.0,0.0,0.0,0.0,0.0,0.0,0.0,0.0,0.0,0.0,0.0,0.0,0.0,0.0,0.0,0.0,0.0,0.0,0.0,0.0,0.0,0.0,0.0,0.0,0.0,0.0,0.0,0.0,0.0,0.0,0.0,0.0,0.0,0.0,0.0,0.0,0.0,0.0,0.0,0.0,0.4341,0.2621,0.0504,-0.1979,-0.5212,-0.7939,0.0,0.0,0.0,0.0,0.0,0.0,0.0,0.0,0.0,0.0,0.0,0.0,0.0,0.0,0.0,0.0,0.0,0.0,0.0,0.0,0.0,0.0,0.0,0.0,0.0,0.0,0.0,0.0,0.0,0.0,0.0,0.0,0.0,0.0,0.0,0.0,0.0,0.0,0.0,0.0,0.0,0.0,0.0,0.0,0.0,0.0,0.0,0.0,0.0,0.0,0.0,0.0,0.0,0.0,0.0,0.0,0.0,0.0,0.0,0.0,0.0,0.0,0.0,0.0,0.0,0.0,0.0,0.0,0.0,0.0,0.0,0.0,0.0,0.0,0.0,0.0,0.0,0.0,0.0,0.0,0.0,0.0,0.0,0.0,0.0,0.0,0.0,0.0,0.0,0.0,0.0,0.0,0.0,0.0,0.0,0.0,0.0,0.0,0.0,0.0,0.0,0.0,0.0,0.0,0.0,0.0,0.0,0.0,0.0,1.0309,0.6562,0.2991,-0.03,-0.4526,-0.8092,-1.085,0.0,0.0,0.0,0.0,0.0,0.0,0.0,0.0,0.0,0.0,0.0,0.0,0.0,0.0,0.0,0.0,0.0,0.0,0.0,0.0,0.0,0.0,0.0,0.0,0.0,0.0,0.0,0.0,0.0,0.0,0.0,0.0,0.0,0.0,0.0,0.0,0.0,0.0,0.0,0.0,0.0,0.0,0.0,0.0,0.0,0.0,0.0,0.0,0.0,0.0,0.0,0.0,0.0,0.0,0.0,0.0,0.0,0.0,0.0,0.0,0.0,0.0,0.0,0.0,0.0,0.0,0.0,0.0,0.0,0.0,0.0,0.0,0.0,0.0,0.0,0.0,0.0,0.0,0.0,0.0,0.0,0.0,0.0,0.0,0.0,0.0,0.0,0.0,0.0,0.0,0.0,0.0,0.0,0.0,0.0,0.0,0.0,0.0,0.0,0.0,0.0,0.0,0.0,0.0,0.0,0.0,0.0,0.0,1.8217,1.1672,0.5939,0.1162,-0.3773,-0.826,0.0,0.0,0.0,0.0,0.0,0.0,0.0,0.0,0.0,0.0,0.0,0.0,0.0,0.0,0.0,0.0,0.0,0.0,0.0,0.0,0.0,0.0,0.0,0.0,0.0,0.0,0.0,0.0,0.0,0.0,0.0,0.0,0.0,0.0,0.0,0.0,0.0,0.0,0.0,0.0,0.0,0.0,0.0,0.0,0.0,0.0,0.0,0.0,0.0,0.0,0.0,0.0,0.0,0.0,0.0,0.0,0.0,0.0,0.0,0.0,0.0,0.0,0.0,0.0,0.0,0.0,0.0,0.0,0.0,0.0,0.0,0.0,0.0,0.0,0.0,0.0,0.0,0.0,0.0,0.0,0.0,0.0,0.0,0.0,0.0,0.0,0.0,0.0,0.0,0.0,0.0,0.0,0.0,0.0,0.0,0.0,0.0,0.0,0.0,0.0,0.0,0.0,0.0,0.0,0.0,0.0,0.0,0.0,0.0,2.0106,1.6485,1.0559,0.2443,-0.2279,-0.7494,0.0,0.0,0.0,0.0,0.0,0.0,0.0,0.0,0.0,0.0,0.0,0.0,0.0,0.0,0.0,0.0,0.0,0.0,0.0,0.0,0.0,0.0,0.0,0.0,0.0,0.0,0.0,0.0,0.0,0.0,0.0,0.0,0.0,0.0,0.0,0.0,0.0,0.0,0.0,0.0,0.0,0.0,0.0,0.0,0.0,0.0,0.0,0.0,0.0,0.0,0.0,0.0,0.0,0.0,0.0,0.0,0.0,0.0,0.0,0.0,0.0,0.0,0.0,0.0,0.0,0.0,0.0,0.0,0.0,0.0,0.0,0.0,0.0,0.0,0.0,0.0,0.0,0.0,0.0,0.0,0.0,0.0,0.0,0.0,0.0,0.0,0.0,0.0,0.0,0.0,0.0,0.0,0.0,0.0,0.0,0.0,0.0,0.0,0.0,0.0,0.0,0.0,0.0,0.0,0.0,0.0,0.0,0.0,2.0206,2.1082,1.8092,1.1697,0.1754,-0.2106,-0.7757,0.0,0.0,0.0,0.0,0.0,0.0,0.0,0.0,0.0,0.0,0.0,0.0,0.0,0.0,0.0,0.0,0.0,0.0,0.0,0.0,0.0,0.0,0.0,0.0,0.0,0.0,0.0,0.0,0.0,0.0,0.0,0.0,0.0,0.0,0.0,0.0,0.0,0.0,0.0,0.0,0.0,0.0,0.0,0.0,0.0,0.0,0.0,0.0,0.0,0.0,0.0,0.0,0.0,0.0,0.0,0.0,0.0,0.0,0.0,0.0,0.0,0.0,0.0,0.0,0.0,0.0,0.0,0.0,0.0,0.0,0.0,0.0,0.0,0.0,0.0,0.0,0.0,0.0,0.0,0.0,0.0,0.0,0.0,0.0,0.0,0.0,0.0,0.0,0.0,0.0,0.0,0.0,0.0,0.0,0.0,0.0,0.0,0.0,0.0,0.0,0.0,0.0,0.0,0.0,0.0,0.0,0.0,0.0,2.0474,2.0813,1.7173,1.0244,0.0065,-0.2958,-0.8727,0.0,0.0,0.0,0.0,0.0,0.0,0.0,0.0,0.0,0.0,0.0,0.0,0.0,0.0,0.0,0.0,0.0,0.0,0.0,0.0,0.0,0.0,0.0,0.0,0.0,0.0,0.0,0.0,0.0,0.0,0.0,0.0,0.0,0.0,0.0,0.0,0.0,0.0,0.0,0.0,0.0,0.0,0.0,0.0,0.0,0.0,0.0,0.0,0.0,0.0,0.0,0.0,0.0,0.0,0.0,0.0,0.0,0.0,0.0,0.0,0.0,0.0,0.0,0.0,0.0,0.0,0.0,0.0,0.0,0.0,0.0,0.0,0.0,0.0,0.0,0.0,0.0,0.0,0.0,0.0,0.0,0.0,0.0,0.0,0.0,0.0,0.0,0.0,0.0,0.0,0.0,0.0,0.0,0.0,0.0,0.0,0.0,0.0,0.0,0.0,0.0,0.0,0.0,0.0,0.0,0.0,0.0,0.0,1.8853,1.8578,1.3729,0.6579,-0.2817,-0.4866,-1.0286,0.0,0.0,0.0,0.0,0.0,0.0,0.0,0.0,0.0,0.0,0.0,0.0,0.0,0.0,0.0,0.0,0.0,0.0,0.0,0.0,0.0,0.0,0.0,0.0,0.0,0.0,0.0,0.0,0.0,0.0,0.0,0.0,0.0,0.0,0.0,0.0,0.0,0.0,0.0,0.0,0.0,0.0,0.0,0.0,0.0,0.0,0.0,0.0,-1.7915,0.0,0.0,0.0,0.0,0.0,0.0,0.0,0.0,0.0,0.0,0.0,0.0,0.0,0.0,0.0,0.0,0.0,0.0,0.0,0.0,0.0,0.0,0.0,0.0,0.0,0.0,0.0,0.0,0.0,0.0,0.0,0.0,0.0,0.0,0.0,0.0,0.0,0.0,0.0,0.0,0.0,0.0,0.0,0.0,0.0,0.0,0.0,0.0,0.0,0.0,0.0,0.0,0.0,0.0,0.0,0.0,0.0,0.0,0.0,1.795,1.6592,1.0713,0.3621,-0.4364,-0.8563,-1.4235,0.0,0.0,0.0,0.0,0.0,0.0,0.0,0.0,0.0,0.0,0.0,0.0,0.0,0.0,0.0,0.0,0.0,0.0,0.0,0.0,0.0,0.0,0.0,0.0,0.0,0.0,0.0,0.0,0.0,0.0,0.0,0.0,0.0,0.0,0.0,0.0,0.0,0.0,0.0,0.0,0.0,0.0,0.0,0.0,0.0,0.0,0.0,0.0,0.0,0.0,0.0,0.0,0.0,0.0,0.0,0.0,0.0,0.0,0.0,0.0,0.0,0.0,0.0,0.0,0.0,0.0,0.0,0.0,0.0,0.0,0.0,0.0,0.0,0.0,0.0,0.0,0.0,0.0,0.0,0.0,0.0,0.0,0.0,0.0,0.0,0.0,0.0,0.0,0.0,0.0,0.0,0.0,0.0,0.0,0.0,0.0,0.0,0.0,0.0,0.0,0.0,0.0,0.0,0.0,0.0,0.0,0.0,1.8539,1.7178,1.4702,0.7843,0.0994,-0.5588,-1.2414,-1.8421,-2.3467,0.0,0.0,0.0,0.0,0.0,0.0,0.0,0.0,0.0,0.0,0.0,0.0,0.0,0.0,0.0,0.0,0.0,0.0,0.0,0.0,0.0,0.0,0.0,0.0,0.0,0.0,0.0,0.0,0.0,0.0,0.0,0.0,0.0,0.0,0.0,0.0,0.0,0.0,-1.4068,-1.6105,0.0,0.0,0.0,0.0,0.0,0.0,0.0,0.0,-2.2721,0.0,0.0,0.0,0.0,0.0,0.0,0.0,0.0,0.0,0.0,0.0,0.0,0.0,0.0,0.0,0.0,0.0,0.0,0.0,0.0,0.0,0.0,0.0,0.0,0.0,0.0,0.0,0.0,0.0,0.0,0.0,0.0,0.0,0.0,0.0,0.0,0.0,0.0,0.0,0.0,0.0,0.0,0.0,0.0,0.0,0.0,0.0,0.0,0.0,0.0,0.0,0.0,0.0,0.0,0.0,0.0,1.8038,1.74,1.5872,1.3228,0.4846,-0.1807,-0.6411,-1.386,-1.9697,-2.3431,0.0,0.0,0.0,0.0,0.0,0.0,0.0,0.0,0.0,0.0,0.0,0.0,0.0,0.0,0.0,0.0,0.0,0.0,0.0,0.0,0.0,0.0,0.0,0.0,0.0,0.0,0.0,0.0,0.0,0.0,0.0,0.0,0.0,0.0,0.0,0.0,0.0,0.0,0.0,-1.5593,-1.7028,0.0,0.0,0.0,0.0,0.0,0.0,0.0,0.0,-2.5674,0.0,0.0,0.0,0.0,0.0,0.0,0.0,0.0,0.0,0.0,0.0,0.0,0.0,0.0,0.0,0.0,0.0,0.0,0.0,0.0,0.0,0.0,0.0,0.0,0.0,0.0,0.0,0.0,0.0,0.0,0.0,0.0,0.0,0.0,0.0,0.0,0.0,0.0,0.0,0.0,0.0,0.0,0.0,0.0,0.0,0.0,0.0,0.0,0.0,0.0,0.0,0.0,0.0,0.0,0.0,1.8883,1.7555,1.5384,1.2084,0.4071,-0.2408,-0.7062,-1.4008,-1.9384,0.0,0.0,0.0,0.0,0.0,0.0,0.0,0.0,0.0,0.0,0.0,0.0,0.0,0.0,0.0,0.0,0.0,0.0,0.0,0.0,0.0,0.0,0.0,0.0,0.0,0.0,0.0,0.0,0.0,0.0,0.0,0.0,0.0,0.0,0.0,0.0,0.0,0.0,0.0,0.0,-1.5326,-1.6028,-1.5511,0.0,0.0,0.0,0.0,0.0,0.0,-2.5298,-2.6601,0.0,0.0,0.0,0.0,0.0,0.0,0.0,0.0,0.0,0.0,0.0,0.0,0.0,0.0,0.0,0.0,0.0,0.0,0.0,0.0,0.0,0.0,0.0,0.0,0.0,0.0,0.0,0.0,0.0,0.0,0.0,0.0,0.0,0.0,0.0,0.0,0.0,0.0,0.0,0.0,0.0,0.0,0.0,0.0,0.0,0.0,0.0,0.0,0.0,0.0,0.0,0.0,0.0,0.0,0.0,1.9746,1.8003,1.5188,1.1047,0.3702,-0.2593,-0.7622,-1.3918,-1.8783,0.0,0.0,0.0,0.0,0.0,0.0,0.0,0.0,0.0,0.0,0.0,0.0,0.0,0.0,0.0,0.0,0.0,0.0,0.0,0.0,0.0,0.0,0.0,0.0,0.0,0.0,0.0,0.0,0.0,0.0,0.0,0.0,0.0,0.0,0.0,0.0,0.0,0.0,0.0,0.0,0.0,-1.4182,-1.4416,-1.5751,0.0,0.0,0.0,0.0,-2.2756,-2.4764,0.0,0.0,0.0,0.0,0.0,0.0,0.0,0.0,0.0,0.0,0.0,0.0,0.0,0.0,0.0,0.0,0.0,0.0,0.0,0.0,0.0,0.0,0.0,0.0,0.0,0.0,0.0,0.0,0.0,0.0,0.0,0.0,0.0,0.0,0.0,0.0,0.0,0.0,0.0,0.0,0.0,0.0,0.0,0.0,0.0,0.0,0.0,0.0,0.0,0.0,0.0,0.0,0.0,0.0,0.0,0.0,1.922,1.8103,1.5021,0.979,0.2599,-0.342,-0.8045,-1.4206,-1.8622,0.0,0.0,0.0,0.0,0.0,0.0,0.0,0.0,0.0,0.0,0.0,0.0,0.0,0.0,0.0,0.0,0.0,0.0,0.0,0.0,0.0,0.0,0.0,0.0,0.0,0.0,0.0,0.0,0.0,0.0,0.0,0.0,0.0,0.0,0.0,0.0,0.0,0.0,0.0,0.0,0.0,-1.0959,-1.031,-1.3152,-1.6099,0.0,0.0,-2.0239,-2.1366,-2.3141,0.0,0.0,0.0,0.0,0.0,0.0,0.0,0.0,0.0,0.0,0.0,0.0,0.0,0.0,0.0,0.0,0.0,0.0,0.0,0.0,0.0,0.0,0.0,0.0,0.0,0.0,0.0,0.0,0.0,0.0,0.0,0.0,0.0,0.0,0.0,0.0,0.0,0.0,0.0,0.0,0.0,0.0,0.0,0.0,0.0,0.0,0.0,0.0,0.0,0.0,0.0,0.0,0.0,0.0,0.0,2.0921,2.0171,1.7742,1.4293,0.9704,0.2695,-0.3432,-0.853,-1.3881,-1.8058,0.0,0.0,0.0,0.0,0.0,0.0,0.0,0.0,0.0,0.0,0.0,0.0,0.0,0.0,0.0,0.0,0.0,0.0,0.0,0.0,0.0,0.0,0.0,0.0,0.0,0.0,0.0,0.0,0.0,0.0,0.0,0.0,0.0,0.0,0.0,0.0,0.0,0.0,0.0,0.0,0.0,0.0,-0.8028,-1.0662,0.0,0.0,0.0,-1.7879,-1.9612,0.0,0.0,0.0,0.0,0.0,0.0,0.0,0.0,0.0,0.0,0.0,0.0,0.0,0.0,0.0,0.0,0.0,0.0,0.0,0.0,0.0,0.0,0.0,0.0,0.0,0.0,0.0,0.0,0.0,0.0,0.0,0.0,0.0,0.0,0.0,0.0,0.0,0.0,0.0,0.0,0.0,0.0,0.0,0.0,0.0,0.0,0.0,0.0,0.0,0.0,0.0,0.0,0.0,0.0,0.0,0.0,0.0,2.061,1.7287,1.3521,0.9385,0.2771,-0.3372,-0.893,-1.3653,0.0,0.0,0.0,0.0,0.0,0.0,0.0,0.0,0.0,0.0,0.0,0.0,0.0,0.0,0.0,0.0,0.0,0.0,0.0,0.0,0.0,0.0,0.0,0.0,0.0,0.0,0.0,-1.8599,0.0,0.0,0.0,0.0,0.0,0.0,0.0,0.0,0.0,0.0,0.0,0.0,0.0,0.0,-0.5364,-0.6441,-0.8745,-1.1196,0.0,0.0,-1.5414,-1.7749,-1.7881,-1.8648,0.0,0.0,0.0,0.0,0.0,0.0,0.0,0.0,0.0,0.0,0.0,0.0,0.0,0.0,0.0,0.0,0.0,0.0,0.0,0.0,0.0,0.0,0.0,0.0,0.0,0.0,0.0,0.0,0.0,0.0,0.0,0.0,0.0,0.0,0.0,0.0,0.0,0.0,0.0,0.0,0.0,0.0,0.0,0.0,0.0,0.0,0.0,0.0,0.0,0.0,0.0,0.0,0.0,0.0,0.0,1.9509,1.6775,1.2985,0.8271,0.2369,-0.3448,-0.914,-1.3718,-1.717,0.0,0.0,0.0,0.0,0.0,0.0,0.0,0.0,0.0,0.0,0.0,0.0,0.0,0.0,0.0,0.0,0.0,0.0,0.0,0.0,0.0,0.0,0.0,0.0,0.0,0.0,0.0,0.0,0.0,0.0,0.0,0.0,0.0,0.0,0.0,0.0,0.0,0.0,0.0,0.0,0.0,-0.3539,-0.5378,-0.7842,-1.0081,0.0,0.0,-1.3534,-1.5922,-1.6571,-1.7696,-2.0387,0.0,0.0,0.0,0.0,0.0,0.0,0.0,0.0,0.0,0.0,0.0,0.0,0.0,0.0,0.0,0.0,0.0,0.0,0.0,0.0,0.0,0.0,0.0,0.0,0.0,0.0,0.0,0.0,0.0,0.0,0.0,0.0,0.0,0.0,0.0,0.0,0.0,0.0,0.0,0.0,0.0,0.0,0.0,0.0,0.0,0.0,0.0,0.0,0.0,0.0,0.0,0.0,0.0,1.8346,1.8584,1.5479,1.1778,0.756,0.2003,-0.3704,-0.9418,-1.3682,-1.6906,0.0,0.0,0.0,0.0,0.0,0.0,0.0,0.0,0.0,0.0,0.0,0.0,0.0,0.0,0.0,0.0,0.0,0.0,0.0,0.0,0.0,0.0,0.0,0.0,0.0,0.0,0.0,0.0,-1.5749,-1.5148,-1.4634,0.0,0.0,0.0,0.0,0.0,0.0,0.0,0.0,0.0,0.0,-0.3313,-0.5319,-0.7656,0.0,0.0,-1.1994,-1.339,-1.5316,-1.6366,-1.7665,-1.9609,-2.1317,0.0,0.0,0.0,0.0,0.0,0.0,0.0,0.0,0.0,0.0,0.0,0.0,0.0,0.0,0.0,0.0,0.0,0.0,0.0,0.0,0.0,0.0,0.0,0.0,0.0,0.0,0.0,0.0,0.0,0.0,0.0,0.0,0.0,0.0,0.0,0.0,0.0,0.0,0.0,0.0,0.0,0.0,0.0,0.0,0.0,0.0,0.0,0.0,0.0,0.0,0.0,0.0,1.6437,1.697,1.3706,1.0247,0.666,0.1505,-0.3893,-0.9477,-1.3471,-1.6553,0.0,0.0,0.0,0.0,0.0,0.0,0.0,0.0,0.0,0.0,0.0,0.0,0.0,0.0,0.0,0.0,0.0,0.0,0.0,0.0,0.0,0.0,0.0,0.0,0.0,0.0,0.0,0.0,-1.3267,-1.2446,-1.2002,0.0,0.0,0.0,0.0,0.0,0.0,0.0,0.0,0.0,0.0,-0.4273,-0.5496,-0.7608,-0.9375,-1.0315,-1.1746,-1.327,-1.4948,-1.5989,-1.7171,-1.8912,0.0,0.0,0.0,0.0,0.0,0.0,0.0,0.0,0.0,0.0,0.0,0.0,0.0,0.0,0.0,0.0,0.0,0.0,0.0,0.0,0.0,0.0,0.0,0.0,0.0,0.0,0.0,0.0,0.0,0.0,-1.15,0.0,0.0,0.0,0.0,0.0,0.0,0.0,0.0,0.0,0.0,0.0,0.0,0.0,0.0,0.0,0.0,0.0,0.0,0.0,0.0,0.0,0.0,1.389,1.4429,1.1528,0.8482,0.5242,0.081,-0.407,-0.9347,-1.3077,-1.6071,-1.8383,0.0,0.0,0.0,0.0,0.0,0.0,0.0,0.0,0.0,0.0,0.0,0.0,0.0,0.0,0.0,0.0,0.0,0.0,0.0,0.0,0.0,0.0,0.0,0.0,0.0,0.0,-1.1259,-1.0617,-0.9944,0.0,0.0,0.0,0.0,0.0,0.0,0.0,0.0,0.0,0.0,-0.4947,-0.6414,-0.5904,-0.7477,-0.911,-1.0257,-1.1496,-1.2929,-1.4639,-1.5221,-1.6093,0.0,0.0,0.0,0.0,0.0,0.0,0.0,0.0,0.0,0.0,0.0,0.0,0.0,0.0,0.0,0.0,0.0,0.0,0.0,0.0,0.0,0.0,0.0,0.0,0.0,0.0,0.0,-0.6634,-0.6538,0.0,0.0,0.0,0.0,0.0,0.0,0.0,0.0,0.0,0.0,0.0,0.9361,0.6256,0.0,0.0,0.0,0.0,0.0,0.0,0.0,0.0,0.0,0.0,0.0,0.0,1.1588,1.1571,0.9033,0.6288,0.3411,-0.0418,-0.4744,-0.9515,-1.2856,-1.6241,-1.9679,0.0,0.0,0.0,0.0,0.0,0.0,0.0,0.0,0.0,0.0,0.0,0.0,0.0,0.0,0.0,0.0,0.0,0.0,0.0,0.0,0.0,0.0,0.0,0.0,0.0,-0.8323,0.0,0.0,0.0,0.0,0.0,0.0,0.0,0.0,0.0,0.0,0.0,-0.1662,-0.2767,-0.4955,-0.6419,-0.6417,-0.7601,-0.8988,0.0,0.0,0.0,0.0,0.0,0.0,0.0,0.0,0.0,0.0,0.0,0.0,0.0,0.0,-1.5467,-1.4689,-1.4251,-1.3987,-1.4024,0.0,0.0,0.0,0.0,0.0,0.0,0.0,0.0,0.0,0.0,0.0,0.0,0.0,0.0,-0.4067,0.0,-0.5135,0.0,0.0,0.0,0.0,0.0,0.0,0.0,0.0,0.6515,0.7476,0.9576,0.7684,0.6894,0.0,0.7007,0.5663,0.0,0.0,0.0,0.0,0.0,0.0,0.0,0.0,0.9358,0.8947,0.688,0.4447,0.1736,-0.1558,-0.528,-0.9459,-1.3467,-1.7069,-2.0298,-2.2083,-2.3186,0.0,0.0,0.0,0.0,0.0,0.0,0.0,0.0,0.0,0.0,0.0,0.0,0.0,0.0,0.0,0.0,0.0,0.0,0.0,0.0,0.0,0.0,0.0,-0.6743,0.0,0.0,0.0,0.0,0.0,0.0,0.0,0.0,0.0,-0.0417,-0.0838,-0.1583,-0.2988,-0.477,-0.6163,-0.6666,0.0,0.0,0.0,0.0,0.0,0.0,0.0,-1.5265,-1.6666,-1.7273,-1.7761,-1.816,-1.7241,-1.6273,-1.5696,0.0,0.0,-1.4346,-1.4218,-1.4193,-1.4193,-1.3824,-1.3628,-1.3824,-1.3966,-1.3973,0.0,0.0,0.0,0.0,0.0,0.0,0.0,0.0,-0.2096,-0.2519,0.0,-0.2938,0.0,0.0,0.0,0.0,0.0,0.5888,0.0,0.0,0.7239,0.7953,0.8005,0.8095,0.8597,0.9244,0.8378,0.7762,0.7397,0.6104,0.0,0.0,0.0,0.0,0.0,0.0,0.7298,0.6561,0.5072,0.2932,0.0207,-0.2604,-0.5809,-0.9453,-1.4788,-1.844,-2.0135,-2.1844,-2.2955,-2.3334,-2.4403,0.0,0.0,0.0,0.0,0.0,0.0,0.0,0.0,0.0,0.0,0.0,0.0,0.0,0.0,0.0,0.0,0.0,0.0,0.0,0.0,-0.6524,0.0,0.0,0.0,0.0,0.0,0.0,0.0,0.0,0.0,0.0,-0.0438,-0.0968,-0.1815,-0.3246,0.0,0.0,0.0,0.0,-0.8379,-0.9266,-1.0614,-1.1781,-1.2338,-1.3374,-1.4435,-1.5567,0.0,0.0,-1.6293,-1.5966,-1.5431,-1.4853,-1.4864,-1.4795,-1.4487,-1.4257,-1.4102,-1.4095,-1.3701,-1.3507,-1.3975,-1.4027,-1.3947,-0.107,0.0,0.0,0.0,0.0,-0.1028,-0.0968,-0.092,-0.1507,-0.1422,-0.0952,-0.1774,0.0,0.0,0.0,0.0,0.0,0.0,0.5683,0.5579,0.5986,0.6556,0.7365,0.7904,0.877,0.9878,0.9989,0.9545,0.8421,0.793,0.7228,0.6449,0.0,0.0,0.0,0.0,0.586,0.4852,0.3106,0.1141,-0.0956,-0.3901,-0.7612,-1.22,-1.5607,-1.8268,-1.9999,-2.1493,-2.2741,-2.3695,-2.4307,0.0,0.0,0.0,0.0,0.0,0.0,0.0,0.0,0.0,0.0,0.0,0.0,0.0,0.0,0.0,0.0,0.0,0.0,0.0,-0.6374,-0.5678,-0.517,0.0,0.0,0.0,0.0,0.0,0.0,0.0,0.0,0.0,-0.0154,-0.0838,-0.1826,0.0,0.0,-0.5637,-0.6335,-0.6906,-0.7598,-0.8593,-0.9699,0.0,-1.1963,-1.2862,-1.3642,-1.4321,-1.4538,-1.4738,-1.5115,-1.4993,-1.4888,-1.4906,-1.4778,-1.4576,-1.4509,-1.4396,-1.4389,-1.4382,-1.4124,-1.3933,-1.401,-1.3917,-1.3701,0.059,-0.0142,-0.0553,-0.068,-0.0538,-0.0463,-0.0398,-0.0337,-0.0807,-0.0666,-0.0197,-0.0458,0.0065,0.1208,0.2288,0.0,0.0,0.0,0.5297,0.5417,0.5234,0.5814,0.6911,0.7529,0.8611,0.9907,1.0301,1.0034,0.9137,0.8814,0.8264,0.7367,0.0,0.0,0.6268,0.5719,0.4831,0.3602,0.2039,0.0207,-0.194,-0.5245,-0.909,-1.3331,-1.5482,-1.7628,-1.9907,-2.1094,-2.2357,-2.3746,-2.4061,-2.4336,0.0,0.0,0.0,0.0,0.0,0.0,0.0,0.0,0.0,0.0,0.0,-1.6398,-1.4018,0.0,0.0,0.0,-0.6848,-0.6298,-0.5906,-0.5277,0.0,0.0,0.0,0.0,0.0,0.0,0.0,-0.023,-0.0078,-0.0079,-0.0236,-0.0775,-0.1696,-0.3124,-0.4538,-0.5712,-0.6335,0.0,-0.7208,-0.8008,-0.9071,-1.0144,-1.1117,-1.2158,-1.3013,-1.3533,-1.3601,-1.3756,-1.4049,-1.4054,-1.4062,-1.4195,-1.4122,-1.4001,-1.4001,-1.4001,-1.4088,-1.4289,-1.4064,-1.3878,-1.3915,-1.3553,-1.3313,0.2298,0.1301,0.0353,-0.0138,-0.0271,-0.0067,0.0,0.0,0.0067,0.0,-0.0134,0.0937,0.1534,0.1864,0.3794,0.0,0.5064,0.5118,0.5196,0.5328,0.5036,0.5502,0.6591,0.7046,0.8094,0.9646,0.9673,0.9673,0.9633,0.9084,0.8775,0.8589,0.6952,0.6204,0.6327,0.5391,0.4174,0.267,0.1604,-0.0308,-0.3009,-0.6649,-1.0121,-1.3363,-1.4708,-1.6834,-1.9765,-2.0662,-2.1871,-2.3512,-2.3699,-2.3923,-2.4284,0.0,0.0,0.0,0.0,0.0,0.0,0.0,0.0,0.0,0.0,0.0,0.0,0.0,0.0,0.0,-0.5781,0.0,-0.5752,-0.503,0.0,0.0,0.0,-0.1516,-0.0607,-0.0387,-0.0235,0.0,0.0,0.0,-0.0548,-0.0783,-0.1487,-0.2812,-0.4455,-0.5712,-0.6409,-0.6637,-0.7019,-0.7314,-0.859,-0.9627,-1.0066,-1.1364,-1.2507,-1.2906,-1.2916,-1.2903,-1.308,-1.3086,-1.3106,-1.3227,-1.316,-1.318,-1.3206,-1.3247,-1.3353,-1.3908,-1.3696,-1.3493,-1.3534,-1.318,-1.287,0.2597,0.2325,0.2099,0.1185,-0.0069,0.0,0.0,0.0,0.0672,0.1195,0.1628,0.2016,0.2564,0.3201,0.4332,0.4892,0.5111,0.4971,0.4984,0.5028,0.482,0.5393,0.6571,0.7004,0.7909,0.9303,0.9579,0.9566,0.9345,0.9161,0.8961,0.8697,0.7806,0.6902,0.6091,0.5277,0.4061,0.2341,0.1149,-0.1544,-0.5772,-0.8057,-1.0456,-1.307,-1.4566,-1.6557,-1.9121,-2.0391,-2.1619,-2.287,-2.3212,-2.3397,-2.3548,-2.3424,0.0,0.0,0.0,0.0,0.0,0.0,0.0,0.0,0.0,-1.5263,-1.2726,0.0,-0.8346,0.0,-0.6219,-0.5773,-0.5749,-0.4688,0.0,0.0,-0.1937,-0.0934,-0.0389,-0.0154,-0.0076,0.0,0.0,-0.0075,-0.0152,-0.0916,-0.1535,-0.1952,-0.3363,-0.4613,-0.5076,-0.5941,-0.6444,-0.6557,-0.7851,-0.8963,-0.9118,-1.0473,-1.172,-1.1837,-1.2044,-1.2184,-1.2198,-1.2184,-1.2325,-1.2802,-1.2665,-1.2712,-1.31,-1.3026,-1.3084,-1.3507,-1.348,-1.3319,-1.3293,-1.2815,-1.2437,0.372,0.3289,0.3287,0.2469,0.1235,0.1217,0.1201,0.1122,0.1646,0.1944,0.221,0.2774,0.3432,0.418,0.4674,0.4962,0.5023,0.4884,0.4833,0.4889,0.5013,0.5588,0.6601,0.7109,0.7935,0.8997,0.9212,0.9205,0.9051,0.8991,0.8965,0.8758,0.7723,0.6907,0.6258,0.5546,0.4223,0.2228,-0.0155,-0.3053,-0.6532,-0.8234,-1.0137,-1.2294,-1.3591,-1.5566,-1.8402,-1.9459,-2.0711,-2.2346,-2.2703,-2.2947,-2.3141,-2.2972,-2.2703,0.0,0.0,0.0,0.0,0.0,0.0,0.0,0.0,0.0,0.0,0.0,-0.8755,-0.7301,-0.6318,-0.5844,-0.5854,-0.4595,-0.3471,-0.2649,-0.1442,-0.0608,-0.0228,-0.0075,0.0,0.0,0.0,0.0,0.0,-0.0521,-0.0897,-0.091,-0.2122,-0.3421,-0.4449,-0.5463,-0.6101,-0.6029,-0.7146,-0.8475,-0.913,-1.0447,-1.143,-1.1518,-1.1632,-1.167,-1.1587,-1.16,-1.1784,-1.2071,-1.2017,-1.2058,-1.2498,-1.2492,-1.254,-1.2788,-1.2788,-1.2672,-1.2772,-1.2432,-1.2084,0.5002,0.4217,0.4151,0.3737,0.2996,0.2994,0.289,0.2636,0.2626,0.2577,0.2563,0.3346,0.4128,0.486,0.486,0.487,0.488,0.4728,0.4741,0.4924,0.5313,0.5999,0.6922,0.7428,0.8103,0.8804,0.8804,0.8804,0.8804,0.8804,0.8804,0.8752,0.7503,0.6789,0.6543,0.5946,0.445,0.209,-0.1579,-0.4329,-0.6141,-0.7792,-0.9584,-1.15,-1.2507,-1.4507,-1.768,-1.8439,-1.9718,-2.1826,-2.2186,-2.2432,-2.2754,-2.2512,-2.2079,0.0,-2.1467,0.0,0.0,0.0,0.0,0.0,0.0,0.0,0.0,-1.0647,-0.9173,-0.761,-0.644,-0.5847,-0.5966,-0.4566,-0.3196,-0.2037,-0.1091,-0.0364,-0.0073,0.0,0.0,0.0,0.0,0.0,0.0,0.0,0.0,0.0,-0.1018,-0.2261,-0.3784,-0.5007,-0.5725,-0.5724,-0.6663,-0.8087,-0.9542,-1.0659,-1.1289,-1.1452,-1.1364,-1.1242,-1.1066,-1.1154,-1.1323,-1.1376,-1.1403,-1.149,-1.1757,-1.1824,-1.1975,-1.2303,-1.2096,-1.1957,-1.2158,-1.1977,-1.1677,0.5319,0.516,0.516,0.4957,0.4653,0.4653,0.4065,0.3149,0.3321,0.3714,0.425,0.4314,0.4432,0.4608,0.4604,0.4619,0.4724,0.4575,0.4632,0.4926,0.5302,0.6519,0.8293,0.7895,0.8103,0.8752,0.8804,0.8804,0.8804,0.8804,0.8804,0.8804,0.8533,0.7723,0.6478,0.0,0.0,0.0,-0.1553,-0.3887,-0.5551,-0.73,-0.9274,-1.1497,-1.2806,0.0,-1.7421,-1.8494,-1.9736,-2.1178,-2.1491,0.0,0.0,0.0,0.0,0.0,0.0,0.0,0.0,0.0,0.0,0.0,-1.5129,-1.3714,-1.2578,-1.0425,-0.8727,-0.7901,-0.6877,-0.6133,-0.5684,-0.4118,-0.2992,-0.2688,-0.1163,-0.0073,0.0,0.0,0.0,0.0,0.0,0.0,0.0,0.0,0.0,0.0,-0.0928,-0.1623,-0.191,-0.3596,-0.4985,-0.5577,-0.6802,-0.8164,-0.9284,-1.0128,-1.0722,-1.0792,-1.0792,-1.0722,-1.0722,-1.0722,-1.0822,-1.1002,-1.1076,-1.1162,-1.145,-1.151,-1.1619,-1.2221,-1.1867,-1.1527,-1.1786,-1.1447,-1.1142,0.6398,0.0,0.6398,0.6105,0.0,0.5636,0.5034,0.3997,0.4114,0.4305,0.4575,0.4553,0.4463,0.4463,0.4463,0.456,0.4628,0.4879,0.5152,0.5445,0.6242,0.7387,0.8803,0.8425,0.8427,0.8804,0.8804,0.8804,0.8804,0.8804,0.8804,0.8804,0.8427,0.7804,0.6821,0.5422,0.3501,0.1216,-0.1396,-0.3417,-0.49,-0.6828,-0.8815,-1.0797,-1.2205,0.0,0.0,0.0,0.0,0.0,0.0,0.0,0.0,0.0,0.0,-1.9585,-1.9473,-1.8779,-1.7362,-1.7389,-1.6798,-1.5219,-1.3705,-1.2626,-1.195,-1.0882,-0.9649,-0.8186,-0.7669,-0.6872,-0.5672,-0.4242,-0.3262,-0.28,-0.1119,0.0,0.0,0.0,0.0,0.0,0.0,0.0,0.0,0.0,0.0,0.0,-0.0466,-0.0923,-0.1386,-0.2654,-0.3934,-0.4645,-0.614,-0.7443,-0.8218,-0.907,-0.9897,-1.035,-1.0336,-1.0188,-1.0127,-1.0127,-1.0221,-1.0488,-1.0561,-1.0688,-1.1109,-1.1216,-1.1323,-1.1601,-1.1465,-1.1182,-1.1165,-1.0936,-1.0782,0.7444,0.7444,0.7444,0.696,0.6181,0.6292,0.5835,0.5048,0.0,0.0,0.0,0.4897,0.4838,0.4842,0.4901,0.4901,0.4897,0.5437,0.5873,0.6209,0.7241,0.8098,0.8797,0.8798,0.8804,0.8804,0.8804,0.8857,0.8956,0.8857,0.8857,0.8903,0.8212,0.7552,0.6884,0.4258,0.2307,0.1153,-0.1114,-0.2919,-0.4219,-0.6356,-0.8265,-0.9887,-1.141,-1.3478,-1.5992,-1.6886,-1.8142,-1.9894,-2.0333,-2.0496,-2.0496,-1.9954,-1.9411,-1.8939,-1.8111,-1.713,-1.5963,-1.5939,-1.5158,-1.3396,-1.2273,-1.149,-1.1122,-1.1321,-1.0597,-0.8435,-0.828,-0.7576,-0.5712,-0.4523,-0.3527,-0.2711,-0.1059,0.0,0.0,0.0,0.0,0.0,0.0,0.0,0.0,0.0,0.0,0.0,0.0,-0.0184,-0.1046,-0.2239,-0.3405,-0.3911,-0.5398,-0.6586,-0.711,-0.8038,-0.9045,-1.0165,-0.9993,-0.9686,-0.9557,-0.9621,-0.9786,-1.002,-1.004,-1.0267,-1.0708,-1.0762,-1.0817,-1.0981,-1.0923,-1.0775,-1.0574,-1.0491,-1.0485,0.7165,0.717,0.717,0.7037,0.6783,0.6778,0.6604,0.6306,0.5686,0.5723,0.6312,0.6288,0.6288,0.6312,0.6312,0.6317,0.6317,0.6372,0.674,0.7219,0.7557,0.8109,0.8778,0.8811,0.8804,0.8804,0.8804,0.9106,0.9562,0.9106,0.9113,0.9474,0.8748,0.7499,0.5862,0.3789,0.2373,0.166,-0.0717,-0.2429,-0.3373,-0.5874,-0.7807,-0.9143,-1.1013,-1.2686,-1.4158,-1.5993,-1.7441,-1.8484,-1.9556,-1.996,-1.9464,-1.9303,-1.875,-1.768,-1.739,-1.6703,-1.5511,-1.534,-1.4417,-1.2359,-1.1461,-1.0988,-1.0978,-1.0887,-1.0093,-0.8529,-0.8197,-0.7286,-0.5385,-0.4212,-0.3274,-0.2561,-0.0999,0.0,0.0,0.0,0.0,0.0,0.0,0.0,0.0,0.0,0.0,0.0,0.0,0.0,0.0,-0.2191,-0.3534,-0.3958,-0.5168,-0.613,-0.6483,-0.7645,-0.8703,-0.9656,-0.9744,-0.9484,-0.9029,-0.9349,-0.9646,-0.9733,-0.9746,-0.9886,-1.0194,-1.0033,-1.0174,-1.0534,-1.0376,-1.0167,-1.0085,-1.0078,-1.0098,0.8224,0.8224,0.8218,0.7903,0.7285,0.6894,0.6898,0.7182,0.6843,0.6632,0.6583,0.6602,0.6607,0.6588,0.6588,0.6588,0.6642,0.702,0.7343,0.7593,0.7896,0.8339,0.8712,0.849,0.8393,0.8614,0.8679,0.8841,0.9033,0.9133,0.9133,0.9011,0.8304,0.7164,0.5708,0.4231,0.3077,0.2138,-0.0314,-0.1973,-0.2771,-0.493,-0.6767,-0.8246,-0.9944,-1.1729,-1.3544,-1.4752,-1.6094,-1.7661,-1.8252,-1.8592,-1.8584,-1.8025,-1.741,-1.6828,-1.5888,-1.5129,-1.4551,-1.3619,-1.2592,-1.1431,-1.0679,-1.0238,-1.0302,-1.02,-0.9494,-0.7986,-0.7907,-0.7002,-0.4696,-0.3468,-0.2582,-0.1907,-0.074,0.0,0.0,0.0,0.0,0.0491,0.0599,0.0591,0.0597,0.0583,0.0403,0.0,0.0,0.0,0.0,-0.1332,-0.253,-0.2981,-0.4299,-0.5381,-0.5825,-0.653,-0.7684,-0.8951,-0.9196,-0.9088,-0.8835,-0.9088,-0.9216,-0.9406,-0.9446,-0.9559,-0.9826,-0.9786,-0.984,-0.9927,-0.9979,-0.9838,-0.98,-0.9667,-0.9574,0.9554,0.9561,0.9561,0.9092,0.8343,0.78,0.7853,0.8396,0.8389,0.8072,0.7581,0.725,0.7101,0.7074,0.7074,0.7074,0.7182,0.767,0.8043,0.8218,0.8439,0.8724,0.8899,0.8484,0.8339,0.85,0.8736,0.8882,0.8936,0.9322,0.9104,0.8394,0.7788,0.6899,0.5697,0.4698,0.3668,0.2534,0.0219,-0.1375,-0.2159,-0.4066,-0.58,-0.7251,-0.8831,-1.0573,-1.2545,-1.3506,-1.4784,-1.644,-1.6793,-1.7081,-1.7326,-1.6458,-1.5897,-1.5752,-1.4496,-1.3559,-1.3294,-1.1882,-1.0885,-1.0657,-0.9925,-0.9422,-0.9251,-0.9251,-0.8728,-0.7565,-0.7655,-0.6721,-0.4186,-0.2469,-0.1565,-0.1205,-0.0543,0.0,0.0,0.0121,0.0421,0.1,0.1225,0.1323,0.1305,0.1179,0.0785,0.0,0.0,0.0,0.0,-0.0616,-0.13,-0.2067,-0.3362,-0.4539,-0.5183,-0.5714,-0.6603,-0.811,-0.8605,-0.8771,-0.8805,-0.8771,-0.8878,-0.9098,-0.9145,-0.9265,-0.9499,-0.9499,-0.9546,-0.9724,-0.9643,-0.9452,-0.9439,-0.9292,-0.9145,1.0616,1.0659,1.0624,1.0592,1.0458,1.0348,1.0348,1.045,1.0501,1.0501,1.0136,0.9138,0.858,0.8586,0.8593,0.8586,0.8573,0.8639,0.8988,0.9438,0.9285,0.9234,0.9308,0.9338,0.9145,0.8788,0.9145,0.9662,1.0109,0.9703,0.9103,0.8342,0.7757,0.6929,0.5722,0.4738,0.3763,0.2841,0.0897,-0.0538,-0.1477,-0.3526,-0.5122,-0.6052,-0.8072,-0.9451,-1.0245,-1.2349,-1.3809,-1.44,-1.5306,-1.5647,-1.5248,-1.4681,-1.4392,-1.4307,-1.3552,-1.2838,-1.2006,-1.0694,-0.9948,-0.9844,-0.9277,-0.8644,-0.8039,-0.7919,-0.7778,-0.7322,-0.7396,-0.637,-0.3879,-0.1605,-0.0567,-0.0968,-0.0398,0.0,0.0,0.0621,0.1026,0.1056,0.1773,0.2093,0.207,0.1588,0.0896,0.0336,0.0,0.0,0.0,-0.0504,-0.1063,-0.1403,-0.2467,-0.3641,-0.4453,-0.5336,-0.5982,-0.681,-0.7991,-0.8585,-0.8771,-0.8804,-0.8831,-0.8891,-0.8878,-0.8998,-0.9118,-0.9105,-0.9173,-0.9525,-0.9383,-0.8925,-0.8898,-0.8898,-0.8884,1.0813,1.0813,1.0813,1.0813,1.0813,1.0813,1.0813,1.0813,1.0813,1.0813,1.0771,1.021,0.9969,0.9969,1.002,0.9862,0.9645,0.9877,0.9834,0.9674,0.9518,0.9463,0.9453,0.9152,0.8981,0.8984,0.9305,0.9564,0.9656,0.9426,0.9158,0.8931,0.8184,0.7189,0.6178,0.5395,0.4414,0.3321,0.2188,0.0896,-0.0596,-0.2679,-0.4268,-0.5202,-0.6959,-0.8286,-0.9091,-1.0754,-1.2025,-1.2746,-1.347,-1.3905,-1.3994,-1.3472,-1.3026,-1.2689,-1.1957,-1.1187,-1.0442,-1.0,-0.9614,-0.9263,-0.8956,-0.848,-0.7777,-0.7289,-0.6833,-0.6402,-0.6651,-0.5815,-0.3128,-0.1124,-0.0112,-0.0336,0.0224,0.0615,0.0671,0.1284,0.1909,0.2327,0.2643,0.2854,0.2774,0.225,0.1676,0.1285,0.095,0.0671,0.0615,0.0,-0.0615,-0.1062,-0.1676,-0.2454,-0.3566,-0.4491,-0.5082,-0.5671,-0.73,-0.8718,-0.8718,-0.8804,-0.8804,-0.8752,-0.8804,-0.8838,-0.8945,-0.8918,-0.8971,-0.9241,-0.9159,-0.8804,-0.8804,-0.8804,-0.8804,1.1886,1.1837,1.1697,1.1516,1.1384,1.1566,1.1507,1.1425,1.1697,1.1787,1.1657,1.1787,1.1886,1.1796,1.1157,1.0573,1.0254,1.0508,1.0343,0.9819,0.9776,0.9751,0.9636,0.9324,0.916,0.9259,0.9582,0.9641,0.9417,0.9266,0.9245,0.9164,0.8367,0.7425,0.6477,0.5849,0.4948,0.3782,0.3052,0.1892,0.0166,-0.1746,-0.3293,-0.443,-0.582,-0.7053,-0.8093,-0.9131,-1.0291,-1.142,-1.1711,-1.2119,-1.2674,-1.2057,-1.1474,-1.1046,-1.038,-0.9803,-0.9298,-0.917,-0.8901,-0.8482,-0.8265,-0.7883,-0.7176,-0.6583,-0.5982,-0.534,-0.5462,-0.4525,-0.2565,-0.1115,-0.0391,0.0,0.0671,0.1118,0.1118,0.1898,0.2676,0.3231,0.3458,0.3566,0.3345,0.2843,0.2397,0.2119,0.1729,0.1284,0.1118,0.0615,0.0056,-0.0671,-0.0951,-0.1786,-0.3065,-0.4058,-0.4419,-0.495,-0.6627,-0.7997,-0.8275,-0.8268,-0.848,-0.8321,-0.8593,-0.8818,-0.8858,-0.8831,-0.8811,-0.8804,-0.8804,-0.8804,-0.8804,-0.8804,-0.8804,1.4549,1.4365,1.3899,1.3266,1.2861,1.3351,1.3314,1.2852,1.3909,1.4133,1.3663,1.4133,1.4457,1.4182,1.1987,1.0656,1.031,1.0381,1.0501,1.0516,1.0168,0.9968,1.01,1.0174,0.9973,0.9704,1.0128,1.0293,1.0215,0.9762,0.9259,0.8862,0.8333,0.7486,0.6513,0.5965,0.5135,0.4077,0.32,0.2065,0.0733,-0.0662,-0.2213,-0.3811,-0.4884,-0.5936,-0.7039,-0.7707,-0.8763,-1.0372,-1.0129,-1.0281,-1.0916,-1.0215,-0.9608,-0.9435,-0.9105,-0.8937,-0.8758,-0.7999,-0.7436,-0.7338,-0.7098,-0.6416,-0.5923,-0.5701,-0.5324,-0.457,-0.3904,-0.3072,-0.2232,-0.1449,-0.0781,0.0,0.0727,0.1118,0.1173,0.251,0.3176,0.3453,0.3956,0.407,0.3511,0.3342,0.301,0.2563,0.2232,0.1953,0.1453,0.1174,0.0671,0.0056,-0.0671,-0.1618,-0.3065,-0.4015,-0.4391,-0.4754,-0.5638,-0.6673,-0.6933,-0.7187,-0.7563,-0.7943,-0.848,-0.8752,-0.8752,-0.8804,-0.8804,-0.8804,-0.8804,-0.8804,-0.8804,-0.8804,-0.8804,1.4709,1.4698,1.4479,1.4247,1.4118,1.4294,1.4236,1.4107,1.4514,1.456,1.4433,1.4606,1.453,1.415,1.3205,1.2529,1.2135,1.2017,1.1774,1.1416,1.1457,1.1397,1.1182,1.1232,1.118,1.1057,1.1143,1.1067,1.0791,1.0857,1.0406,0.9467,0.9124,0.8433,0.734,0.6461,0.5637,0.48,0.3941,0.2882,0.1588,0.0497,-0.0893,-0.2671,-0.4321,-0.541,-0.5873,-0.6827,-0.7801,-0.8709,-0.857,-0.8857,-0.9432,-0.8901,-0.8446,-0.8346,-0.7802,-0.7432,-0.734,-0.6915,-0.6649,-0.6724,-0.6582,-0.6168,-0.5621,-0.5483,-0.505,-0.4009,-0.3514,-0.2734,-0.1675,-0.0949,-0.0224,0.0615,0.134,0.1953,0.2565,0.34,0.407,0.4125,0.4349,0.4349,0.4181,0.407,0.3956,0.3677,0.3231,0.2788,0.2397,0.1786,0.1062,0.0671,0.0056,-0.0727,-0.1675,-0.3519,-0.4522,-0.4604,-0.5035,-0.5245,-0.545,-0.6784,-0.7444,-0.767,-0.8215,-0.8699,-0.8699,-0.8804,-0.8804,-0.8804,-0.8804,-0.8804,-0.8804,-0.8804,-0.8804,1.5475,1.505,1.5186,1.5005,1.4744,1.4926,1.488,1.4789,1.5119,1.5152,1.5039,1.4991,1.4801,1.4452,1.4162,1.3825,1.3448,1.3013,1.2418,1.1841,1.2083,1.2061,1.1852,1.1822,1.1827,1.1809,1.1791,1.159,1.1287,1.1424,1.0916,0.9883,0.965,0.9027,0.7982,0.7138,0.6379,0.5588,0.4795,0.3755,0.2498,0.1588,0.0365,-0.135,-0.3171,-0.4544,-0.5143,-0.5909,-0.6706,-0.7419,-0.745,-0.7698,-0.8232,-0.8086,-0.7704,-0.7349,-0.6824,-0.6392,-0.6152,-0.5867,-0.5673,-0.5575,-0.5558,-0.5362,-0.4835,-0.475,-0.4229,-0.3553,-0.2843,-0.2119,-0.1228,-0.0224,0.0448,0.0838,0.1619,0.2397,0.2899,0.3849,0.4349,0.446,0.446,0.4463,0.4463,0.4463,0.446,0.4463,0.4015,0.368,0.3231,0.2563,0.1666,0.1434,0.1056,0.0609,-0.011,-0.1414,-0.3646,-0.4084,-0.4508,-0.4497,-0.4754,-0.6192,-0.7084,-0.7374,-0.7871,-0.8362,-0.8692,-0.8745,-0.8798,-0.8791,-0.8804,-0.8804,-0.8804,-0.8804,-0.8804,1.7094,1.5872,1.6176,1.5872,1.5174,1.5564,1.5309,1.5128,1.6039,1.6151,1.5641,1.5699,1.5668,1.5392,1.4588,1.4135,1.3877,1.312,1.2423,1.2002,1.2016,1.2018,1.1928,1.202,1.2044,1.2047,1.1936,1.1898,1.1807,1.141,1.0878,1.0284,0.9777,0.9158,0.821,0.7783,0.7257,0.6444,0.5638,0.4607,0.3373,0.2524,0.1451,0.0066,-0.1316,-0.2974,-0.4909,-0.482,-0.5462,-0.6771,-0.6637,-0.6772,-0.7273,-0.7551,-0.7342,-0.6428,-0.6147,-0.5841,-0.531,-0.4835,-0.427,-0.3996,-0.3934,-0.3878,-0.3539,-0.3303,-0.3184,-0.2936,-0.2065,-0.1118,-0.0782,0.0223,0.0839,0.0336,0.1562,0.2397,0.2674,0.3622,0.4463,0.4463,0.4463,0.4463,0.4519,0.4625,0.4625,0.4625,0.4625,0.4385,0.3814,0.3366,0.2959,0.2263,0.1777,0.1404,0.1176,0.0742,-0.1618,-0.3509,-0.4098,-0.4412,-0.4535,-0.5443,-0.6058,-0.6493,-0.7321,-0.785,-0.8441,-0.8564,-0.8677,-0.8697,-0.8744,-0.8791,-0.8804,-0.8804,-0.8804,1.78,1.7341,1.7518,1.7382,1.7081,1.7259,1.6967,1.6438,1.725,1.6957,1.6191,1.6452,1.6246,1.5514,1.5055,1.4707,1.4379,1.3978,1.3446,1.2965,1.3348,1.3281,1.2904,1.3088,1.3247,1.3289,1.3537,1.3231,1.258,1.2379,1.1622,1.0302,1.0009,0.95,0.8679,0.8227,0.7856,0.7579,0.6555,0.5785,0.5304,0.4024,0.2805,0.1793,0.0491,-0.1113,-0.2881,-0.3769,-0.4684,-0.5762,-0.5416,-0.542,-0.5895,-0.6238,-0.615,-0.5588,-0.4769,-0.4287,-0.3989,-0.3254,-0.2738,-0.2593,-0.264,-0.2591,-0.2567,-0.2483,-0.2255,-0.1937,-0.134,-0.0783,0.0279,0.0783,0.1226,0.1507,0.2397,0.3176,0.3622,0.4181,0.446,0.4463,0.4463,0.4463,0.457,0.4842,0.516,0.5261,0.5538,0.5558,0.4858,0.4237,0.3603,0.2838,0.2443,0.2241,0.2056,0.1731,0.0205,-0.2089,-0.3313,-0.4141,-0.4334,-0.458,-0.5186,-0.5845,-0.6649,-0.7366,-0.7991,-0.8397,-0.853,-0.8604,-0.8644,-0.8711,-0.8784,-0.881,-0.8885,1.8584,1.8131,1.8288,1.8124,1.7735,1.7735,1.7339,1.6862,1.7188,1.6852,1.6268,1.6304,1.6039,1.5387,1.5216,1.5026,1.4738,1.4833,1.4589,1.4114,1.4264,1.4181,1.3735,1.3967,1.4117,1.4149,1.4374,1.4014,1.3111,1.2887,1.2111,1.0828,1.051,1.0193,0.9569,0.9047,0.8792,0.8618,0.7692,0.6931,0.647,0.5451,0.4266,0.3115,0.1953,0.0653,-0.0754,-0.2046,-0.3408,-0.4468,-0.458,-0.4705,-0.497,-0.5275,-0.5204,-0.4553,-0.3948,-0.3365,-0.2885,-0.2273,-0.1713,-0.1663,-0.1811,-0.1859,-0.1858,-0.1782,-0.1398,-0.0907,-0.0698,-0.0108,0.1075,0.1613,0.1935,0.2418,0.2968,0.3671,0.4294,0.4463,0.4463,0.4515,0.4732,0.4842,0.5003,0.5265,0.5662,0.5837,0.6299,0.623,0.5491,0.4958,0.43,0.389,0.3857,0.3541,0.305,0.2494,0.1805,-0.0296,-0.2351,-0.3346,-0.4036,-0.4289,-0.4731,-0.5385,-0.6126,-0.6838,-0.745,-0.8054,-0.8362,-0.8453,-0.8592,-0.8806,-0.8929,-0.9062,-0.9204,1.9534,1.8366,1.8841,1.843,1.7525,1.746,1.7118,1.6368,1.6458,1.641,1.6125,1.5974,1.5646,1.5436,1.5395,1.5301,1.5183,1.5505,1.5619,1.5359,1.5093,1.4755,1.4693,1.4724,1.4755,1.4693,1.4755,1.437,1.3812,1.3235,1.2442,1.1755,1.1154,1.09,1.0592,1.0145,0.9856,0.9665,0.8835,0.7975,0.7291,0.6707,0.5785,0.4271,0.3298,0.2334,0.134,0.0,-0.1689,-0.3574,-0.4015,-0.4147,-0.4311,-0.4711,-0.4284,-0.3283,-0.3282,-0.2597,-0.1954,-0.1335,-0.1072,-0.0674,-0.099,-0.1408,-0.081,-0.0579,-0.0392,-0.0051,0.0051,0.0559,0.1675,0.2235,0.264,0.2948,0.329,0.3776,0.4326,0.4481,0.4548,0.4667,0.5074,0.55,0.5457,0.577,0.601,0.6226,0.659,0.6338,0.574,0.5441,0.5405,0.5117,0.4798,0.4581,0.4044,0.3608,0.2895,0.1358,-0.071,-0.1869,-0.3314,-0.381,-0.4293,-0.4926,-0.549,-0.624,-0.7008,-0.7666,-0.8136,-0.8352,-0.8595,-0.8863,-0.9045,-0.9082,-0.9369,2.0601,2.0268,2.0385,1.9929,1.9225,1.9179,1.8422,1.75,1.7823,1.7364,1.6841,1.7007,1.6736,1.6435,1.6332,1.6331,1.6331,1.6412,1.648,1.6438,1.6305,1.6016,1.5805,1.5734,1.5734,1.5734,1.5872,1.584,1.5144,1.4146,1.3301,1.2485,1.1696,1.115,1.0883,1.0922,1.079,1.0578,1.0032,0.9487,0.8977,0.8171,0.7406,0.6614,0.5226,0.406,0.311,0.1622,-0.023,-0.2317,-0.2878,-0.2969,-0.2824,-0.2921,-0.2751,-0.222,-0.1427,-0.086,-0.0398,0.0267,0.0847,0.1027,0.0757,0.0907,0.0991,0.109,0.116,0.1244,0.1107,0.1353,0.2305,0.2602,0.2904,0.3574,0.378,0.3968,0.4256,0.4614,0.4798,0.4844,0.5356,0.5668,0.5875,0.6212,0.658,0.6711,0.6915,0.7002,0.6227,0.6094,0.6059,0.549,0.5159,0.5203,0.5002,0.4666,0.3935,0.2726,0.1299,0.009,-0.1596,-0.3087,-0.376,-0.448,-0.4733,-0.5363,-0.6457,-0.734,-0.7732,-0.8117,-0.867,-0.8969,-0.8842,-0.8885,-0.9225,2.0989,2.0543,2.0543,1.9968,1.9092,1.9028,1.8406,1.7593,1.7752,1.7561,1.6997,1.7205,1.7173,1.6831,1.6942,1.7002,1.7027,1.7118,1.7058,1.6895,1.6953,1.6799,1.6527,1.6454,1.6438,1.6444,1.6463,1.6168,1.5631,1.4642,1.3766,1.3208,1.2595,1.208,1.1732,1.1933,1.1852,1.1423,1.0999,1.0633,1.0275,0.9654,0.8901,0.8197,0.693,0.5799,0.4593,0.3469,0.1738,-0.0326,-0.1119,-0.1236,-0.128,-0.1352,-0.1269,-0.1008,-0.0165,0.0468,0.097,0.156,0.1871,0.2093,0.2182,0.2292,0.2422,0.253,0.2567,0.2835,0.2044,0.2375,0.3475,0.3711,0.3843,0.4227,0.4435,0.4497,0.4524,0.4973,0.5256,0.5434,0.5819,0.6202,0.6202,0.6727,0.7008,0.7089,0.7133,0.6905,0.6505,0.6635,0.6675,0.6132,0.5996,0.6162,0.6257,0.5985,0.5862,0.4631,0.3008,0.1868,0.0131,-0.1811,-0.2946,-0.3571,-0.3997,-0.4652,-0.5842,-0.6824,-0.7256,-0.7752,-0.849,-0.9034,-0.9005,-0.913,-0.945,2.1065,2.0088,2.0088,1.9251,1.8178,1.8001,1.7857,1.709,1.714,1.7124,1.7043,1.6977,1.7175,1.6986,1.7446,1.7486,1.7476,1.771,1.7544,1.7438,1.7433,1.7398,1.7166,1.7126,1.7126,1.706,1.6509,1.6285,1.5912,1.485,1.4091,1.3771,1.363,1.3254,1.2723,1.2927,1.2805,1.2235,1.1856,1.1517,1.119,1.0768,1.0198,0.9402,0.8447,0.7253,0.6161,0.5306,0.4065,0.1364,0.1042,0.0658,0.0334,0.0174,0.0183,0.0385,0.0929,0.1611,0.2284,0.2343,0.2446,0.297,0.3102,0.314,0.3591,0.3774,0.4001,0.426,0.3023,0.3665,0.5169,0.555,0.5149,0.5043,0.5208,0.5264,0.5173,0.5471,0.575,0.5846,0.6404,0.6653,0.6943,0.7214,0.7517,0.7442,0.749,0.7396,0.722,0.7356,0.725,0.692,0.7012,0.7295,0.7363,0.7378,0.7321,0.6746,0.4838,0.3347,0.1773,0.0,-0.1592,-0.2625,-0.35,-0.4413,-0.5374,-0.6148,-0.6881,-0.7626,-0.8499,-0.9081,-0.9464,-0.9778,-1.0052,2.1987,2.1242,2.119,2.0322,1.9166,1.9194,1.8741,1.7893,1.7893,1.7832,1.7893,1.7893,1.7984,1.8156,1.8194,1.8333,1.8238,1.8301,1.8329,1.8295,1.8282,1.8297,1.8145,1.8072,1.8125,1.8035,1.8044,1.755,1.6723,1.5848,1.5227,1.4304,1.3905,1.3396,1.3176,1.3362,1.3226,1.2793,1.26,1.2339,1.1943,1.1638,1.1256,1.0699,0.9629,0.8464,0.7463,0.7097,0.6436,0.5121,0.3659,0.2691,0.2222,0.2252,0.2302,0.227,0.2623,0.3127,0.3552,0.3831,0.4073,0.4591,0.4717,0.4813,0.4899,0.5348,0.5353,0.5224,0.481,0.5476,0.7335,0.667,0.6044,0.5863,0.595,0.6085,0.5886,0.5642,0.5757,0.6063,0.6334,0.6524,0.6924,0.7137,0.7437,0.7694,0.7891,0.7945,0.7985,0.8032,0.791,0.7677,0.8146,0.845,0.8756,0.8884,0.9087,0.9091,0.7553,0.5734,0.4103,0.1959,0.0428,-0.1433,-0.3365,-0.4227,-0.5081,-0.6307,-0.7233,-0.7898,-0.85,-0.8828,-0.9283,-0.9885,-1.0661,2.2282,2.1301,2.1237,2.0346,1.9125,1.9107,1.8823,1.8356,1.8356,1.8318,1.8283,1.8336,1.8469,1.8585,1.8585,1.8585,1.8499,1.8289,1.8466,1.8585,1.8324,1.8048,1.8224,1.8102,1.8003,1.8004,1.7684,1.7206,1.6606,1.5922,1.5056,1.4759,1.447,1.4106,1.3715,1.3994,1.3935,1.3473,1.3324,1.3193,1.2939,1.2642,1.2272,1.1912,1.1,1.0153,0.9714,0.9261,0.8673,0.7776,0.6539,0.5121,0.4108,0.4164,0.4391,0.4578,0.4495,0.4923,0.5287,0.5291,0.5406,0.6058,0.6307,0.6639,0.6813,0.7189,0.7189,0.6829,0.6632,0.699,0.9022,0.8273,0.7314,0.6723,0.7036,0.7266,0.6979,0.6465,0.6204,0.6556,0.6891,0.7139,0.737,0.7558,0.7848,0.8364,0.87,0.8731,0.8448,0.8488,0.8541,0.8608,0.918,0.9648,1.007,1.0443,1.0898,1.1063,1.0798,0.9124,0.7578,0.5076,0.2568,0.0465,-0.1658,-0.3806,-0.4838,-0.6181,-0.7307,-0.83,-0.8741,-0.879,-0.9206,-1.016,-1.0922,2.2424,2.0998,2.0993,2.0063,1.8802,1.8715,1.8626,1.8427,1.8589,1.8552,1.8446,1.8589,1.8698,1.8717,1.8735,1.8734,1.8663,1.844,1.8715,1.9082,1.8141,1.7721,1.7702,1.7535,1.7317,1.7175,1.7028,1.6691,1.6406,1.5387,1.5165,1.5156,1.5364,1.4885,1.4383,1.4792,1.4792,1.405,1.3902,1.3874,1.3814,1.3581,1.3251,1.2686,1.2218,1.1794,1.1473,1.1038,1.0533,0.9947,0.939,0.8024,0.6682,0.6101,0.6394,0.6929,0.6574,0.6832,0.7097,0.6935,0.6774,0.7307,0.7638,0.8098,0.8448,0.8537,0.8496,0.8334,0.8109,0.8359,1.0084,0.9578,0.8634,0.8123,0.8504,0.861,0.8252,0.7716,0.7502,0.7349,0.7467,0.7634,0.8088,0.8448,0.874,0.9053,0.9376,0.9513,0.9226,0.922,0.9458,0.9799,1.0403,1.1539,1.2108,1.1979,1.2418,1.3001,1.3218,1.2379,1.0909,0.9003,0.6358,0.2581,0.0172,-0.1893,-0.3661,-0.471,-0.6103,-0.802,-0.9248,-0.9482,-0.9988,-1.0597,-1.1546,2.2978,2.1532,2.1331,2.0334,1.9074,1.9115,1.901,1.877,1.8894,1.886,1.877,1.8877,1.9049,1.9095,1.9178,1.9237,1.9181,1.9119,1.9279,1.9406,1.8527,1.7952,1.6905,1.7108,1.6921,1.6645,1.6687,1.7113,1.7244,1.6597,1.5836,1.5774,1.5851,1.5457,1.5051,1.5262,1.5187,1.4471,1.4307,1.4253,1.4143,1.4107,1.3876,1.33,1.297,1.2672,1.2332,1.2072,1.1772,1.1384,1.1101,1.0436,0.9629,0.8914,0.8558,0.8242,0.8431,0.8695,0.8999,0.856,0.8518,0.8762,0.8907,0.869,0.893,0.9195,0.9424,0.9257,0.9545,1.0128,1.0971,1.0764,1.054,1.0195,0.9886,0.9848,0.9653,0.9349,0.8961,0.8842,0.852,0.822,0.8795,0.9315,0.9709,1.005,1.0426,1.0458,1.019,1.043,1.087,1.1263,1.1695,1.3059,1.4293,1.3926,1.3969,1.4767,1.5148,1.5391,1.41,1.2975,1.0345,0.6544,0.3005,0.0409,-0.1274,-0.2924,-0.4526,-0.6126,-0.8082,-1.016,-1.1501,-1.2612,-1.3696,2.28,2.1361,2.1189,2.0474,1.9541,1.9494,1.9374,1.9128,1.929,1.9382,1.9345,1.936,1.9142,1.8943,1.8867,1.8964,1.9089,1.9557,1.9668,1.9544,1.8941,1.7586,1.63,1.6628,1.6622,1.6345,1.6347,1.6649,1.7118,1.7028,1.6696,1.6602,1.6455,1.5999,1.5498,1.5339,1.5208,1.4718,1.4651,1.4612,1.4503,1.4594,1.4357,1.413,1.3858,1.3672,1.3475,1.3085,1.3076,1.3071,1.2857,1.2664,1.2494,1.2249,1.1452,1.0171,1.005,1.0348,1.0593,1.0298,1.0378,1.0735,1.0658,1.0651,1.0668,1.0876,1.076,1.0751,1.1136,1.2022,1.2932,1.2188,1.1712,1.15,1.1231,1.1052,1.0967,1.0941,1.0835,1.059,1.0041,0.9751,0.969,1.0176,1.0636,1.1052,1.1461,1.1445,1.1281,1.175,1.2306,1.2604,1.3084,1.4287,1.5606,1.5787,1.5391,1.6088,1.6838,1.7092,1.6853,1.5522,1.3482,1.0456,0.7035,0.4452,0.0497,-0.1372,-0.2814,-0.4494,-0.71,-0.9758,-1.2717,-1.4684,-1.5495,2.2829,2.1317,2.1281,2.0684,1.9884,1.9809,1.9635,1.9484,1.9654,1.9823,1.9884,1.9767,1.9369,1.8882,1.8749,1.8693,1.8488,1.9295,1.9825,1.9764,1.9182,1.774,1.695,1.6373,1.6714,1.6451,1.6721,1.6105,1.6696,1.6961,1.7278,1.7283,1.6946,1.6535,1.6124,1.5699,1.5255,1.4977,1.4946,1.4946,1.497,1.4954,1.4946,1.492,1.4789,1.4728,1.4794,1.4511,1.465,1.4834,1.4814,1.4676,1.5022,1.5475,1.4515,1.2424,1.1943,1.2138,1.2348,1.2267,1.2368,1.268,1.2694,1.2697,1.2682,1.254,1.2614,1.2622,1.3017,1.3559,1.4063,1.3631,1.3137,1.2914,1.2775,1.2551,1.2638,1.275,1.2918,1.2477,1.168,1.1402,1.1428,1.1228,1.1681,1.2495,1.2923,1.2929,1.2866,1.3262,1.371,1.3965,1.4533,1.5553,1.6631,1.7537,1.7162,1.7079,1.7881,1.8415,1.8279,1.7823,1.5604,1.3592,1.3271,1.0371,0.5342,0.0415,-0.1243,-0.3328,-0.6363,-0.9053,-1.146,-1.4368,-1.6226,2.39,2.2364,2.2193,2.1262,1.9915,1.9813,1.9802,1.9764,1.9813,1.9972,2.0168,1.9926,1.9707,1.9413,1.9345,1.8712,1.8412,1.9126,1.9953,2.0023,1.9446,1.9249,1.9219,1.8068,1.7272,1.6943,1.7813,1.8068,1.76,1.707,1.7219,1.7664,1.7651,1.7271,1.6381,1.5989,1.5831,1.5222,1.5081,1.5129,1.5198,1.5125,1.5081,1.5057,1.5085,1.5328,1.5799,1.5738,1.6072,1.6885,1.6817,1.662,1.6552,1.6538,1.6374,1.5763,1.5449,1.5304,1.5119,1.46,1.438,1.4426,1.4228,1.3954,1.4002,1.3951,1.3909,1.3915,1.4314,1.4659,1.5007,1.4979,1.5023,1.4994,1.479,1.4804,1.4877,1.4472,1.466,1.4689,1.4018,1.3547,1.3311,1.2976,1.2801,1.3643,1.43,1.4299,1.4355,1.4612,1.4989,1.5204,1.5732,1.6711,1.7187,1.8169,1.8268,1.7997,1.8431,1.9118,1.8602,1.8134,1.8163,1.6674,1.6501,1.5011,1.0037,0.5369,0.1482,-0.1795,-0.4339,-0.7013,-0.9694,-1.2877,-1.6631,2.3141,2.1982,2.1423,2.0764,2.0129,2.0071,2.0086,2.0088,2.0079,2.0165,2.0241,2.0165,1.9583,1.8801,1.8108,1.7507,1.7378,1.8712,1.9769,2.0205,1.9915,1.9953,1.9905,1.9149,1.8135,1.7659,1.7929,1.8034,1.792,1.8429,1.8787,1.8341,1.8061,1.7419,1.6506,1.6006,1.5613,1.5303,1.5229,1.5248,1.5285,1.5254,1.5209,1.5213,1.5213,1.5691,1.6258,1.6377,1.7028,1.7928,1.8102,1.8248,1.8469,1.8591,1.8479,1.8329,1.8063,1.7502,1.6663,1.6221,1.618,1.6264,1.5997,1.5723,1.5619,1.5381,1.5242,1.5339,1.5424,1.563,1.5838,1.5846,1.6252,1.6453,1.6481,1.6481,1.6497,1.6481,1.6359,1.6392,1.6361,1.5798,1.527,1.489,1.4556,1.4758,1.525,1.5288,1.5336,1.5458,1.5919,1.6396,1.7023,1.7793,1.7998,1.847,1.8566,1.8347,1.8027,1.8445,1.8099,1.7842,1.7627,1.7436,1.6623,1.4931,1.2822,0.0,0.0,0.0,-0.2132,-0.5513,-0.9065,-1.351,-1.6795,2.2464,2.1598,2.0928,2.0529,2.0336,2.0299,2.0289,2.0292,2.0292,2.0304,2.0292,2.0219,1.9323,1.8023,1.7385,1.7207,1.6681,1.8255,1.9212,1.9793,2.0201,2.0307,2.0184,1.9614,1.8999,1.82,1.8657,1.8581,1.8776,1.9282,1.9612,1.8841,1.8141,1.7441,1.6602,1.5847,1.5324,1.5304,1.5319,1.5324,1.531,1.5323,1.5299,1.5317,1.5431,1.5839,1.6715,1.6851,1.7605,1.8954,1.9177,1.9333,1.9741,1.9792,1.9735,1.9609,1.9437,1.9039,1.8207,1.7729,1.7726,1.7706,1.753,1.6923,1.694,1.6648,1.6458,1.6568,1.6486,1.6746,1.7062,1.6888,1.74,1.7684,1.7737,1.7737,1.7719,1.7684,1.7719,1.7755,1.779,1.7897,1.7364,1.6891,1.6537,1.6203,1.62,1.6295,1.6527,1.6735,1.7242,1.7824,1.8068,1.86,1.8614,1.8746,1.8801,1.8522,1.8198,1.7735,1.7375,1.6869,1.6442,1.6287,1.593,1.3607,1.076,0.0,0.0,0.0,-0.1821,-0.5196,-0.8981,-1.3344,-1.6021,2.2535,2.1781,2.1625,2.1098,2.0379,2.0316,2.0288,2.0302,2.0284,2.0292,2.0292,2.015,1.9234,1.8178,1.8101,1.7692,1.6594,1.8298,1.8893,1.9313,1.9807,2.0321,2.0306,2.0105,1.9759,1.9199,1.9431,1.9423,1.9355,1.9825,1.9367,1.8164,1.8046,1.741,1.6604,1.5768,1.5332,1.5295,1.5342,1.5359,1.5352,1.5335,1.534,1.533,1.5492,1.6123,1.7669,1.7637,1.8337,2.0022,2.0037,1.9996,2.0224,2.0282,2.0223,2.0113,2.0094,1.9812,1.9448,1.8994,1.8874,1.8666,1.8273,1.7814,1.7923,1.7291,1.7213,1.7527,1.7321,1.7466,1.7931,1.8406,1.846,1.8825,1.8836,1.8855,1.8873,1.8919,1.8957,1.9066,1.9058,1.9017,1.8998,1.84,1.8035,1.7714,1.7506,1.7591,1.8236,1.8526,1.896,1.9331,1.9235,1.9308,1.912,1.9041,1.873,1.8238,1.777,1.7172,1.659,1.6003,1.4866,1.4087,1.3301,1.1037,0.0,0.0,0.0,0.0,-0.1362,-0.374,-0.7051,-1.1104,-1.3221,2.1357,2.1049,2.0987,2.0781,2.0447,2.0402,2.0332,2.0301,2.0292,2.0292,2.0265,1.97,1.8857,1.8146,1.7954,1.7689,1.6914,1.8364,1.8815,1.9219,1.9814,2.038,2.0448,2.0389,2.0207,1.9948,2.0205,2.0299,2.002,2.0247,1.9659,1.8845,1.8228,1.7374,1.66,1.577,1.5394,1.5287,1.5329,1.5318,1.5313,1.5335,1.5329,1.5302,1.5324,1.6249,1.7579,1.7838,1.8904,1.9906,2.03,2.0321,2.0303,2.0329,2.0312,2.0214,2.0248,2.0242,2.0227,1.9856,1.9637,1.9454,1.8922,1.8485,1.8732,1.8829,1.8545,1.8431,1.7939,1.7999,1.8506,1.8648,1.8785,1.9506,1.9837,1.9808,1.975,1.9682,1.9711,1.9604,1.975,1.9834,1.985,1.9802,1.9501,1.92,1.9008,1.8939,1.9359,1.9591,1.9729,1.9752,1.9571,1.9394,1.919,1.8892,1.8557,1.7975,1.7358,1.6395,1.5455,1.3776,1.27,1.1884,1.12,0.9781,0.7807,0.501,0.2695,0.083,-0.0138,-0.1125,-0.486,-0.8687,-0.9512,2.084,2.0625,2.0542,2.0513,2.0484,2.0395,2.0357,2.0301,2.0292,2.0292,2.0254,1.961,1.8937,1.8371,1.8235,1.8072,1.7891,1.8661,1.9161,1.9639,2.0115,2.0448,2.0472,2.0402,2.0305,2.0327,2.0346,2.0307,2.0172,2.0322,1.9995,1.9383,1.8619,1.7718,1.656,1.5769,1.5268,1.5236,1.528,1.5268,1.5269,1.5288,1.5299,1.5346,1.5513,1.6386,1.7571,1.8119,1.874,1.9608,2.0074,2.0114,2.0119,2.0147,2.0258,2.0278,2.0257,2.0252,2.0188,2.0172,1.9803,1.9084,1.8672,1.8667,1.9181,1.956,1.9018,1.8893,1.8497,1.8527,1.9116,1.9121,1.9354,2.0018,2.0074,2.0055,2.0007,1.9967,2.0049,2.0091,2.0184,2.0168,2.0111,2.0056,1.9876,1.9705,1.9749,1.9565,1.9629,1.9747,1.962,1.9573,1.9433,1.9249,1.9054,1.861,1.8154,1.7594,1.6766,1.5273,1.4038,1.245,1.1549,1.133,1.0488,0.9088,0.8047,0.7003,0.4033,0.0723,0.0045,-0.0456,-0.1146,-0.4355,-0.4542,2.1328,2.0644,2.0586,2.0544,2.0504,2.0376,2.0305,2.0313,2.0299,2.0292,2.0284,2.0156,1.9726,1.9143,1.9033,1.8947,1.886,1.9198,1.9668,2.0233,2.0325,2.0445,2.0396,2.0342,2.0263,2.0096,2.0139,2.0169,2.004,2.0164,2.0123,1.9873,1.9073,1.7979,1.6567,1.5682,1.5197,1.5062,1.5201,1.521,1.5193,1.5226,1.5196,1.5303,1.5773,1.6637,1.7503,1.8287,1.884,1.9375,1.9913,1.9834,1.9417,1.9909,2.0102,2.0099,2.0141,2.0115,2.0031,2.0163,1.9569,1.8633,1.8457,1.8301,1.8184,1.8476,1.912,1.9213,1.955,1.959,1.9724,1.9702,1.9973,2.0108,2.0131,2.0133,2.0064,1.994,1.9967,1.9967,2.0113,2.0194,2.0161,2.0113,2.0022,2.0029,2.0289,2.021,1.9857,1.9631,1.9363,1.919,1.9042,1.883,1.8586,1.8217,1.7743,1.7214,1.6204,1.4717,1.3324,1.2046,1.133,1.095,1.0254,0.9275,0.9621,0.9935,0.6885,0.3942,0.0837,-0.0094,-0.0142,0.0,0.0,2.0839,2.054,2.0487,2.0485,2.0486,2.0467,2.0418,2.0366,2.0314,2.0284,2.0289,2.0293,1.9877,1.9503,1.9675,1.9707,1.9352,1.9899,2.0355,2.0394,2.0438,2.0398,2.0342,2.0311,2.02,2.006,2.0069,2.0031,1.988,1.9991,1.9981,1.9772,1.9164,1.786,1.6716,1.594,1.5674,1.5071,1.4996,1.5023,1.5027,1.5018,1.5026,1.5038,1.5763,1.6624,1.7489,1.8231,1.8897,1.9304,1.9783,1.9678,1.9392,1.985,1.9898,1.9896,1.9926,1.9907,1.9877,1.9907,1.9812,1.9115,1.8601,1.8523,1.9119,1.9371,1.9608,1.9668,2.0031,1.9985,1.9888,1.9788,1.9898,1.9907,1.9907,1.9898,1.9839,1.9669,1.959,1.959,1.966,1.9782,1.9793,1.9668,1.9583,1.9408,1.9494,1.9409,1.9117,1.9011,1.8833,1.8652,1.8502,1.8322,1.8049,1.7667,1.7069,1.6412,1.5433,1.4151,1.2833,1.1569,1.0819,1.0244,0.9939,0.9703,0.9621,0.9563,0.9655,0.7602,0.4268,0.0,0.0,0.0,0.0,2.051,2.0475,2.0414,2.0426,2.0449,2.044,2.0431,2.0379,2.034,2.0321,2.0332,2.0348,2.0138,1.9915,2.0078,2.0243,1.9687,2.0114,2.0391,2.0387,2.0366,2.0342,2.0303,2.0276,2.0173,2.005,1.9964,1.9924,1.9832,1.9809,1.9832,1.9669,1.9117,1.8305,1.7349,1.6801,1.6186,1.5612,1.5395,1.5232,1.5045,1.4885,1.4849,1.517,1.5799,1.6688,1.739,1.8189,1.8988,1.935,1.9538,1.9575,1.9481,1.9557,1.9669,1.9726,1.9645,1.9645,1.9626,1.9626,1.9462,1.9066,1.8821,1.8943,1.9362,1.9254,1.956,1.9773,2.0087,1.9839,1.956,1.9515,1.9456,1.9456,1.9532,1.9532,1.9556,1.9379,1.9286,1.9271,1.9206,1.9295,1.9309,1.9177,1.9022,1.8804,1.8607,1.8502,1.8423,1.8362,1.8258,1.8059,1.7829,1.758,1.7346,1.7101,1.6439,1.5656,1.4706,1.3677,1.2352,1.1107,1.0326,0.9637,0.947,0.9194,0.8854,0.8806,0.9117,0.8874,0.737,0.0,0.0,0.0,0.0,2.0391,2.0387,2.0387,2.0391,2.0377,2.0352,2.0345,2.0379,2.0376,2.0381,2.0386,2.0443,2.0371,2.037,2.0455,2.0389,2.029,2.0355,2.0366,2.0376,2.033,2.0307,2.0286,2.0269,2.0118,2.0037,1.9936,1.9836,1.9786,1.9645,1.9657,1.9651,1.9263,1.8687,1.8118,1.7652,1.6899,1.6243,1.5764,1.5506,1.5188,1.4905,1.4859,1.5175,1.583,1.6623,1.7433,1.8379,1.8789,1.9056,1.9186,1.9,1.8987,1.9191,1.942,1.9527,1.938,1.9361,1.9361,1.9376,1.8955,1.8657,1.8566,1.8519,1.8603,1.8828,1.9188,1.9507,1.9732,1.9263,1.8894,1.884,1.8763,1.8874,1.9022,1.9087,1.9188,1.9127,1.9026,1.8941,1.8818,1.88,1.8714,1.8592,1.8485,1.8407,1.8178,1.7921,1.7826,1.777,1.7625,1.7419,1.7134,1.6809,1.6596,1.6601,1.5976,1.5257,1.4387,1.3383,1.1976,1.1093,1.0708,1.0153,0.9304,0.889,0.9015,0.8896,0.8803,0.8406,0.7849,0.0,0.0,0.0,0.0,2.0385,2.0322,2.0322,2.0347,2.0391,2.0392,2.036,2.0332,2.0334,2.0334,2.0332,2.041,2.0423,2.0389,2.0359,2.0328,2.0311,2.0328,2.034,2.0288,2.0179,2.025,2.0253,2.0172,2.0031,1.9901,1.9778,1.9688,1.9462,1.9361,1.9256,1.9178,1.8992,1.8794,1.8713,1.8578,1.7646,1.6883,1.6349,1.5885,1.557,1.5358,1.5129,1.5162,1.5569,1.6325,1.7095,1.7995,1.8504,1.9062,1.921,1.9111,1.8966,1.9057,1.9166,1.9182,1.9212,1.9286,1.9286,1.9286,1.8886,1.8276,1.8412,1.8515,1.8489,1.8507,1.8855,1.9179,1.9347,1.8981,1.8304,1.8014,1.8073,1.8226,1.8413,1.8592,1.8663,1.8553,1.846,1.8404,1.8294,1.8274,1.8176,1.8046,1.7945,1.7937,1.7793,1.7472,1.7276,1.7219,1.7076,1.6837,1.6664,1.6394,1.6367,1.6355,1.5578,1.4811,1.4173,1.3559,1.2672,1.1894,1.1393,1.0643,0.9771,0.9503,0.9542,0.9252,0.8622,0.8137,0.7481,0.4729,0.2567,0.2451,0.2198,2.0326,2.0302,2.0302,2.0276,2.0256,2.0344,2.0293,2.021,2.0277,2.0341,2.0358,2.0391,2.0372,2.0269,1.9987,1.9759,1.9703,1.9265,1.9276,1.9718,1.985,2.0031,2.0068,2.0162,2.0055,1.9894,1.9725,1.9638,1.935,1.9135,1.9019,1.8843,1.8584,1.8641,1.861,1.8376,1.8171,1.7627,1.7142,1.656,1.6175,1.5837,1.5312,1.5111,1.5465,1.5898,1.6505,1.7399,1.8317,1.8867,1.8977,1.9259,1.9115,1.9134,1.9069,1.9101,1.9198,1.923,1.9143,1.8855,1.8346,1.7836,1.7754,1.7475,1.7782,1.7945,1.8466,1.8896,1.8878,1.8713,1.7869,1.7205,1.7398,1.7555,1.7792,1.8049,1.8,1.7915,1.7851,1.7808,1.7764,1.7764,1.7681,1.753,1.7394,1.7332,1.7166,1.6878,1.6777,1.6761,1.658,1.6336,1.6258,1.6123,1.6151,1.6136,1.5666,1.5162,1.4893,1.419,1.3325,1.2609,1.2018,1.1165,1.0206,0.9846,0.9399,0.8837,0.8263,0.7875,0.7565,0.6004,0.4424,0.3791,0.3439,2.0285,2.0277,2.0269,2.0133,2.0041,2.0169,2.0142,2.0021,2.0119,2.0292,2.0336,2.0188,2.0085,2.0061,1.9457,1.9098,1.8911,1.8511,1.86,1.8992,1.9203,1.9542,2.0073,2.0233,1.9895,1.9832,1.9764,1.954,1.9394,1.9117,1.877,1.8566,1.8371,1.8391,1.8552,1.8181,1.8181,1.8511,1.8094,1.7599,1.6812,1.6155,1.5605,1.5471,1.5506,1.5637,1.6088,1.694,1.8027,1.8335,1.8775,1.9253,1.9227,1.9196,1.9117,1.9152,1.9214,1.9,1.877,1.8416,1.75,1.6835,1.6288,1.6202,1.6587,1.7232,1.7774,1.8206,1.8222,1.7988,1.7291,1.6925,1.6953,1.7082,1.7277,1.7467,1.7495,1.7419,1.7372,1.7342,1.7399,1.7375,1.719,1.7052,1.6986,1.6821,1.6773,1.6538,1.6282,1.6282,1.6203,1.5968,1.5955,1.5942,1.5942,1.5913,1.5827,1.5533,1.5277,1.4735,1.3785,1.3153,1.2634,1.1677,1.0696,0.9618,0.8926,0.8601,0.8241,0.7693,0.7416,0.7252,0.6431,0.5261,0.4508,2.0205,2.006,1.9962,1.9899,1.9858,1.9899,1.9909,1.9812,1.9362,1.9588,1.998,1.9151,1.9184,1.9959,1.8744,1.8351,1.8568,1.7984,1.828,1.8645,1.8857,1.9234,1.9953,2.0037,1.9639,1.922,1.9151,1.9372,1.8996,1.8753,1.8566,1.833,1.8187,1.829,1.8547,1.8195,1.8502,1.8966,1.8812,1.8103,1.7119,1.7115,1.6931,1.5826,1.5203,1.555,1.5986,1.6536,1.7458,1.8078,1.8867,1.9157,1.9086,1.9067,1.9034,1.9035,1.9061,1.879,1.8256,1.7774,1.6974,1.5986,1.5436,1.5386,1.5671,1.6366,1.6918,1.7283,1.7426,1.7162,1.688,1.6654,1.6492,1.6612,1.6684,1.6799,1.6929,1.6919,1.686,1.6917,1.6975,1.6908,1.6716,1.6616,1.6578,1.661,1.6757,1.6591,1.6059,1.5892,1.5994,1.5854,1.5812,1.5799,1.5741,1.5742,1.5669,1.5578,1.5364,1.4781,1.418,1.3555,1.288,1.2105,1.1159,1.0275,0.9508,0.8862,0.8481,0.8026,0.7304,0.7106,0.709,0.6258,0.5517,2.0106,1.9993,1.9858,1.9762,1.9744,1.9774,1.9567,1.9092,1.8438,1.845,1.889,1.8255,1.8493,1.9504,1.8273,1.7542,1.79,1.7388,1.735,1.7753,1.8407,1.89,1.9334,1.9801,1.9696,1.9276,1.9129,1.9066,1.8607,1.843,1.831,1.81,1.8061,1.8187,1.8448,1.8545,1.8752,1.8984,1.9051,1.8474,1.7513,1.7638,1.7381,1.6101,1.5637,1.5729,1.549,1.5949,1.6725,1.7654,1.8538,1.8907,1.8878,1.8825,1.8539,1.8431,1.843,1.8547,1.7733,1.7027,1.643,1.5487,1.4187,1.3999,1.4256,1.496,1.599,1.6419,1.684,1.6676,1.6314,1.6044,1.5983,1.6029,1.5836,1.5759,1.5995,1.6157,1.6142,1.6208,1.6309,1.6452,1.6297,1.6243,1.6196,1.6142,1.6313,1.6367,1.5879,1.5535,1.5637,1.5667,1.5595,1.5507,1.5418,1.5477,1.558,1.5496,1.5393,1.4964,1.443,1.3798,1.3139,1.2297,1.1673,1.1315,1.0557,0.9616,0.9255,0.8975,0.7951,0.6999,0.7042,0.7198,0.6673,1.9631,1.963,1.9462,1.9339,1.9279,1.9351,1.8926,1.8161,1.7442,1.7262,1.7435,1.7344,1.7929,1.829,1.7759,1.7093,1.6638,1.6465,1.6445,1.683,1.7311,1.7989,1.8751,1.9382,1.9303,1.9064,1.8739,1.8586,1.8322,1.813,1.7904,1.7854,1.7944,1.8035,1.827,1.8528,1.8825,1.9017,1.9059,1.8861,1.8504,1.8207,1.7619,1.6945,1.6316,1.56,1.5343,1.5465,1.6272,1.6962,1.8018,1.8556,1.8645,1.8536,1.8002,1.7807,1.8039,1.7755,1.7025,1.6285,1.5737,1.4872,1.3365,1.2909,1.3297,1.4052,1.5118,1.5645,1.6046,1.6239,1.5887,1.5649,1.5591,1.554,1.5261,1.5071,1.5342,1.5521,1.5535,1.5606,1.5737,1.5926,1.5926,1.5841,1.5885,1.5814,1.577,1.5741,1.5668,1.5477,1.5404,1.5374,1.5285,1.5195,1.525,1.5381,1.5618,1.5304,1.5168,1.4938,1.4562,1.376,1.3014,1.237,1.1857,1.1471,1.1009,1.014,0.9906,0.9768,0.9259,0.837,0.7794,0.7895,0.7711,1.7909,1.772,1.7529,1.7462,1.7454,1.7475,1.7351,1.7093,1.6507,1.653,1.6707,1.6026,1.6274,1.7775,1.617,1.5682,1.6292,1.6029,1.6189,1.6522,1.6901,1.731,1.7849,1.8621,1.8678,1.8331,1.7821,1.7439,1.77,1.7563,1.7616,1.8027,1.833,1.843,1.8508,1.8734,1.8948,1.9101,1.9119,1.897,1.9127,1.8739,1.8133,1.766,1.7367,1.6982,1.6716,1.6424,1.6526,1.6851,1.7477,1.8289,1.848,1.832,1.7771,1.7433,1.7666,1.713,1.6415,1.5948,1.5459,1.4443,1.3314,1.2988,1.3472,1.4086,1.4799,1.5027,1.5442,1.593,1.5747,1.5613,1.5545,1.5503,1.5313,1.5329,1.5448,1.5344,1.5256,1.5271,1.5345,1.5463,1.5507,1.5566,1.5799,1.5741,1.5668,1.5595,1.5285,1.5195,1.5149,1.5072,1.5011,1.5415,1.5719,1.5627,1.5695,1.533,1.4849,1.4425,1.3951,1.3443,1.2758,1.215,1.1652,1.1248,1.0777,1.0785,1.0426,1.0285,1.0486,1.0008,0.9187,0.848,0.8234]}]]